[[{"header":{"parameterUnit":"m.s-1","parameterCategory":1,"la1":30.6,"la2":28.766,"lo1":-90.7593,"lo2":-88.6598,"dy":0.0162,"dx":0.0183,"nx":116,"ny":114,"refTime":"2024-06-14T18:00:00:Z","depth":0,"parameterNumber":2,"parameterNumberName":"U-component_of_WINDS"},"data":[0.0,0.0,0.0,0.0,0.0,0.0,0.0,0.0,0.0,0.0,0.0,0.0,0.0,0.0,0.0,0.0,0.0,0.0,0.0,0.0,0.0,0.0,0.0,0.0,0.0,0.0,0.0,0.0,0.0,0.0,0.0,0.0,0.0,0.0,0.0,0.0,0.0,0.0,0.0,0.0,0.0,0.0,0.0,0.0,0.0,0.0,0.0,0.0,0.0,0.0,0.0,0.0,0.0,0.0,0.0,0.0,0.0,0.0,0.0,0.0,0.0,0.0,0.0,0.0,0.0,0.0,0.0,0.0,0.0,0.0,0.0,0.0,0.0,0.0,0.0,0.0,0.0,0.0,0.0,0.0,0.0,0.0,0.0,0.0,0.0,0.0,0.0,0.0,0.0,0.0,0.0,0.0,0.0,0.0,0.0,0.0,0.0,0.0,0.0,0.0,0.0,0.0,0.0,0.0,0.0,0.0,0.0,0.0,0.0,0.0,0.0,0.0,0.0,0.0,0.0,0.0,0.0,0.0,0.0,0.0,0.0,0.0,0.0,0.0,0.0,0.0,0.0,0.0,0.0,0.0,0.0,0.0,0.0,0.0,0.0,0.0,0.0,0.0,0.0,0.0,0.0,0.0,0.0,0.0,0.0,0.0,0.0,0.0,0.0,0.0,0.0,0.0,0.0,0.0,0.0,0.0,0.0,0.0,0.0,0.0,0.0,0.0,0.0,0.0,0.0,0.0,0.0,0.0,0.0,0.0,0.0,0.0,0.0,0.0,0.0,0.0,0.0,0.0,0.0,0.0,0.0,0.0,0.0,0.0,0.0,0.0,0.0,0.0,0.0,0.0,0.0,0.0,0.0,0.0,0.0,0.0,0.0,0.0,0.0,0.0,0.0,0.0,0.0,0.0,0.0,0.0,0.0,0.0,0.0,0.0,0.0,0.0,0.0,0.0,0.0,0.0,0.0,0.0,0.0,0.0,0.0,0.0,0.0,0.0,0.0,0.0,0.0,0.0,0.0,0.0,0.0,0.0,0.0,0.0,0.0,0.0,0.0,0.0,0.0,0.0,0.0,0.0,0.0,0.0,0.0,0.0,0.0,0.0,0.0,0.0,0.0,0.0,0.0,0.0,0.0,0.0,0.0,0.0,0.0,0.0,0.0,0.0,0.0,0.0,0.0,0.0,0.0,0.0,0.0,0.0,0.0,0.0,0.0,0.0,0.0,0.0,0.0,0.0,0.0,0.0,0.0,0.0,0.0,0.0,0.0,0.0,0.0,0.0,0.0,0.0,0.0,0.0,0.0,0.0,0.0,0.0,0.0,0.0,0.0,0.0,0.0,0.0,0.0,0.0,0.0,0.0,0.0,0.0,0.0,0.0,0.0,0.0,0.0,0.0,0.0,0.0,0.0,0.0,0.0,0.0,0.0,0.0,0.0,0.0,0.0,0.0,0.0,0.0,0.0,0.0,0.0,0.0,0.0,0.0,0.0,0.0,0.0,0.0,0.0,0.0,0.0,0.0,0.0,0.0,0.0,0.0,0.0,0.0,0.0,0.0,0.0,0.0,0.0,0.0,0.0,0.0,0.0,0.0,0.0,0.0,0.0,0.0,0.0,0.0,0.0,0.0,0.0,0.0,0.0,0.0,0.0,0.0,0.0,0.0,0.0,0.0,0.0,0.0,0.0,0.0,0.0,0.0,0.0,0.0,0.0,0.0,0.0,0.0,0.0,0.0,0.0,0.0,0.0,0.0,0.0,0.0,0.0,0.0,0.0,0.0,0.0,0.0,0.0,0.0,0.0,0.0,0.0,0.0,0.0,0.0,0.0,0.0,0.0,0.0,0.0,0.0,0.0,0.0,0.0,0.0,0.0,0.0,0.0,0.0,0.0,0.0,0.0,0.0,0.0,0.0,0.0,0.0,0.0,0.0,0.0,0.0,0.0,0.0,0.0,0.0,0.0,0.0,0.0,0.0,0.0,0.0,0.0,0.0,0.0,0.0,0.0,0.0,0.0,0.0,0.0,0.0,0.0,0.0,0.0,0.0,0.0,0.0,0.0,0.0,0.0,0.0,0.0,0.0,0.0,0.0,0.0,0.0,0.0,0.0,0.0,0.0,0.0,0.0,0.0,0.0,0.0,0.0,0.0,0.0,0.0,0.0,0.0,0.0,0.0,0.0,0.0,0.0,0.0,0.0,0.0,0.0,0.0,0.0,0.0,0.0,0.0,0.0,0.0,0.0,0.0,0.0,0.0,0.0,0.0,0.0,0.0,0.0,0.0,0.0,0.0,0.0,0.0,0.0,0.0,0.0,0.0,0.0,0.0,0.0,0.0,0.0,0.0,0.0,0.0,0.0,0.0,0.0,0.0,0.0,0.0,0.0,0.0,0.0,0.0,0.0,0.0,0.0,0.0,0.0,0.0,0.0,0.0,0.0,0.0,0.0,0.0,0.0,0.0,0.0,0.0,0.0,0.0,0.0,0.0,0.0,0.0,0.0,0.0,0.0,0.0,0.0,0.0,0.0,0.0,0.0,0.0,0.0,0.0,0.0,0.0,0.0,0.0,0.0,0.0,0.0,0.0,0.0,0.0,0.0,0.0,0.0,0.0,0.0,0.0,0.0,0.0,0.0,0.0,0.0,0.0,0.0,0.0,0.0,0.0,0.0,0.0,0.0,0.0,0.0,0.0,0.0,0.0,0.0,0.0,0.0,0.0,0.0,0.0,0.0,0.0,0.0,0.0,0.0,0.0,0.0,0.0,0.0,0.0,0.0,0.0,0.0,0.0,0.0,0.0,0.0,0.0,0.0,0.0,0.0,0.0,0.0,0.0,0.0,0.0,0.0,0.0,0.0,0.0,0.0,0.0,0.0,0.0,0.0,0.0,0.0,0.0,0.0,0.0,0.0,0.0,0.0,0.0,0.0,0.0,0.0,0.0,0.0,0.0,0.0,0.0,0.0,0.0,0.0,0.0,0.0,0.0,0.0,0.0,0.0,0.0,0.0,0.0,0.0,0.0,0.0,0.0,0.0,0.0,0.0,0.0,0.0,0.0,0.0,0.0,0.0,0.0,0.0,0.0,0.0,0.0,0.0,0.0,0.0,0.0,0.0,0.0,0.0,0.0,0.0,0.0,0.0,0.0,0.0,0.0,0.0,0.0,0.0,0.0,0.0,0.0,0.0,0.0,0.0,0.0,0.0,0.0,0.0,0.0,0.0,0.0,0.0,0.0,0.0,0.0,0.0,0.0,0.0,0.0,0.0,0.0,0.0,0.0,0.0,0.0,0.0,0.0,0.0,0.0,0.0,0.0,0.0,0.0,0.0,0.0,0.0,0.0,0.0,0.0,0.0,0.0,0.0,0.0,0.0,0.0,0.0,0.0,0.0,0.0,0.0,0.0,0.0,0.0,0.0,0.0,0.0,0.0,0.0,0.0,0.0,0.0,0.0,0.0,0.0,0.0,0.0,0.0,0.0,0.0,0.0,0.0,0.0,0.0,0.0,0.0,0.0,0.0,0.0,0.0,0.0,0.0,0.0,0.0,0.0,0.0,0.0,0.0,0.0,0.0,0.0,0.0,0.0,0.0,0.0,0.0,0.0,0.0,0.0,0.0,0.0,0.0,0.0,0.0,0.0,0.0,0.0,0.0,0.0,0.0,0.0,0.0,0.0,0.0,0.0,0.0,0.0,0.0,0.0,0.0,0.0,0.0,0.0,0.0,0.0,0.0,0.0,0.0,0.0,0.0,0.0,0.0,0.0,0.0,0.0,0.0,0.0,0.0,0.0,0.0,0.0,0.0,0.0,0.0,0.0,0.0,0.0,0.0,0.0,0.0,0.0,0.0,0.0,0.0,0.0,0.0,0.0,0.0,0.0,0.0,0.0,0.0,0.0,0.0,0.0,0.0,0.0,0.0,0.0,0.0,0.0,0.0,0.0,0.0,0.0,0.0,0.0,0.0,0.0,0.0,0.0,0.0,0.0,0.0,0.0,0.0,0.0,0.0,0.0,0.0,0.0,0.0,0.0,0.0,0.0,0.0,0.0,0.0,0.0,0.0,0.0,0.0,0.0,0.0,0.0,0.0,0.0,0.0,0.0,0.0,0.0,0.0,0.0,0.0,0.0,0.0,0.0,0.0,0.0,0.0,0.0,0.0,0.0,0.0,0.0,0.0,0.0,0.0,0.0,0.0,0.0,0.0,0.0,0.0,0.0,0.0,0.0,0.0,0.0,0.0,0.0,0.0,0.0,0.0,0.0,0.0,0.0,0.0,0.0,0.0,0.0,0.0,0.0,0.0,0.0,0.0,0.0,0.0,0.0,0.0,0.0,0.0,0.0,0.0,0.0,0.0,0.0,0.0,0.0,0.0,0.0,0.0,0.0,0.0,0.0,0.0,0.0,0.0,0.0,0.0,0.0,0.0,0.0,0.0,0.0,0.0,0.0,0.0,0.0,0.0,0.0,0.0,0.0,0.0,0.0,0.0,0.0,0.0,0.0,0.0,0.0,0.0,0.0,0.0,0.0,0.0,0.0,0.0,0.0,0.0,0.0,0.0,0.0,0.0,0.0,0.0,0.0,0.0,0.0,0.0,0.0,0.0,0.0,0.0,0.0,0.0,0.0,0.0,0.0,0.0,0.0,0.0,0.0,0.0,0.0,0.0,0.0,0.0,0.0,0.0,0.0,0.0,0.0,0.0,0.0,0.0,0.0,0.0,0.0,0.0,0.0,0.0,0.0,0.0,0.0,0.0,0.0,0.0,0.0,0.0,0.0,0.0,0.0,0.0,0.0,0.0,0.0,0.0,0.0,0.0,0.0,0.0,0.0,0.0,0.0,0.0,0.0,0.0,0.0,0.0,0.0,0.0,0.0,0.0,0.0,0.0,0.0,0.0,0.0,0.0,0.0,0.0,0.0,0.0,0.0,0.0,0.0,0.0,0.0,0.0,0.0,0.0,0.0,0.0,0.0,0.0,0.0,0.0,0.0,0.0,0.0,0.0,0.0,0.0,0.0,0.0,0.0,0.0,0.0,0.0,0.0,0.0,0.0,0.0,0.0,0.0,0.0,0.0,0.0,0.0,0.0,0.0,0.0,0.0,0.0,0.0,0.0,0.0,0.0,0.0,0.0,0.0,0.0,0.0,0.0,0.0,0.0,0.0,0.0,0.0,0.0,0.0,0.0,0.0,0.0,0.0,0.0,0.0,0.0,0.0,0.0,0.0,0.0,0.0,0.0,0.0,0.0,0.0,0.0,0.0,0.0,0.0,0.0,0.0,0.0,0.0,0.0,0.0,0.0,0.0,0.0,0.0,0.0,0.0,0.0,0.0,0.0,0.0,0.0,0.0,0.0,0.0,0.0,0.0,0.0,0.0,0.0,0.0,0.0,0.0,0.0,0.0,0.0,0.0,0.0,0.0,0.0,0.0,0.0,0.0,0.0,0.0,0.0,0.0,0.0,0.0,0.0,0.0,0.0,0.0,0.0,0.0,0.0,0.0,0.0,0.0,0.0,0.0,0.0,0.0,0.0,0.0,0.0,0.0,0.0,0.0,0.0,0.0,0.0,0.0,0.0,0.0,0.0,0.0,0.0,0.0,0.0,0.0,0.0,0.0,0.0,0.0,0.0,0.0,0.0,0.0,0.0,0.0,0.0,0.0,0.0,0.0,0.0,0.0,0.0,0.0,0.0,0.0,0.0,0.0,0.0,0.0,0.0,0.0,0.0,0.0,0.0,0.0,0.0,0.0,0.0,0.0,0.0,0.0,0.0,0.0,0.0,0.0,0.0,0.0,0.0,0.0,0.0,0.0,0.0,0.0,0.0,0.0,0.0,0.0,0.0,0.0,0.0,0.0,0.0,0.0,0.0,0.0,0.0,0.0,0.0,0.0,0.0,0.0,0.0,0.0,0.0,0.0,0.0,0.0,0.0,0.0,0.0,0.0,0.0,0.0,0.0,0.0,0.0,0.0,0.0,0.0,0.0,0.0,0.0,0.0,0.0,0.0,0.0,0.0,0.0,0.0,0.0,0.0,0.0,0.0,0.0,0.0,0.0,0.0,0.0,0.0,0.0,0.0,0.0,0.0,0.0,0.0,0.0,0.0,0.0,0.0,0.0,0.0,0.0,0.0,0.0,-3.3582,-3.3698,0.0,0.0,0.0,0.0,0.0,0.0,0.0,0.0,0.0,0.0,0.0,0.0,0.0,0.0,0.0,0.0,0.0,0.0,0.0,0.0,0.0,0.0,0.0,-1.8212,-1.9914,-2.0253,-2.0402,-2.0263,-1.9734,0.0,0.0,0.0,0.0,0.0,-1.7754,-1.7382,-1.7503,-1.8163,-1.8362,-1.9209,-2.0637,-2.045,-2.0304,-2.0188,0.0,0.0,0.0,0.0,0.0,0.0,0.0,0.0,0.0,0.0,0.0,0.0,0.0,0.0,0.0,0.0,0.0,0.0,0.0,0.0,0.0,0.0,0.0,0.0,0.0,0.0,0.0,0.0,0.0,0.0,0.0,0.0,0.0,0.0,0.0,0.0,0.0,0.0,0.0,0.0,0.0,0.0,0.0,0.0,0.0,0.0,0.0,0.0,0.0,0.0,0.0,0.0,0.0,0.0,0.0,0.0,0.0,0.0,0.0,0.0,0.0,0.0,0.0,0.0,0.0,0.0,0.0,0.0,0.0,0.0,-3.3646,-3.3743,0.0,0.0,0.0,0.0,0.0,0.0,0.0,0.0,0.0,0.0,0.0,0.0,0.0,0.0,0.0,0.0,0.0,0.0,0.0,0.0,0.0,-1.52,-1.581,-1.858,-2.0591,-2.102,-2.162,-2.1797,-2.1342,-2.1352,0.0,0.0,0.0,-2.0067,-1.9096,-1.9096,-1.9567,-2.0573,-2.0459,-2.1206,-2.275,-2.279,-2.2492,-2.1925,-2.11,0.0,0.0,0.0,0.0,0.0,0.0,0.0,0.0,0.0,0.0,0.0,0.0,0.0,0.0,0.0,0.0,0.0,0.0,0.0,0.0,0.0,0.0,0.0,0.0,0.0,0.0,0.0,0.0,0.0,0.0,0.0,0.0,0.0,0.0,0.0,0.0,0.0,0.0,0.0,0.0,0.0,0.0,0.0,0.0,0.0,0.0,0.0,0.0,0.0,0.0,0.0,0.0,0.0,0.0,0.0,0.0,0.0,0.0,0.0,0.0,0.0,0.0,0.0,-3.5271,-3.5153,-3.4247,-3.4766,-3.4564,-3.3778,-3.3575,-3.3504,-3.3481,-3.2673,0.0,0.0,0.0,0.0,0.0,0.0,0.0,0.0,0.0,0.0,0.0,0.0,0.0,0.0,0.0,0.0,0.0,0.0,0.0,-1.4817,-1.6787,-1.9087,-2.0923,-2.2014,-2.2198,-2.2125,-2.1827,-2.1707,0.0,0.0,-2.042,-2.0296,-1.9862,-1.9849,-2.0185,-2.0856,-2.2177,-2.34,-2.4465,-2.3907,-2.3683,-2.3722,-2.2858,-2.2443,-2.2398,0.0,0.0,0.0,0.0,0.0,0.0,0.0,0.0,0.0,0.0,0.0,0.0,0.0,0.0,0.0,0.0,0.0,0.0,0.0,0.0,0.0,0.0,0.0,0.0,0.0,0.0,0.0,0.0,0.0,0.0,0.0,0.0,0.0,0.0,0.0,0.0,0.0,0.0,0.0,0.0,0.0,-2.8264,-2.9516,0.0,0.0,0.0,0.0,0.0,0.0,0.0,0.0,0.0,0.0,0.0,0.0,0.0,-3.4137,-3.4839,-3.5629,-3.636,-3.7015,-3.6452,-3.6121,-3.5954,-3.5298,-3.4564,-3.3802,-3.3753,0.0,-3.4023,-3.3235,0.0,0.0,0.0,0.0,0.0,0.0,0.0,0.0,0.0,0.0,0.0,0.0,0.0,0.0,0.0,0.0,0.0,0.0,0.0,0.0,0.0,-1.8975,-2.1191,-2.2204,-2.264,-2.2978,-2.3241,-2.2845,-2.2164,-2.1155,-2.1703,-2.1595,-2.0699,-2.067,-2.0978,-2.1571,-2.2996,-2.4025,-2.4636,-2.4459,-2.4449,-2.4595,-2.4208,-2.3615,-2.2895,-2.2901,0.0,0.0,0.0,0.0,0.0,0.0,0.0,0.0,0.0,0.0,0.0,0.0,0.0,0.0,0.0,0.0,0.0,0.0,0.0,0.0,0.0,0.0,0.0,0.0,0.0,0.0,0.0,0.0,0.0,0.0,0.0,0.0,0.0,0.0,0.0,0.0,0.0,0.0,0.0,-2.7908,-2.965,-2.9539,-3.0533,-3.067,0.0,0.0,0.0,0.0,0.0,0.0,0.0,0.0,0.0,-3.4651,-3.5018,-3.5367,-3.5734,-3.6101,-3.6229,-3.6101,-3.6229,-3.5807,-3.4908,-3.4968,-3.4564,-3.3807,-3.3807,-3.3881,-3.39,-3.3112,-3.2978,-3.3195,0.0,0.0,0.0,0.0,-3.0206,-3.0187,0.0,0.0,0.0,0.0,0.0,0.0,0.0,0.0,0.0,0.0,0.0,0.0,-1.6332,-1.9198,-2.1507,-2.2641,-2.3315,-2.3769,-2.3932,-2.354,-2.2752,-2.149,-2.2282,-2.2302,-2.1325,-2.1484,-2.1853,-2.2373,-2.3458,-2.4173,-2.4495,-2.4709,-2.4847,-2.4954,-2.4943,-2.442,-2.3543,-2.3512,-2.3032,0.0,0.0,0.0,0.0,0.0,0.0,0.0,0.0,0.0,0.0,0.0,0.0,0.0,0.0,0.0,0.0,0.0,0.0,0.0,0.0,0.0,0.0,0.0,0.0,0.0,0.0,0.0,0.0,0.0,0.0,0.0,0.0,0.0,0.0,0.0,0.0,0.0,0.0,-2.9317,-3.0697,-2.9824,-3.1342,-3.1786,0.0,0.0,0.0,0.0,0.0,0.0,-3.4357,-3.4431,-3.5018,-3.6266,-3.6486,-3.6611,-3.6611,-3.6798,-3.6486,-3.5646,-3.6083,-3.5532,-3.4119,-3.4509,-3.4362,-3.3807,-3.3807,-3.3807,-3.3752,-3.3146,-3.3252,-3.366,-3.246,-3.1994,-3.1894,-3.1112,-3.0802,-3.0787,0.0,0.0,0.0,0.0,0.0,0.0,0.0,0.0,0.0,0.0,0.0,-1.5943,-1.8454,-2.0203,-2.1935,-2.3759,-2.4417,-2.4234,0.0,-2.3174,-2.2629,-2.11,-2.1392,-2.1573,-2.1577,-2.2272,-2.2795,-2.3147,-2.3723,-2.4164,-2.4493,-2.47,-2.4797,-2.4811,-2.4811,-2.4977,-2.5275,-2.521,-2.475,-2.4043,0.0,0.0,0.0,0.0,0.0,0.0,0.0,0.0,0.0,0.0,0.0,0.0,0.0,0.0,0.0,0.0,0.0,0.0,0.0,0.0,0.0,0.0,0.0,0.0,0.0,0.0,0.0,0.0,0.0,0.0,0.0,0.0,0.0,0.0,0.0,0.0,0.0,0.0,0.0,-3.1667,-3.2109,0.0,0.0,0.0,0.0,-3.2487,-3.3953,-3.5225,-3.6134,-3.6156,-3.6211,-3.6303,-3.7052,-3.7437,-3.7437,-3.8193,-3.8175,-3.7364,-3.6633,-3.5826,-3.4931,-3.4192,-3.3844,-3.3807,-3.3807,-3.3807,-3.3807,-3.3752,-3.3311,-3.2664,-3.259,-3.2101,-3.1428,-3.1385,-3.1366,-3.1354,0.0,0.0,0.0,0.0,0.0,-0.6214,-0.7104,-0.8232,-0.9487,-1.0863,-1.2918,-1.4767,-1.6237,-1.8382,-2.0097,-2.1074,-2.1416,-2.1479,-2.1235,-2.1308,-2.1056,-2.0389,-2.109,-2.1409,-2.1213,-2.1729,-2.2155,-2.2487,-2.2459,-2.2632,-2.2952,-2.2545,-2.2685,-2.3235,-2.2987,-2.3281,-2.4028,-2.4697,-2.4505,-2.3709,-2.3412,-2.2941,0.0,0.0,0.0,0.0,0.0,0.0,0.0,0.0,0.0,0.0,0.0,0.0,0.0,0.0,0.0,0.0,0.0,0.0,0.0,0.0,0.0,0.0,0.0,0.0,0.0,0.0,0.0,0.0,0.0,0.0,0.0,0.0,0.0,0.0,0.0,0.0,0.0,-3.211,-3.3351,0.0,-3.2966,-3.3731,-3.4306,-3.4473,-3.5334,-3.6197,-3.7019,-3.707,-3.7312,-3.7826,-3.812,-3.8267,-3.8267,-3.856,-3.8046,-3.6721,-3.6431,-3.5569,-3.4229,-3.3935,-3.3807,-3.3807,-3.3807,-3.3807,-3.3807,-3.3807,-3.3623,-3.3366,-3.3366,-3.2559,-3.147,-3.1971,-3.1843,-3.1397,0.0,0.0,0.0,0.0,-0.5206,-0.5849,-0.6333,-0.7662,-0.9058,-1.0234,-1.2111,-1.3785,-1.4995,-1.6913,-1.8434,-1.9285,-1.9667,-1.9745,-1.9451,-1.9682,-1.9557,-1.8952,-2.0003,-2.049,-2.0252,-2.0653,-2.1,-2.1285,-2.108,-2.11,-2.1388,-2.0883,-2.0907,-2.1348,-2.1084,-2.133,-2.2002,-2.29,-2.3326,-2.3392,-2.3232,-2.2916,-2.2471,0.0,0.0,0.0,0.0,0.0,0.0,0.0,0.0,0.0,0.0,0.0,0.0,0.0,0.0,0.0,0.0,0.0,0.0,0.0,0.0,0.0,0.0,0.0,0.0,0.0,0.0,0.0,0.0,0.0,0.0,0.0,0.0,0.0,0.0,-3.1058,-3.2209,-3.1955,-3.3519,-3.4298,-3.3561,-3.4668,-3.5496,-3.5651,-3.6395,-3.7162,-3.7863,-3.7915,-3.8138,-3.8689,-3.8707,-3.8707,-3.8707,-3.8707,-3.79,-3.6303,-3.6303,-3.5422,-3.3807,-3.3807,-3.3807,-3.3807,-3.3807,-3.3807,-3.3807,-3.3807,-3.3807,-3.3807,-3.3807,-3.3146,-3.2228,-3.2491,-3.2265,-3.1702,0.0,0.0,0.0,-0.4666,-0.4953,-0.5252,-0.5221,-0.7039,-0.876,-0.9645,-1.1262,-1.3064,-1.504,-1.5902,-1.6974,-1.8563,-1.9369,-1.9164,-1.7678,-1.8336,-1.8189,-1.6852,-1.8028,-1.8692,-1.8692,-1.9085,-1.938,-1.9582,-1.955,-1.9656,-1.9853,-1.9836,-1.9587,-1.9177,-1.9164,-1.9249,-1.9397,-1.9944,-2.1254,-2.2998,-2.3322,-2.3325,-2.3181,0.0,0.0,0.0,0.0,0.0,0.0,0.0,0.0,0.0,0.0,0.0,0.0,0.0,0.0,0.0,0.0,0.0,0.0,0.0,0.0,0.0,0.0,0.0,0.0,0.0,0.0,0.0,0.0,0.0,0.0,0.0,0.0,0.0,-3.0108,-3.136,-3.2039,-3.1362,-3.2544,-3.3152,-3.2466,-3.4185,-3.552,-3.598,-3.7174,-3.8117,-3.8637,-3.8689,-3.8707,-3.8707,-3.8707,-3.8707,-3.8707,-3.8707,-3.79,-3.6303,-3.6303,-3.5422,-3.3807,-3.3807,-3.3807,-3.3807,-3.3807,-3.3807,-3.3807,-3.3807,-3.3807,-3.3807,-3.3807,-3.377,-3.3678,-3.2894,-3.2564,-3.2237,0.0,0.0,-0.4322,-0.4194,-0.4264,-0.4631,-0.5439,-0.6275,-0.7378,-0.8875,-0.9957,-1.0948,-1.1965,-1.273,-1.334,-1.3776,-1.4604,-1.4949,-1.4662,-1.5684,-1.6367,-1.6493,-1.6484,-1.6494,-1.6494,-1.6592,-1.6666,-1.673,-1.6522,-1.6469,-1.6518,-1.5979,-1.5935,-1.6308,-1.5968,-1.6139,-1.6704,-1.7196,-1.7709,-1.8421,-2.1015,-2.2125,-2.2237,0.0,0.0,0.0,0.0,0.0,0.0,0.0,0.0,0.0,0.0,0.0,0.0,0.0,0.0,0.0,0.0,0.0,0.0,0.0,0.0,0.0,0.0,0.0,0.0,0.0,0.0,0.0,0.0,0.0,0.0,0.0,-3.0277,-3.0717,-3.0192,-3.136,-3.2415,-3.2768,-3.3628,-3.4325,-3.4655,-3.553,-3.6152,-3.6277,-3.7288,-3.7955,-3.8099,-3.8493,-3.8707,-3.8707,-3.8707,-3.8707,-3.8707,-3.8707,-3.79,-3.6303,-3.6303,-3.5422,-3.3807,-3.3807,-3.3807,-3.3807,-3.3807,-3.3807,-3.3807,-3.3807,-3.3807,-3.3807,-3.3807,-3.344,-3.2894,-3.2674,-3.167,-3.0336,0.0,-0.3207,-0.3358,-0.3188,-0.3511,-0.3954,-0.4452,-0.5352,-0.6352,-0.738,-0.7951,-0.8483,-0.9059,-0.9601,-1.0019,-1.0211,-1.1073,-1.1698,-1.1889,-1.292,-1.3828,-1.4522,-1.4207,-1.3877,-1.3636,-1.363,-1.3483,-1.3216,-1.3059,-1.3062,-1.3221,-1.2556,-1.2526,-1.2958,-1.2431,-1.26,-1.3329,-1.3833,-1.4543,-1.552,-1.7781,-1.9287,-2.0208,-2.0511,-2.0607,-2.0639,-2.0911,-2.1342,-2.182,-2.2078,0.0,0.0,0.0,0.0,0.0,0.0,0.0,0.0,0.0,0.0,0.0,0.0,0.0,0.0,0.0,0.0,0.0,0.0,0.0,0.0,0.0,0.0,0.0,0.0,-3.1444,-3.1972,-3.1537,-3.1935,-3.2462,-3.288,-3.3315,-3.3854,-3.4606,-3.524,-3.5836,-3.6356,-3.6941,-3.7453,-3.7876,-3.8196,-3.8471,-3.8692,-3.8707,-3.8707,-3.8707,-3.8707,-3.79,-3.6303,-3.6303,-3.5333,-3.355,-3.355,-3.3433,-3.327,-3.3462,-3.355,-3.3564,-3.3734,-3.3707,0.0,0.0,0.0,0.0,0.0,-3.0604,-2.8859,0.0,-0.2129,-0.217,-0.1792,-0.252,-0.306,-0.2784,-0.4218,-0.5329,-0.5356,0.0,-0.5806,-0.6213,-0.6475,-0.6833,-0.7282,-0.8268,-0.9042,0.0,0.0,-1.0979,-1.1588,-1.1364,-1.0982,-1.044,-1.0321,-0.9953,-0.9368,-0.9368,-0.9546,-0.9875,-0.9412,-0.9245,-0.9337,-0.8873,-0.9022,-0.9685,-1.0347,-1.1706,-1.3496,-1.4227,-1.5777,-1.7724,-1.8693,-1.8821,-1.856,-1.8917,-1.9438,-1.9974,-2.0268,0.0,0.0,0.0,0.0,0.0,0.0,0.0,0.0,0.0,0.0,0.0,0.0,0.0,0.0,0.0,0.0,0.0,0.0,0.0,0.0,0.0,0.0,0.0,0.0,-3.2611,-3.3512,-3.3528,-3.2891,-3.2452,-3.2539,-3.2474,-3.2747,-3.3573,-3.4231,-3.5077,-3.6214,-3.6378,-3.6792,-3.7683,0.0,0.0,0.0,0.0,-3.8556,-3.8618,-3.8624,-3.7821,-3.6227,-3.6227,-3.514,-3.3105,-3.3105,-3.2887,-3.2517,-3.2937,-3.3105,-3.3136,-3.3508,-3.3433,-3.3151,-3.3427,-3.3479,-3.3163,-3.1351,-2.9476,-2.7783,0.0,-0.0299,-0.0286,-0.0093,-0.059,-0.1175,-0.1689,-0.25,-0.308,-0.319,-0.3319,-0.33,-0.2959,-0.3068,-0.3343,-0.3755,-0.4859,-0.6298,0.0,0.0,-0.9037,-0.9174,-0.8224,-0.7634,-0.7524,-0.667,-0.6157,-0.6029,-0.6029,-0.6076,-0.6139,-0.6031,-0.6002,-0.604,-0.642,-0.6662,-0.6892,-0.8284,-0.9284,-1.0052,-1.1994,-1.4311,-1.6614,-1.6809,-1.6842,-1.6785,-1.6863,-1.749,-1.8276,-1.8342,-1.9904,-2.1824,-2.1721,0.0,0.0,0.0,0.0,0.0,0.0,0.0,0.0,0.0,0.0,0.0,0.0,0.0,0.0,0.0,0.0,0.0,0.0,0.0,0.0,-3.2761,-3.3711,-3.4293,-3.4275,-3.3645,-3.34,-3.4002,-3.3552,-3.3704,-3.5043,-3.5313,-3.5493,-3.5746,-3.6158,-3.6495,-3.6694,-3.7112,-3.7395,-3.7487,-3.7487,-3.7668,-3.8047,-3.8051,-3.7285,-3.5724,0.0,0.0,-3.2632,-3.2632,-3.2583,-3.2501,-3.2599,-3.2632,-3.2632,-3.2729,-3.2713,-3.2577,-3.2081,-3.1469,-3.0779,-2.9807,-2.8588,-2.7394,0.2803,0.1999,0.1476,0.1529,0.0823,0.0119,-0.0247,-0.0817,-0.1124,-0.0872,-0.0798,-0.0611,-0.0282,-0.0307,-0.0625,-0.1339,-0.2691,0.0,0.0,-0.5823,-0.6066,-0.6242,-0.5218,-0.4521,-0.4258,-0.3422,-0.285,-0.2557,-0.2557,-0.2703,-0.2994,-0.2681,-0.2703,-0.3016,-0.3313,-0.3622,-0.3987,-0.5477,-0.6851,-0.8191,-0.9692,-1.1809,-1.4155,-1.5137,-1.5702,-1.592,-1.5614,-1.5997,-1.6705,-1.7012,-1.8545,-2.0484,-2.1209,-2.2381,-2.3531,0.0,0.0,0.0,0.0,0.0,0.0,0.0,0.0,0.0,0.0,0.0,0.0,0.0,0.0,-2.8155,-2.9169,0.0,-3.2275,-3.3301,-3.4039,-3.4501,-3.4503,-3.3559,-3.2997,-3.3348,-3.2757,-3.2873,-3.4348,-3.4505,-3.4807,-3.5526,-3.5853,-3.6124,-3.6395,-3.6659,-3.6913,-3.719,-3.7185,-3.7323,-3.7542,-3.7148,-3.6344,-3.5198,-3.4839,-3.3768,-3.2144,-3.2144,-3.2039,-3.186,-3.2057,-3.2144,-3.2144,-3.2144,-3.1934,-3.1513,-3.0576,-3.007,-2.9812,-2.9072,-2.8039,-2.6987,0.531,0.421,0.3215,0.3215,0.2306,0.158,0.1575,0.106,0.0903,0.1508,0.1754,0.1907,0.2018,0.1997,0.1541,0.0,0.0,0.0,0.0,-0.2656,-0.292,-0.3219,-0.2257,-0.152,-0.112,-0.0415,0.0132,0.0531,0.0619,0.0374,-0.0197,0.0397,0.0464,0.0044,-0.0224,-0.0663,-0.1289,-0.2748,-0.4614,-0.6712,-0.7685,-0.9398,-1.1571,-1.3433,-1.4538,-1.5005,-1.4514,-1.4778,-1.5406,-1.5782,-1.7226,-1.9109,-2.045,-2.1848,-2.3189,-2.4258,-2.412,0.0,0.0,0.0,0.0,0.0,0.0,0.0,0.0,0.0,-2.598,-2.7345,-2.7819,-2.8374,-2.9687,-3.1382,-3.285,-3.3578,-3.4168,-3.4514,-3.4503,-3.325,-3.229,-3.2138,-3.1686,-3.1979,-3.3478,-3.3617,-3.418,-3.5493,-3.56,-3.578,-3.6214,-3.6231,-3.644,-3.6882,-3.6883,-3.6942,-3.7053,-3.6252,-3.547,-3.4676,-3.3952,-3.2914,-3.1678,-3.1678,-3.1507,-3.121,-3.1528,-3.1678,-3.1678,-3.1678,-3.1248,-3.0472,-2.9411,-2.9108,-2.9161,-2.8417,-2.7534,-2.6691,0.0,0.5661,0.5007,0.5007,0.4461,0.4001,0.4009,0.3495,0.3324,0.3941,0.3923,0.3882,0.3898,0.3793,0.3142,0.1714,0.0,0.0,-0.013,-0.0208,-0.0282,-0.0448,0.0784,0.1461,0.1407,0.2459,0.28,0.2392,0.2868,0.2822,0.2299,0.2863,0.3229,0.3412,0.2203,0.1406,0.0829,-0.0998,-0.2841,-0.4697,-0.6561,-0.8327,-1.0019,-1.1529,-1.257,-1.32,-1.3138,-1.3836,-1.471,-1.4249,-1.5999,-1.8336,-1.7978,-1.9396,-2.1344,-2.2062,0.0,-2.2227,-2.3448,-2.3325,-2.2994,-2.3551,-2.3364,-2.3466,0.0,0.0,-2.6083,-2.8072,-2.8944,-2.9776,-3.1118,-3.2047,-3.3009,-3.4267,-3.4532,-3.4559,-3.451,-3.3322,-3.2221,-3.1588,-3.1897,-3.2771,-3.4236,-3.4374,-3.4718,-3.5526,-3.56,-3.5616,-3.569,-3.569,-3.5723,-3.5783,-3.5796,-3.6005,-3.6473,-3.5759,-3.4992,-3.4245,-3.3517,-3.2493,-3.1271,-3.1271,-3.1232,-3.121,-3.1249,-3.1271,-3.1271,-3.1271,-3.0828,-3.0099,-2.9316,-2.8588,-2.7911,-2.7165,-2.6809,-2.6691,0.0,0.5561,0.5303,0.5303,0.4543,0.4041,0.4361,0.4178,0.4374,0.5314,0.4955,0.4677,0.4833,0.395,0.3144,0.26,0.2009,0.1751,0.1997,0.1997,0.2337,0.3112,0.3782,0.4311,0.4635,0.5203,0.5306,0.4981,0.5597,0.5699,0.5336,0.594,0.6099,0.5815,0.4905,0.3931,0.2876,0.1322,-0.052,-0.2494,-0.3791,-0.5698,-0.791,-0.8947,-1.0319,-1.1821,-1.3006,-1.3766,0.0,0.0,-1.5886,-1.7285,-1.7773,-1.88,-2.0125,-2.1491,-2.1585,0.0,-2.2264,-2.2862,-2.3171,-2.3021,-2.3617,-2.4332,-2.4761,-2.5163,-2.5912,-2.7598,-2.8462,-2.93,-3.0703,-3.1866,-3.2788,-3.3339,-3.3721,-3.3813,-3.3334,-3.247,-3.1578,-3.0844,-3.1366,-3.2202,-3.3225,-3.3645,-3.433,-3.5515,-3.56,-3.56,-3.56,-3.56,-3.56,-3.56,-3.56,-3.5492,-3.5297,-3.4567,-3.383,-3.3097,-3.2344,-3.1732,-3.119,-3.119,-3.097,-3.0581,-3.1004,-3.0954,-3.0565,-3.0565,-3.0125,-2.9381,-2.8602,-2.7841,-2.7131,-2.681,-2.6691,-2.6691,0.0,0.5129,0.5043,0.5043,0.425,0.384,0.4543,0.4648,0.4975,0.5881,0.5455,0.5183,0.5466,0.4484,0.3861,0.4,0.3599,0.3614,0.4168,0.4391,0.4922,0.591,0.6599,0.7147,0.7601,0.7867,0.7844,0.753,0.8005,0.8069,0.7731,0.8364,0.8459,0.8061,0.7413,0.6482,0.5332,0.3958,0.2237,0.0298,-0.085,-0.2898,-0.5428,-0.6554,-0.8462,-1.0739,-1.2594,-1.3592,0.0,0.0,-1.5702,-1.6569,-1.7313,-1.8043,-1.8967,-2.0634,-2.112,-2.1172,-2.1387,-2.2117,-2.2744,-2.2408,-2.3215,-2.4082,-2.3919,-2.4395,-2.526,-2.6647,-2.7607,-2.8521,-2.9684,-3.1082,-3.209,-3.228,-3.2851,-3.3137,-3.2776,-3.1988,-3.1291,-3.0974,-3.1215,-3.1775,-3.271,-3.3172,-3.4009,-3.5498,-3.5211,-3.5081,-3.5299,-3.529,-3.52,-3.4991,-3.5182,-3.4939,-3.419,-3.3465,-3.2831,-3.2293,-3.1565,-3.119,-3.119,-3.119,-3.0903,-3.0429,-3.0751,-3.0598,-3.0108,-3.0108,-2.9533,-2.8619,-2.8281,-2.7537,-2.6691,-2.6691,-2.6691,-2.6691,0.0,0.0,0.443,0.443,0.3965,0.3972,0.5091,0.5265,0.534,0.5487,0.5502,0.5613,0.5952,0.6045,0.6155,0.6278,0.6278,0.6348,0.6482,0.7106,0.7425,0.7346,0.9091,1.0008,0.9896,1.048,1.0503,0.991,0.9853,0.9562,0.9054,0.9602,0.9996,1.0278,0.9543,0.892,0.8371,0.6976,0.5505,0.3941,0.1841,-0.0331,-0.2547,-0.4664,-0.7242,-0.9911,-1.134,0.0,0.0,-1.405,-1.5039,-1.6405,-1.5854,-1.65,0.0,-1.8828,-2.0369,-2.154,-2.0979,-2.0847,-2.1005,-2.1509,-2.1223,-2.115,-2.2378,-2.3068,-2.3873,-2.5287,-2.6619,-2.7717,-2.8352,-2.9599,-3.08,-3.1531,-3.2191,-3.2864,-3.3483,-3.2367,-3.1767,-3.244,-3.187,-3.1973,0.0,-3.3477,-3.4011,-3.5481,-3.4264,-3.3774,-3.4508,-3.4536,-3.4207,-3.3487,-3.4164,-3.4173,-3.3437,-3.269,-3.2327,-3.2293,-3.1565,-3.119,-3.119,-3.119,-3.119,-3.1123,-3.0429,-3.0125,-3.0108,-3.0108,-2.921,-2.7908,-2.8671,-2.8045,-2.6691,-2.6691,-2.6691,-2.6691,0.0,0.0,0.0,0.4622,0.4575,0.4617,0.5091,0.5006,0.5042,0.5456,0.5771,0.0,0.0,0.0,0.0,0.0,0.6526,0.6951,0.7915,0.8201,0.8941,1.0259,1.1037,1.1645,1.2042,1.2391,1.2382,1.1997,1.2469,1.2496,1.2166,1.2785,1.2904,1.2572,1.2334,1.1403,0.9959,0.9475,0.8144,0.6231,0.4756,0.235,-0.0631,-0.3164,-0.623,-0.9373,0.0,0.0,0.0,-1.4937,-1.5666,-1.6466,-1.6259,0.0,-1.7619,-1.8718,-1.9677,-2.023,-1.9581,-1.934,-1.9328,-1.9495,-1.966,-1.9996,-2.0932,-2.1559,-2.2342,-2.3815,-2.4829,-2.591,-2.7508,-2.859,-2.9596,-3.0694,-3.1854,-3.2497,-3.217,-3.181,-3.1475,-3.123,-3.1789,0.0,0.0,0.0,0.0,-3.5481,-3.4692,-3.424,-3.449,-3.4501,-3.417,-3.3402,-3.3647,-3.3414,-3.2673,-3.2415,-3.2056,-3.1582,-3.1309,-3.119,-3.119,-3.119,-3.0685,-2.9754,-3.0006,-2.9514,-2.8568,-2.8568,-2.8066,-2.7308,-2.7093,-2.6462,-2.5709,-2.5709,-2.5709,-2.5801,0.0,0.0,0.0,0.0,0.0,0.0,0.0,0.0,0.0,0.0,0.0,0.0,0.0,0.0,0.0,0.0,0.0,0.8495,0.9382,0.9684,1.0512,1.2101,1.272,1.3338,1.3983,1.4118,1.4093,1.3938,1.4386,1.4503,1.4361,1.4994,1.5028,1.4631,1.4643,1.392,1.2691,1.216,1.079,0.8799,0.7314,0.4332,0.0535,-0.1833,-0.5201,0.0,0.0,0.0,-1.448,-1.5074,-1.5681,-1.6259,-1.6701,-1.7182,-1.7711,-1.8388,-1.8775,-1.8852,-1.8436,-1.8228,-1.8182,-1.8182,-1.8447,-1.8827,-1.9285,-2.0038,-2.0899,-2.184,-2.3102,-2.4439,-2.5786,-2.724,-2.8548,-2.9569,-3.0923,-3.1744,-3.1476,-3.149,-3.146,-3.1274,-3.2045,-3.2679,0.0,0.0,0.0,-3.5476,-3.4675,-3.4117,-3.4117,-3.4117,-3.3643,-3.2645,-3.2865,-3.2546,-3.1586,-3.1586,-3.1249,-3.0576,-3.0576,-3.0427,-3.0214,-3.0443,-2.9782,-2.8439,-2.8901,-2.84,-2.7253,-2.7253,-2.692,-2.6393,-2.618,-2.5748,-2.5202,-2.5202,-2.5202,-2.5281,0.0,0.0,0.0,0.0,0.0,0.0,0.0,0.0,0.0,0.0,0.0,0.0,0.0,0.0,0.0,0.0,0.0,0.0,1.0838,1.1477,0.0,1.2807,1.4065,1.5017,1.5599,1.5632,1.5654,1.5654,1.5608,1.5596,1.5588,1.6132,1.6391,1.6357,1.6389,1.6387,1.6242,1.4829,1.3247,1.1491,0.93,0.5514,0.0938,-0.0724,0.0,0.0,0.0,0.0,-1.3848,-1.4505,-1.5153,-1.5874,-1.7059,-1.7642,-1.7928,-1.7938,-1.7756,-1.755,-1.755,-1.7523,-1.7495,-1.7495,-1.7495,-1.7495,-1.755,-1.8555,-1.9495,-1.9579,-2.1526,-2.3286,0.0,0.0,-2.7606,-2.8295,-2.9585,-3.072,-3.1406,-3.1457,-3.1678,0.0,0.0,0.0,0.0,0.0,0.0,-3.5351,0.0,-3.3355,-3.3364,-3.3305,-3.263,-3.1145,-3.179,-3.1545,-3.0267,-3.0251,-2.9973,-2.9406,-2.9374,-2.9028,-2.8426,-2.9006,-2.857,-2.7338,-2.7272,-2.6867,-2.625,-2.625,-2.581,-2.5227,-2.5934,-2.5755,-2.5125,-2.5125,-2.5125,-2.5125,0.0,0.0,0.0,0.0,0.0,0.0,0.0,0.0,0.0,0.0,0.0,0.0,0.0,0.0,0.0,0.0,0.0,0.0,1.1516,0.0,0.0,0.0,1.4721,1.5438,1.5605,1.6044,1.6259,1.6259,1.6649,1.6837,1.685,1.739,1.7424,1.7068,1.7498,1.6907,1.5551,1.4975,1.3479,1.1336,0.0,0.513,0.1263,0.0,0.0,0.0,0.0,0.0,-1.3327,-1.4573,-1.5769,-1.6836,-1.7542,-1.7827,-1.797,-1.8383,-1.7684,-1.6793,-1.6793,-1.6397,-1.5968,-1.5968,-1.5968,-1.6112,-1.6652,-1.7402,-1.8286,-1.9384,-2.0431,-2.1603,-2.3122,-2.4721,-2.6374,-2.8125,-2.9494,0.0,-3.1379,-3.1489,0.0,-3.1752,0.0,-3.2654,-3.2826,-3.3129,0.0,0.0,-3.3251,-3.2733,-3.2724,-3.2253,-3.1333,-2.9897,-3.0049,-2.9983,-2.9629,-2.9629,-2.9563,-2.939,-2.889,-2.8575,-2.8394,-2.8068,-2.741,-2.6591,-2.6551,-2.615,-2.5474,-2.5474,-2.5128,-2.4628,-2.48,-2.4524,-2.4012,-2.4012,-2.4012,-2.4012,0.0,0.0,0.0,0.0,0.0,0.0,0.0,0.0,0.0,0.0,0.0,0.0,0.0,0.0,0.0,0.0,0.0,0.0,0.0,0.0,0.0,1.4904,1.5589,1.6191,1.6694,1.7053,1.7119,1.6854,0.0,0.0,1.73,1.7854,1.7958,1.7704,1.7739,1.7074,1.5832,1.4706,0.0,0.0,0.0,0.0,0.0,0.0,0.0,0.0,0.0,0.0,-1.3081,-1.3914,-1.5429,-1.7021,-1.7319,-1.7372,-1.7344,-1.7645,-1.6924,-1.6007,-1.6007,-1.5729,-1.541,-1.541,-1.541,-1.5497,-1.5921,-1.6693,-1.7544,-1.8384,-1.9686,-2.1017,-2.2142,-2.3881,-2.5773,-2.761,0.0,0.0,-3.1335,-3.1511,-3.1511,0.0,-3.1881,0.0,-3.212,-3.2461,-3.2701,0.0,-3.2892,-3.2707,-3.2078,-3.1709,-3.0854,-2.9454,-2.9406,-2.9271,-2.9012,-2.874,-2.8614,-2.8599,-2.7922,-2.7462,-2.7165,-2.6782,-2.6065,-2.5124,0.0,-2.515,-2.4491,-2.4491,-2.4307,-2.4053,-2.4053,-2.3858,-2.3595,-2.3595,-2.3595,-2.3595,0.0,0.0,0.0,0.0,0.0,0.0,0.0,0.0,0.0,0.0,0.0,0.0,0.0,0.0,0.0,0.0,0.0,0.0,0.0,0.0,0.0,1.634,1.6485,1.6976,1.7969,1.8054,1.7802,1.72,0.0,0.0,0.0,0.0,0.0,0.0,0.0,0.0,0.0,0.0,0.0,0.0,0.0,0.0,0.0,0.0,0.0,0.0,0.0,0.0,-1.2527,-1.275,-1.4503,-1.6599,-1.661,-1.655,-1.6511,-1.6503,-1.597,-1.541,-1.541,-1.541,-1.541,-1.541,-1.541,-1.541,-1.541,-1.6195,-1.6992,-1.7172,-1.9022,-2.0674,-2.0955,-2.306,-2.5321,-2.6877,0.0,-2.9681,-3.113,-3.1438,-3.1511,-3.1511,-3.1511,-3.1511,-3.1511,-3.1511,-3.1496,-3.1466,-3.2526,-3.2628,-3.131,-3.1174,-3.0513,-2.9189,-2.9062,-2.8778,-2.8244,-2.7633,-2.733,-2.733,-2.6632,-2.6033,-2.5457,-2.539,-2.4702,-2.3625,-2.4201,-2.4126,-2.3595,-2.3595,-2.3595,-2.3595,-2.3595,-2.3595,-2.3595,-2.3595,-2.3595,-2.3595,0.0,0.0,0.0,0.0,0.0,0.0,0.0,0.0,0.0,0.0,1.2972,0.0,0.0,0.0,0.0,0.0,0.0,0.0,0.0,0.0,0.0,0.0,1.6883,1.7246,1.7437,1.7458,1.7199,1.6636,1.72,0.0,0.0,0.0,0.0,0.0,0.0,0.0,0.0,0.0,0.0,0.0,0.0,0.0,0.0,0.0,0.0,0.0,0.0,-0.9605,-1.0065,-1.1454,-1.3558,-1.5572,-1.5564,-1.5977,-1.6503,-1.649,-1.5975,-1.541,-1.541,-1.541,-1.541,-1.541,-1.541,-1.541,-1.541,-1.5556,0.0,-1.6981,-1.7903,-1.9036,-2.0674,-2.2154,-2.3828,-2.595,-2.7492,-2.8892,-3.0303,-3.1087,-3.1511,0.0,-3.1511,-3.1511,-3.1511,-3.1511,0.0,0.0,-3.0915,-3.0708,-2.9958,-2.9419,-2.8753,-2.7949,-2.7364,-2.7028,-2.6922,-2.6261,-2.5959,-2.5944,-2.5262,-2.4889,-2.4754,-2.4208,-2.3819,-2.361,-2.3729,0.0,-2.3595,-2.3595,-2.3595,-2.3595,-2.3595,-2.3595,-2.3595,-2.3595,-2.3595,-2.3595,0.0,0.0,0.0,0.0,0.0,0.0,0.0,0.0,0.0,1.2307,1.2865,1.3254,0.0,0.0,0.0,0.0,0.0,0.0,0.0,0.0,0.0,0.0,0.0,1.7444,1.7712,1.7408,1.6816,1.5932,0.0,0.0,0.0,0.0,0.0,0.0,0.0,0.0,0.0,0.0,0.0,0.0,0.0,0.0,0.0,0.0,0.0,0.0,0.0,-0.7828,-0.8792,-0.953,-1.1111,-1.3033,-1.4335,-1.4993,-1.5399,-1.5799,-1.5683,-1.541,-1.541,-1.541,-1.541,-1.541,-1.541,-1.541,-1.541,0.0,0.0,-1.6769,-1.7668,-1.87,-1.9879,-2.1545,-2.3203,-2.4767,-2.6179,-2.7751,-2.9575,-3.0148,-3.0689,-3.1393,-3.1511,-3.1511,-3.1511,-3.1182,-3.0731,-3.0073,-2.9714,-2.938,-2.9093,-2.8439,-2.7779,-2.7106,-2.6776,-2.6422,-2.6078,-2.5764,-2.5615,-2.56,-2.4918,-2.4605,-2.459,-2.3924,-2.3595,-2.3595,-2.3595,-2.3595,-2.3595,-2.3595,-2.3595,-2.3595,-2.3595,-2.3595,-2.3595,-2.3595,-2.3595,-2.3595,0.0,0.0,0.0,0.0,0.0,0.0,0.0,1.152,1.1106,1.1247,1.1776,1.2392,1.3091,1.3375,1.374,0.0,0.0,0.0,0.0,0.0,0.0,0.0,0.0,1.7179,1.7329,0.0,0.0,1.4055,1.3267,0.0,0.0,0.0,0.0,0.0,1.029,0.0,0.0,0.0,0.0,0.0,0.0,0.0,0.0,0.0,0.0,0.0,0.0,0.0,-0.7345,-0.7664,-0.8636,-1.0123,-1.261,-1.3668,-1.4092,-1.4906,-1.5148,-1.5186,-1.5352,-1.541,-1.541,-1.541,-1.5274,-1.5186,-1.5352,-1.5555,0.0,-1.6558,-1.7515,-1.8414,-1.9161,-2.0774,-2.2367,-2.3536,-2.4882,-2.6524,-2.8584,-2.9124,-2.9797,-3.1087,-3.1248,0.0,-3.1273,-3.0821,0.0,-2.943,-2.8757,-2.8382,-2.8382,-2.7899,-2.7285,-2.6617,-2.6452,-2.6001,-2.5203,-2.5171,-2.5111,-2.498,-2.4589,-2.4395,-2.4365,-2.3849,-2.3595,-2.3595,-2.3595,-2.353,-2.3421,-2.3421,-2.3319,-2.3194,-2.3194,-2.3194,-2.3194,-2.3194,-2.3194,-2.3194,0.0,0.0,0.0,0.0,0.0,0.0,0.0,0.942,0.9188,0.9801,0.9929,1.0501,1.19,1.2917,1.374,0.0,0.0,0.0,0.0,0.0,0.0,0.0,0.0,0.0,0.0,0.0,0.0,0.9668,0.8271,0.0,0.0,0.0,0.0,0.0,0.0,0.5517,0.0,0.0,0.0,0.0,0.0,0.0,0.0,0.0,0.0,0.0,0.0,0.0,-0.4657,-0.6402,-0.7034,-0.75,-1.0028,-1.1888,-1.3262,-1.4083,0.0,0.0,-1.5216,-1.541,-1.541,-1.541,-1.4852,-1.4515,-1.5245,0.0,-1.4826,-1.6365,-1.6789,-1.7374,-1.901,-1.9462,-2.0314,-2.2459,-2.3988,-2.5453,-2.6932,-2.8216,-2.9372,-3.0299,0.0,0.0,-3.0572,-3.0537,-2.9998,-2.8786,-2.8079,-2.769,-2.769,-2.763,-2.7285,-2.6617,-2.6019,-2.5103,-2.3887,-2.3807,-2.3511,-2.2973,-2.3452,-2.3684,-2.3684,-2.3625,-2.3595,-2.3595,-2.3595,-2.329,0.0,-2.2785,-2.2415,-2.1862,-2.1862,-2.1862,-2.1862,-2.1862,-2.1862,-2.1862,0.0,0.0,0.0,0.0,0.0,0.0,0.0,0.9188,0.8856,0.9124,0.9507,0.993,1.0349,1.1216,1.2294,0.0,0.0,0.0,0.0,0.0,0.0,0.0,0.0,0.0,0.0,0.0,0.0,0.0,0.2813,0.0,0.0,0.0,0.0,0.0,0.0,0.1718,0.1565,0.0,0.0,0.0,0.0,0.0,0.0,0.0,0.0,0.0,0.0,0.0,-0.5098,-0.5934,-0.6437,-0.6967,-0.8596,-0.9877,-1.1131,0.0,-1.3483,-1.3541,-1.3885,-1.3941,-1.3967,-1.3953,-1.3826,-1.3814,-1.4127,-1.4084,-1.4443,-1.59,-1.6216,-1.6689,-1.8241,-1.8944,-1.978,-2.1204,-2.2349,-2.386,-2.6094,-2.6881,-2.7816,-2.9327,-2.9242,-2.907,0.0,0.0,-2.7639,-2.6753,-2.6412,-2.6124,-2.575,-2.6163,-2.6113,-2.5468,-2.4409,-2.3426,-2.2513,-2.2468,-2.2354,-2.21,-2.234,-2.2455,-2.2455,-2.2455,-2.2455,-2.2455,-2.2455,-2.2552,0.0,-2.2276,-2.217,-2.2276,-2.1852,-2.1697,-2.1697,-2.1697,-2.1697,-2.1697,0.0,0.0,0.0,0.0,0.0,0.0,0.9153,0.8593,0.8235,0.8454,0.8883,0.9136,0.9042,0.9595,1.0415,1.1532,0.0,0.0,0.0,0.0,0.0,0.0,0.0,0.0,0.0,0.0,0.0,0.0,0.0,0.0,0.0,0.0,-0.4025,-0.2954,0.0,0.0,0.0,0.0,0.0,0.0,0.0,0.0,0.0,0.0,0.0,0.0,0.0,0.0,0.0,0.0,0.0,-0.738,-0.833,-0.8947,-0.9743,-1.2001,-1.2657,-1.2699,-1.2926,-1.3005,-1.3009,-1.3096,-1.3293,-1.3538,-1.3892,-1.4192,-1.4751,-1.6066,-1.6348,-1.6687,-1.7794,-1.8496,-1.921,-2.0074,-2.1225,-2.2759,-2.5033,-2.5825,-2.6826,-2.8429,0.0,-2.8013,-2.79,-2.6796,-2.591,-2.5439,-2.5398,-2.5149,-2.454,-2.4635,-2.4538,-2.4112,-2.3192,-2.2297,-2.1438,-2.1615,-2.1615,-2.1424,-2.1602,-2.1697,-2.1697,-2.1697,-2.1697,-2.1697,-2.1697,-2.1866,0.0,-2.1629,-2.1605,-2.1809,-2.1328,-2.1135,-2.1135,-2.1135,-2.1135,-2.1135,0.0,0.0,0.0,0.0,0.0,0.0,0.0,0.7101,0.6885,0.7616,0.7723,0.785,0.8165,0.8328,0.8248,0.7809,0.0,0.0,0.0,0.0,0.0,0.0,0.0,0.0,0.0,0.0,0.0,0.0,0.0,0.0,0.0,0.0,0.0,-0.9013,0.0,0.0,0.0,0.0,0.0,0.0,0.0,0.0,0.0,0.0,0.0,0.0,0.0,0.0,0.0,0.0,0.0,0.0,0.0,-0.9516,-0.9643,-1.1332,-1.1807,-1.1983,-1.2775,-1.3005,-1.3067,-1.3337,-1.3505,-1.3882,-1.503,-1.5386,-1.5836,-1.7112,-1.7383,-1.751,-1.793,-1.8008,-1.8303,-1.9177,-2.0939,-2.2525,-2.3402,-2.5253,-2.6803,0.0,-2.7703,-2.7552,-2.7242,-2.6116,-2.5412,-2.5398,-2.5398,0.0,-2.454,-2.3312,-2.2655,-2.2727,-2.2699,-2.209,-2.0833,-2.14,-2.14,-2.082,-2.14,-2.1697,-2.1697,-2.1697,-2.1697,-2.1697,-2.1697,-2.1366,0.0,-2.0795,-2.0421,-1.9824,-1.9824,-1.9824,-1.9824,-1.9824,-1.9824,-1.9824,0.0,0.0,0.0,0.0,0.0,0.0,0.0,0.8262,0.8182,0.8427,0.8017,0.7601,0.7335,0.6988,0.654,0.5986,0.0,0.0,0.0,0.0,0.0,0.0,0.0,0.0,0.0,0.0,0.0,0.0,0.0,0.0,0.0,0.0,0.0,0.0,-1.0557,0.0,0.0,0.0,0.0,0.0,0.0,0.0,0.0,0.0,0.0,0.0,0.0,0.0,0.0,0.0,0.0,0.0,0.0,0.0,0.0,-1.2274,-1.1848,-1.1038,-1.1279,-1.1771,-1.2282,-1.2646,-1.3348,-1.4106,-1.4731,-1.5112,-1.5584,-1.6642,-1.6841,-1.7101,-1.7842,-1.8008,-1.8368,-1.9515,-2.0241,-2.1414,-2.3671,-2.4542,0.0,-2.6731,-2.6194,-2.5538,0.0,0.0,-2.3842,-2.3842,-2.3479,-2.3041,-2.2485,-2.1711,-2.155,-2.2062,-2.1207,-2.0514,-2.0131,-2.0308,-2.0308,-2.0131,-2.0308,-2.0395,-2.0395,-1.9876,-1.9633,-1.9633,-1.9633,-1.98,-2.0042,-2.0118,-2.0245,-2.0434,-1.9978,-1.9798,-1.9798,-1.9798,-1.9798,-1.9798,0.0,0.0,0.0,0.0,0.0,0.0,0.0,0.8374,0.8374,0.8374,0.8235,0.7782,0.688,0.6852,0.6513,0.553,0.0,0.0,0.0,0.0,0.0,0.0,0.0,0.0,0.0,0.0,0.0,0.0,0.0,0.0,0.0,0.0,0.0,0.0,0.0,0.0,0.0,0.0,0.0,0.0,0.0,0.0,0.0,0.0,0.0,0.0,0.0,0.0,0.0,0.0,0.0,0.0,0.0,0.0,0.0,0.0,-1.2782,-1.1875,-1.1344,-1.1713,-1.2292,-1.2663,-1.3825,-1.494,-1.5317,-1.5835,-1.6402,-1.7001,-1.7139,-1.732,-1.7906,-1.8008,-1.8256,-1.9042,-1.9782,-2.0861,-2.2648,0.0,0.0,-2.6346,-2.5485,0.0,0.0,-2.3313,-2.2763,-2.3078,-2.2303,-2.1729,-2.1518,-2.0993,-2.0672,-2.0642,-2.0091,-1.9798,-1.9798,-1.9798,-1.9669,-1.9385,-1.9385,-1.9228,-1.8953,-1.8501,-1.8274,-1.8274,-1.8274,-1.8531,0.0,-1.8941,-1.9204,-1.9555,-1.9137,-1.8953,-1.8953,-1.8953,-1.8953,-1.8953,0.0,0.0,0.0,0.0,0.0,0.0,0.0,0.0,0.0,0.0,0.8268,0.8189,0.6771,0.7585,0.7626,0.0,0.0,0.0,0.0,0.0,0.0,0.0,0.0,0.0,0.0,0.0,0.0,0.0,-1.6854,-1.764,-1.7583,0.0,0.0,0.0,0.0,0.0,0.0,0.0,0.0,0.0,0.0,0.0,0.0,0.0,0.0,0.0,0.0,0.0,0.0,0.0,0.0,0.0,0.0,0.0,0.0,0.0,0.0,0.0,0.0,-1.2773,-1.3152,-1.342,-1.4857,-1.6273,-1.6615,-1.7354,0.0,-1.8008,-1.8008,-1.8018,-1.8047,-1.8057,-1.8076,-1.8135,-1.96,-2.0782,0.0,-2.3204,0.0,0.0,-2.5274,0.0,-2.4613,-2.2921,-2.2125,-2.2884,-2.1644,-2.0984,-2.1309,-2.0779,-1.9912,-1.8647,-1.9281,-1.9631,-1.9631,-1.9631,-1.9307,-1.8608,-1.8608,-1.8259,-1.7605,-1.755,-1.7523,0.0,-1.7523,-1.7523,0.0,-1.7578,-1.7605,-1.7605,-1.7605,-1.7605,-1.7605,-1.7605,-1.7605,-1.7605,0.0,0.0,0.0,0.0,0.0,0.0,0.0,0.0,0.0,0.0,0.7503,0.7659,0.6926,0.6672,0.6466,0.0,0.0,0.0,0.0,0.0,0.0,0.0,0.0,0.0,0.0,0.0,0.0,-1.436,-1.7114,-1.8148,-1.7583,-1.6983,0.0,0.0,0.0,0.0,0.0,0.0,0.0,0.0,0.0,0.0,0.0,0.0,0.0,0.0,-1.2825,-1.3672,0.0,0.0,0.0,0.0,0.0,0.0,0.0,0.0,-1.5849,-1.5435,-1.5106,0.0,-1.4987,-1.5363,-1.6257,-1.7206,0.0,-1.7828,-1.8008,-1.8008,-1.8008,-1.8105,-1.8393,-1.8451,-1.8666,-1.9365,-1.9814,-2.0488,-2.1559,-2.293,0.0,-2.4181,-2.3283,-2.2661,-2.2661,-2.1588,-2.0974,-2.1164,-2.0171,-1.9593,-1.9655,-1.882,-1.8185,-1.7879,-1.8043,-1.8112,-1.8112,-1.8112,-1.8043,-1.7841,-1.7841,-1.777,-1.7578,-1.7034,-1.6765,-1.6765,-1.6765,-1.6765,-1.6782,-1.7357,-1.7605,-1.7605,-1.7605,-1.7605,-1.7605,-1.7605,-1.7605,-1.7605,0.0,0.0,0.0,0.0,0.0,0.0,0.0,0.0,0.0,0.0,0.0,0.0,0.0,0.0,0.0,0.0,0.0,0.0,0.0,0.0,0.0,0.0,0.0,0.0,0.0,0.0,0.0,0.0,0.0,-1.8158,0.0,0.0,0.0,0.0,0.0,0.0,0.0,0.0,0.0,0.0,0.0,0.0,0.0,0.0,0.0,0.0,-1.2768,-1.3439,0.0,-1.4165,-1.468,-1.5418,0.0,0.0,0.0,0.0,-1.7097,-1.688,-1.688,-1.6582,-1.6328,-1.6537,-1.7273,-1.8018,-1.8242,-1.8144,-1.8008,-1.8008,-1.8008,-1.81,-1.852,-1.8598,-1.8812,-1.9521,-1.9785,0.0,0.0,0.0,-2.2911,-2.3176,-2.2506,-2.1923,0.0,-2.0666,-2.0084,-2.0266,-1.917,-1.8594,-1.8827,-1.8047,-1.744,-1.7118,-1.709,-1.7246,-1.7605,-1.7605,-1.744,-1.709,-1.709,-1.6922,-1.6585,-1.6169,-1.6007,-1.6007,-1.6007,-1.6007,-1.6036,-1.6415,-1.6574,-1.6574,-1.6574,-1.6574,-1.6574,-1.6574,-1.6574,-1.6574,0.0,0.0,0.0,0.0,0.0,0.0,0.0,0.0,0.0,0.0,0.0,0.0,0.0,0.0,0.0,0.0,0.0,0.0,0.0,0.0,0.0,0.0,0.0,0.0,0.0,0.0,0.0,0.0,0.0,0.0,0.0,0.0,0.0,0.0,0.0,0.0,0.0,0.0,0.0,0.0,0.0,0.0,0.0,0.0,0.0,0.0,0.0,0.0,0.0,-1.3795,-1.3868,-1.3996,-1.5761,0.0,0.0,0.0,0.0,0.0,-1.7842,-1.7652,-1.7387,-1.7323,-1.7974,-1.8588,-1.852,-1.8227,-1.8008,-1.8008,-1.8057,-1.8232,-1.8617,-1.8754,-1.8939,-1.9414,-1.9775,0.0,-2.1607,-2.1711,-2.186,-2.2377,-2.1864,0.0,-2.0996,-1.9764,-1.9167,-1.948,-1.8288,-1.7701,-1.8118,-1.7566,-1.6912,-1.6159,-1.614,-1.6433,-1.7058,-1.7208,-1.6884,-1.614,-1.614,-1.5767,-1.5021,-1.5021,-1.5021,-1.5021,0.0,0.0,-1.505,-1.5177,-1.5235,-1.5235,-1.5352,-1.541,-1.541,-1.541,-1.541,-1.541,0.0,0.0,0.0,0.0,0.0,0.0,0.0,0.0,0.0,0.0,0.0,0.0,0.0,0.0,0.0,0.0,0.0,0.0,0.0,0.0,0.0,0.0,0.0,0.0,0.0,0.0,0.0,0.0,0.0,0.0,-1.7784,-1.766,-1.6002,0.0,0.0,0.0,0.0,0.0,0.0,0.0,0.0,0.0,0.0,0.0,0.0,0.0,0.0,0.0,0.0,-1.313,-1.3572,-1.4081,-1.4402,0.0,0.0,0.0,0.0,0.0,-1.7066,-1.7823,-1.8299,-1.7943,-1.823,-1.851,-1.8184,-1.8057,-1.8008,-1.8008,-1.8256,-1.8637,-1.9111,-1.9473,-1.9853,-2.0331,0.0,-2.0566,0.0,0.0,-2.0244,-2.0352,0.0,-1.9114,-1.9044,-1.8224,-1.7704,-1.7788,-1.6893,-1.6396,-1.6447,-1.6017,-1.5362,-1.459,-1.456,-1.4619,-1.4728,-1.541,-1.5332,-1.456,-1.456,-1.4145,-1.3373,-1.3373,-1.3373,-1.3373,0.0,-1.3373,-1.3425,-1.4085,-1.4392,-1.4451,-1.5138,-1.541,-1.541,-1.541,-1.541,-1.541,0.0,0.0,0.0,0.0,0.0,0.0,0.0,0.0,0.0,0.0,0.0,0.0,0.0,0.0,0.0,0.0,0.0,0.0,0.0,0.0,0.0,0.0,0.0,0.0,0.0,0.0,0.0,0.0,0.0,-1.7418,-1.7845,-1.6775,-1.5129,-1.2949,0.0,0.0,0.0,0.0,0.0,0.0,0.0,0.0,0.0,0.0,0.0,0.0,0.0,0.0,0.0,0.0,-1.2296,-1.2425,-1.3696,0.0,0.0,0.0,0.0,0.0,-1.5661,-1.6728,-1.763,-1.7589,-1.8435,-1.9241,-1.9082,-1.8857,-1.8701,-1.8701,-1.8373,-1.8256,-1.8667,-1.8891,-1.9392,-2.0411,0.0,-2.0517,-2.0244,-2.0039,-1.9746,0.0,0.0,-1.851,-1.8286,-1.7744,-1.7285,-1.7051,-1.6467,-1.5806,-1.5106,-1.4859,-1.4392,-1.3575,-1.3545,-1.3545,-1.3545,-1.3906,-1.4145,-1.4213,-1.4213,-1.3786,-1.3009,-1.3009,-1.3009,-1.3009,0.0,-1.3009,-1.3039,-1.3394,-1.3545,-1.3584,-1.3965,-1.4085,-1.4085,-1.4085,-1.4085,-1.4085,0.0,0.0,0.0,0.0,0.0,0.0,0.0,0.0,0.0,0.0,0.0,0.0,0.0,0.0,0.0,0.0,0.0,0.0,0.0,0.0,0.0,0.0,0.0,0.0,0.0,0.0,-1.3709,-1.4147,-1.5674,-1.6813,-1.7545,-1.5958,-1.4478,0.0,0.0,0.0,0.0,0.0,0.0,0.0,0.0,0.0,0.0,0.0,0.0,0.0,0.0,0.0,0.0,0.0,0.0,0.0,0.0,0.0,0.0,-1.3564,-1.384,-1.3811,-1.43,-1.5351,-1.6375,-1.6723,-1.8237,-1.9602,-1.9746,-1.9443,-1.916,-1.9268,-1.8721,-1.8236,-1.8308,-1.8395,-1.8725,-1.9607,-2.013,-2.0216,-1.9611,-1.9587,-1.9265,-1.8392,-1.8184,-1.7884,-1.7294,-1.6854,-1.6439,-1.6024,-1.559,-1.4963,-1.3983,-1.3906,-1.3545,-1.2726,-1.2734,-1.2734,-1.2734,-1.2734,-1.3031,-1.3627,-1.3627,-1.3213,-1.2428,-1.2428,-1.2428,-1.2428,-1.2428,-1.2428,-1.2458,-1.2642,-1.2734,-1.2726,-1.2917,-1.3009,-1.3009,-1.3009,-1.3009,-1.3009,0.0,0.0,0.0,0.0,0.0,0.0,0.0,0.0,0.0,0.0,0.0,0.0,0.0,0.0,0.0,0.0,0.0,0.0,0.0,0.0,0.0,0.0,0.0,0.0,0.0,-1.073,-1.1733,-1.257,-1.4414,-1.5563,-1.6056,-1.5537,-1.4595,-1.3329,0.0,0.0,0.0,0.0,0.0,0.0,0.0,0.0,0.0,0.0,0.0,0.0,0.0,0.0,0.0,0.0,0.0,0.0,0.0,0.0,-1.1181,-1.1533,-1.1793,-1.2207,-1.3305,-1.4196,-1.4983,-1.5563,-1.7229,-1.8802,-1.9238,-1.8994,-1.8763,-1.9209,-1.9525,-1.9449,-1.8477,-1.8668,-1.8558,-1.7375,-1.8735,-1.9601,-1.8563,0.0,-1.8337,-1.7405,-1.6988,-1.6277,-1.507,-1.4572,-1.4203,-1.3857,-1.3465,-1.3186,-1.31,-1.31,-1.2726,-1.1919,-1.1888,-1.1888,-1.1888,-1.1888,-1.1927,-1.1981,-1.1981,-1.1562,-1.0776,-1.0776,-1.0776,-1.0776,-1.0776,-1.0776,-1.0839,-1.1593,-1.1888,-1.195,-1.2696,-1.3009,-1.3009,-1.3009,-1.3009,-1.3009,0.0,0.0,0.0,0.0,0.0,0.0,0.0,0.0,0.0,0.0,0.0,0.0,0.0,0.0,0.0,0.0,0.0,0.0,0.0,0.0,0.0,0.0,0.0,-0.6335,-0.8455,-0.9743,-1.0708,-1.135,-1.3518,-1.5133,-1.62,-1.5591,0.0,0.0,0.0,0.0,0.0,0.0,0.0,0.0,0.0,0.0,0.0,0.0,0.0,0.0,0.0,0.0,0.0,0.0,-1.0667,-1.0787,-1.0935,-1.0901,-1.0814,-1.1069,-1.1089,-1.1164,-1.1776,-1.2877,-1.3956,-1.4435,-1.5652,-1.7053,-1.8285,-1.8025,-1.7859,-1.8896,-1.8136,-1.7125,-1.6554,-1.6588,-1.6674,-1.6608,-1.7237,-1.7499,-1.6851,-1.6795,-1.6633,-1.6048,-1.5643,-1.5249,-1.4763,-1.4156,-1.375,-1.3609,-1.3238,-1.2787,-1.2297,-1.2266,-1.1896,-1.1076,-1.1045,-1.1045,-1.1045,-1.1045,-1.1045,-1.1045,-1.1562,-1.1375,-1.0593,-1.0593,-1.0593,-1.0593,-1.0593,-1.0593,-1.0624,-1.0926,-1.1045,-1.1076,-1.1389,-1.1514,-1.1514,-1.1514,-1.1514,-1.1514,0.0,0.0,0.0,0.0,0.0,0.0,0.0,0.0,0.0,0.0,0.0,0.0,0.0,0.0,0.0,0.0,0.0,0.0,0.0,0.0,0.0,0.0,0.0,-0.5723,-0.7449,-0.8555,-0.9668,-1.084,-1.2957,-1.4663,-1.5888,0.0,0.0,0.0,0.0,0.0,0.0,0.0,0.0,0.0,0.0,0.0,0.0,0.0,0.0,0.0,0.0,0.0,0.0,0.0,-1.0593,-1.0626,-1.0827,-1.0754,-1.0633,-1.0827,-1.0814,-1.0774,-1.0942,-1.1921,-1.2932,-1.3214,-1.4012,-1.5122,-1.6698,-1.6847,-1.7013,-1.8205,-1.692,-1.549,-1.52,0.0,0.0,0.0,-1.5791,-1.5968,-1.5247,-1.5319,-1.5221,-1.456,-1.4267,-1.3964,-1.3583,-1.3086,-1.2726,-1.2656,-1.2406,-1.1996,-1.1437,-1.1406,-1.117,-1.0624,-1.0593,-1.0593,-1.0593,-1.0499,-1.0499,-1.0624,-1.1064,-1.104,-1.0593,-1.0593,-1.0593,-1.0593,-1.0593,-1.0593,-1.0593,-1.0593,-1.0593,-1.0593,-1.0593,-1.0593,-1.0593,-1.0593,-1.0593,-1.0593,0.0,0.0,0.0,0.0,0.0,0.0,0.0,0.0,0.0,0.0,0.0,0.0,0.0,0.0,0.0,0.0,0.0,0.0,0.0,0.0,0.0,0.0,0.0,-0.4631,-0.6357,-0.6864,-0.8428,-1.1119,-1.2759,-1.4012,-1.4819,-1.522,0.0,0.0,0.0,0.0,0.0,0.0,0.0,0.0,0.0,0.0,0.0,0.0,0.0,0.0,0.0,0.0,0.0,0.0,-1.0593,-1.0593,-1.0593,-1.0593,-1.0593,-1.0593,-1.0762,-1.0995,-1.0989,-1.1457,-1.1906,-1.1906,-1.2355,-1.3164,-1.4495,-1.5519,-1.6365,-1.7097,-1.6203,-1.5193,-1.4854,-1.4794,0.0,-1.3015,-1.447,-1.5267,-1.3891,-1.4248,-1.4215,-1.3021,-1.2874,-1.238,-1.1121,-1.0989,-1.0901,-1.0613,-1.0593,-1.0593,-1.0593,-1.0593,-1.0593,-1.0593,-1.0593,-1.0593,-1.0586,-1.0267,-1.0267,-1.0586,-1.0261,-1.0274,-1.0593,-1.0593,-1.0593,-1.0593,-1.0593,-1.0593,-1.0593,-1.0593,-1.0593,-1.0593,-1.0593,-1.0593,-1.0593,-1.0593,-1.0593,-1.0593,0.0,0.0,0.0,0.0,0.0,0.0,0.0,0.0,0.0,0.0,0.0,0.0,0.0,0.0,0.0,0.0,0.0,0.0,0.0,0.0,0.0,0.0,0.0,0.0,0.0,0.0,-0.9685,-1.1789,-1.2295,-1.364,0.0,0.0,0.0,-1.4423,0.0,0.0,0.0,0.0,0.0,0.0,0.0,0.0,0.0,0.0,0.0,0.0,0.0,0.0,0.0,0.0,0.0,0.0,-0.969,-1.0245,-1.0724,-0.9906,-1.0309,-1.0949,-1.0774,-1.1296,-1.1906,-1.1906,-1.2516,-1.3225,-1.3835,-1.4172,-1.4415,-1.4648,-1.4375,-1.3957,-1.3463,-1.3404,0.0,-1.2553,-1.28,-1.2906,-1.2506,-1.2396,-1.2258,-1.1874,-1.1679,-1.1414,-1.1035,-1.0841,-1.0687,-1.06,-1.0593,-1.0593,-1.0593,-1.0593,-1.0593,-1.0593,-1.0593,-1.0492,-1.0247,-1.0367,-1.0074,-0.9352,-1.0081,-1.0506,-1.0593,-1.0593,-1.0593,-1.0593,-1.0593,-1.0593,-1.0593,-1.0593,-1.0593,-1.0593,-1.0593,-1.0593,-1.0593,-1.0593,-1.0593,-1.0593,0.0,0.0,0.0,0.0,0.0,0.0,0.0,0.0,0.0,0.0,0.0,0.0,0.0,0.0,0.0,0.0,0.0,0.0,0.0,0.0,0.0,0.0,0.0,0.0,0.0,-0.8721,-1.0159,0.0,0.0,0.0,0.0,0.0,0.0,-1.4568,0.0,-1.2546,0.0,0.0,0.0,0.0,-0.9514,-0.903,-0.8827,0.0,0.0,0.0,0.0,0.0,0.0,0.0,0.0,0.0,-0.878,-0.927,-0.9682,-0.904,-0.9431,-1.0021,-0.9928,-1.0413,-1.0965,-1.1067,-1.1579,-1.206,-1.2299,-1.3096,-1.3631,-1.2979,-1.3137,-1.332,-1.2878,-1.269,0.0,-1.2331,-1.2058,-1.1866,-1.171,-1.1436,-1.1209,-1.1096,-1.0627,-1.0327,-1.0327,-0.9879,-0.9582,-0.9582,-0.9582,-0.9582,-0.9582,-0.9582,-0.9582,-0.9582,-0.9472,-0.9393,-0.9277,-0.929,-0.9005,-0.8478,-0.9074,-0.9447,-0.9582,-1.0269,-1.0396,-1.0072,-0.9716,-0.9779,-1.0079,-1.0079,-1.0301,-1.0561,-1.0206,-1.0079,-1.0079,-1.0079,-0.9881,-0.9678,0.0,0.0,0.0,0.0,0.0,0.0,0.0,0.0,0.0,0.0,0.0,0.0,0.0,0.0,0.0,0.0,0.0,0.0,0.0,0.0,0.0,0.0,0.0,0.0,0.0,0.0,0.0,0.0,0.0,0.0,0.0,0.0,-1.4935,-1.4163,0.0,-1.2472,0.0,0.0,0.0,0.0,-0.873,-0.8028,-0.777,-0.6137,0.0,0.0,0.0,0.0,0.0,0.0,0.0,0.0,-0.7764,-0.7904,-0.8058,-0.8077,-0.8314,-0.8639,-0.8737,-0.91,-0.9522,-0.9797,-1.0033,-1.0235,-1.0205,-1.2063,-1.3336,-1.1813,-1.2236,-1.2792,-1.2529,-1.2216,-1.2033,-1.2007,-1.1795,-1.1471,-1.1183,-1.0895,-1.0653,-1.0391,-0.9658,-0.9172,-0.9172,-0.8452,-0.7994,-0.7994,-0.7994,-0.7994,-0.7994,-0.7994,-0.7984,-0.7964,-0.7787,-0.7762,-0.7903,-0.7512,-0.7487,-0.7802,-0.761,-0.764,-0.7899,-0.9602,-0.9945,-0.9139,-0.8355,-0.8452,-0.9172,-0.9172,-0.9652,-1.0269,-0.9492,-0.9172,-0.9172,-0.9172,-0.8678,-0.8221,0.0,0.0,0.0,0.0,0.0,0.0,0.0,0.0,0.0,0.0,0.0,0.0,0.0,0.0,0.0,0.0,0.0,0.0,0.0,0.0,0.0,0.0,0.0,0.0,0.0,0.0,0.0,0.0,0.0,0.0,0.0,0.0,0.0,-1.4123,0.0,-1.1863,0.0,0.0,0.0,-0.9827,-0.896,-0.8225,-0.753,-0.6733,-0.6009,0.0,0.0,0.0,0.0,0.0,0.0,0.0,-0.5908,-0.7061,-0.8285,-0.7446,-0.7866,-0.8604,-0.8638,-0.8921,-0.926,-0.9647,-1.0069,-1.0101,-0.9069,-0.9973,-1.0878,-1.0266,-1.0292,-1.0373,-1.0095,-1.0008,-0.9911,-0.9794,-0.9523,-0.9249,-0.9073,-0.8799,-0.863,-0.8549,-0.8382,-0.8291,-0.8291,-0.8124,-0.7994,-0.7994,-0.7994,-0.7994,-0.7994,-0.7994,-0.7945,-0.7756,-0.7737,-0.7568,-0.731,-0.7407,-0.7052,0.0,-0.7202,-0.7336,-0.6795,-0.8009,-0.8447,-0.8258,-0.8091,-0.8091,-0.8291,-0.8291,-0.8382,-0.8544,-0.835,-0.8291,-0.8291,-0.8291,-0.8156,-0.8059,0.0,0.0,0.0,0.0,0.0,0.0,0.0,0.0,0.0,0.0,0.0,0.0,0.0,0.0,0.0,0.0,0.0,0.0,0.0,0.0,-1.3091,0.0,0.0,0.0,0.0,0.0,0.0,0.0,0.0,0.0,0.0,0.0,0.0,-1.4728,0.0,-1.2779,0.0,0.0,-1.0668,-1.012,-0.9535,-0.8575,-0.7435,-0.6905,-0.6174,-0.5326,-0.4855,0.0,0.0,0.0,0.0,0.0,0.0,0.0,-0.5748,-0.5652,-0.608,-0.6742,-0.722,-0.7647,-0.8028,-0.8309,-0.8535,-0.8489,-0.7686,-0.7991,-0.8342,-0.8117,-0.893,-0.9637,-0.9337,-0.9248,-0.9173,-0.9124,-0.875,-0.849,-0.8407,-0.8164,-0.7954,-0.7874,-0.7569,-0.7335,-0.7241,-0.6932,-0.6761,-0.6761,-0.6761,-0.6761,-0.6761,-0.6761,-0.667,-0.6473,-0.6383,-0.625,-0.6061,-0.612,-0.5927,-0.5468,-0.6131,-0.6271,-0.5948,-0.6941,-0.7372,-0.734,-0.6924,-0.6985,-0.7372,-0.7372,-0.7632,-0.7962,-0.7535,-0.7372,-0.7372,-0.7372,-0.7116,-0.6892,0.0,0.0,0.0,0.0,0.0,0.0,0.0,0.0,0.0,0.0,0.0,0.0,0.0,0.0,0.0,0.0,0.0,0.0,0.0,-1.4451,-1.3775,-1.244,0.0,0.0,0.0,0.0,0.0,0.0,0.0,0.0,0.0,0.0,0.0,-1.5167,0.0,0.0,0.0,-1.2545,-1.1703,-1.079,-1.0191,-0.9132,-0.7861,-0.7196,-0.64,-0.5587,-0.5259,-0.4567,-0.3753,-0.3599,0.0,0.0,0.0,0.0,-0.2894,-0.3732,-0.4106,-0.4421,-0.5306,-0.5979,-0.6488,-0.6809,-0.6868,-0.6783,-0.6569,-0.6494,-0.6443,-0.6323,-0.7788,-0.9038,-0.8789,-0.8639,-0.8532,-0.8495,-0.8185,-0.7909,-0.7899,-0.7649,-0.7447,-0.7264,-0.6735,-0.6314,-0.6166,-0.5646,-0.5354,-0.5354,-0.5378,-0.5382,-0.5354,-0.5354,-0.524,-0.5029,-0.4911,-0.4867,-0.484,-0.4714,-0.4772,-0.4985,-0.5036,-0.5189,-0.5428,-0.6106,-0.6433,-0.6429,-0.5719,-0.5815,-0.6461,-0.6461,-0.6887,-0.7474,-0.6752,-0.6461,-0.6461,-0.6461,-0.6009,-0.5591,0.0,0.0,0.0,0.0,0.0,0.0,0.0,0.0,0.0,0.0,0.0,-1.6744,-1.5598,-1.5017,0.0,0.0,0.0,0.0,-1.3956,0.0,0.0,0.0,0.0,0.0,0.0,0.0,0.0,0.0,0.0,-1.2898,-1.3674,-1.4501,-1.4678,-1.4325,0.0,0.0,0.0,-1.1747,-1.1535,-1.1358,-1.0803,-1.0215,-0.9528,-0.8308,-0.7274,-0.6326,-0.4743,-0.3637,-0.2742,-0.1952,-0.1702,0.0,0.0,0.0,-0.2896,-0.3035,-0.3078,-0.3189,-0.3643,-0.4494,-0.5554,-0.6481,-0.663,-0.6562,-0.6521,-0.6416,-0.6323,0.0,-0.6546,-0.67,-0.6498,-0.641,-0.6346,-0.6106,-0.6026,-0.5949,-0.5803,-0.5611,-0.5467,-0.5445,-0.5254,-0.5122,-0.5101,-0.514,-0.513,-0.513,-0.5317,-0.5337,-0.5137,-0.513,-0.5033,-0.4758,-0.4731,-0.4657,-0.4552,-0.4532,-0.4542,-0.4583,-0.4819,-0.5091,-0.5388,-0.5349,-0.5424,-0.5557,-0.5458,-0.5458,-0.5591,-0.5591,-0.5657,-0.5719,-0.5624,-0.5591,-0.5591,-0.5591,-0.5491,-0.5428,0.0,0.0,0.0,0.0,0.0,0.0,0.0,0.0,0.0,0.0,0.0,-1.719,-1.5752,-1.5365,0.0,0.0,0.0,0.0,-1.531,-1.4389,0.0,0.0,0.0,0.0,0.0,0.0,0.0,0.0,-1.1364,-1.2184,-1.3402,-1.3674,-1.3895,-1.4061,-1.4554,-1.4159,0.0,-1.2986,-1.2734,-1.2367,-1.2066,-1.1273,-1.0208,-0.9617,-0.8376,-0.6802,-0.5863,-0.4306,-0.2632,-0.2222,-0.148,-0.0676,-0.0598,0.0,0.0,0.0,-0.2069,-0.2338,-0.3136,-0.3707,-0.4188,-0.4694,-0.4768,-0.4876,-0.5371,-0.5433,-0.5589,-0.618,-0.5825,-0.5508,-0.5945,-0.5922,-0.5833,-0.5623,-0.5552,-0.5474,-0.5402,-0.5337,-0.5226,-0.511,-0.5046,-0.4975,-0.4894,-0.4945,-0.4982,-0.4982,-0.5148,-0.5169,-0.4988,-0.5056,-0.4965,-0.4701,-0.4691,-0.4644,-0.4491,-0.4491,-0.4576,-0.4721,-0.4935,-0.5152,-0.5388,-0.5118,-0.5138,-0.5388,-0.527,-0.5281,-0.5395,-0.5395,-0.5395,-0.5395,-0.5395,-0.5395,-0.5395,-0.5395,-0.5395,-0.5395,0.0,0.0,0.0,0.0,0.0,0.0,0.0,0.0,0.0,0.0,0.0,0.0,-1.5959,0.0,0.0,0.0,0.0,0.0,-1.6238,0.0,0.0,0.0,0.0,0.0,0.0,0.0,0.0,0.0,-1.0256,-1.1249,-1.2532,-1.2865,-1.3179,-1.3562,-1.5169,-1.5203,-1.4079,-1.4326,-1.4142,-1.3673,-1.3357,-1.2576,-1.1549,-1.0994,-0.9724,-0.8132,-0.7156,-0.5216,0.0,0.0,-0.1488,0.0,0.0,0.0,0.0,0.0,0.0,-0.1087,-0.2203,-0.2697,-0.291,-0.3197,-0.3301,-0.3489,-0.4151,-0.4295,-0.453,0.0,-0.4844,-0.4488,-0.5104,-0.5328,-0.5348,-0.5211,-0.5299,-0.5329,-0.509,-0.5025,-0.4863,-0.4469,-0.4396,-0.4338,-0.4217,-0.4272,-0.4302,-0.4302,-0.4419,-0.4417,-0.4288,-0.4372,-0.4315,-0.4059,-0.4254,-0.4308,-0.4266,-0.4502,-0.4711,-0.4941,-0.5049,-0.5213,-0.5385,-0.5091,-0.5114,-0.5385,-0.5199,-0.5216,-0.5395,-0.5395,-0.5395,-0.5395,-0.5395,-0.5395,-0.5395,-0.5395,-0.5395,-0.5395,0.0,0.0,0.0,0.0,0.0,0.0,0.0,0.0,0.0,0.0,0.0,0.0,0.0,0.0,0.0,0.0,0.0,0.0,0.0,0.0,0.0,0.0,0.0,0.0,0.0,0.0,0.0,-0.7647,-0.9011,-0.9801,-1.0131,-1.2071,-1.2787,-1.2481,-1.4455,-1.4894,-1.4234,-1.5002,-1.5313,-1.5197,-1.4446,-1.4333,-1.4426,-1.2336,-1.1485,-1.0984,-0.8108,0.0,0.0,0.0,0.0,0.0,0.0,0.0,0.0169,0.0,0.0,0.0,-0.0069,-0.1017,-0.1921,-0.2881,-0.3106,-0.3123,-0.3186,-0.3202,-0.3202,-0.324,-0.324,-0.3156,-0.3083,-0.3742,-0.4247,-0.4095,-0.4824,-0.509,-0.4184,-0.3953,-0.3565,-0.2731,-0.2476,-0.2339,-0.2334,-0.2519,-0.2611,-0.2611,-0.2739,-0.2766,-0.262,-0.262,-0.2552,-0.2324,-0.3019,-0.346,-0.3653,-0.4458,-0.4938,-0.509,-0.5096,-0.5213,-0.5388,-0.5192,-0.5209,-0.5385,-0.5199,-0.5216,-0.5395,-0.5395,-0.5395,-0.5395,-0.5395,-0.5395,-0.5395,-0.5395,-0.5395,-0.5395,0.0,0.0,0.0,0.0,0.0,0.0,0.0,0.0,0.0,0.0,0.0,0.0,0.0,0.0,0.0,0.0,0.0,0.0,0.0,0.0,0.0,0.0,0.0,0.0,0.0,0.0,0.0,-0.6528,-0.7297,-0.8346,-0.9651,-1.0181,-1.0796,-1.1553,-1.3387,-1.3847,-1.3244,-1.3412,-1.392,-1.4599,-1.4332,-1.457,-1.5092,-1.4358,-1.3532,-1.2508,-1.0644,0.0,0.0,0.0,0.0,0.0,-0.0839,-0.0067,0.1006,0.1942,0.221,0.2122,0.1764,0.1429,0.109,0.0728,0.0186,-0.0453,-0.1103,-0.1701,-0.2308,-0.2968,-0.2586,-0.2119,-0.2084,-0.2795,-0.3317,-0.3175,-0.3447,-0.3547,-0.3211,-0.3119,-0.2967,-0.2671,-0.2479,-0.2403,-0.2403,-0.2332,-0.2305,-0.2305,-0.2473,-0.2497,-0.233,-0.2417,-0.2405,-0.2199,-0.2445,-0.2632,-0.2686,-0.3146,-0.3369,-0.3434,-0.3903,-0.4255,-0.4511,-0.4752,-0.5036,-0.5385,-0.5199,-0.5216,-0.5395,-0.5395,-0.5395,-0.5395,-0.5395,-0.5395,-0.5395,-0.5395,-0.5395,-0.5395,0.0,0.0,0.0,0.0,0.0,0.0,0.0,0.0,0.0,0.0,0.0,0.0,0.0,0.0,0.0,0.0,0.0,0.0,0.0,0.0,0.0,0.0,0.0,0.0,0.0,0.0,0.0,0.0,-0.6155,-0.7163,-0.8467,-0.891,-0.9604,-1.0536,-1.1862,-1.2631,-1.3018,-1.3171,-1.3849,-1.4851,-1.499,-1.534,-1.5785,-1.5847,-1.5272,-1.4244,0.0,0.0,0.0,0.0,0.0,0.0,-0.1612,0.0067,0.1881,0.2509,0.2922,0.3125,0.3148,0.2924,0.2707,0.2771,0.2266,0.1629,0.1023,0.0384,-0.0348,-0.1325,-0.0997,-0.0637,-0.0986,-0.1553,-0.1979,-0.2193,-0.2509,-0.2577,-0.2277,-0.2242,-0.211,-0.1844,-0.1716,-0.1665,-0.1665,-0.1526,-0.1467,-0.1467,-0.1576,0.0,-0.1478,-0.1583,-0.1726,-0.1815,-0.1887,-0.2027,-0.2307,-0.2474,-0.2574,-0.2574,-0.3066,-0.3388,-0.3573,-0.3877,-0.4187,-0.448,-0.436,-0.4703,-0.5395,-0.5395,-0.5395,-0.5395,-0.5395,-0.5395,-0.5395,-0.5395,-0.5395,-0.5395,0.0,0.0,0.0,0.0,0.0,0.0,0.0,0.0,0.0,0.0,0.0,0.0,0.0,0.0,0.0,0.0,0.0,0.0,0.0,0.0,0.0,0.0,0.0,0.0,0.0,0.0,0.0,0.0,0.0,0.0,0.0,0.0,-0.9352,-0.9526,-0.9933,-1.1361,-1.3582,-1.4404,-1.5275,-1.6063,-1.6461,-1.6655,-1.6677,0.0,-1.6549,0.0,-1.3136,-1.1497,0.0,-0.7181,0.0,0.0,0.0,0.0361,0.2631,0.2695,0.3307,0.4015,0.0,0.0,0.0,0.2931,0.2843,0.2811,0.3064,0.3024,0.2657,0.179,0.1572,0.1272,0.0219,0.0,-0.0278,-0.1079,-0.2011,-0.231,-0.1375,-0.1275,-0.0941,-0.0101,0.0,0.0,0.0,0.0,0.0,0.0,0.0,0.0,0.0,0.0,-0.0325,-0.103,-0.1185,-0.1627,-0.2413,-0.2545,-0.2611,-0.2611,-0.2643,-0.2643,-0.2644,-0.2673,-0.2706,-0.2711,-0.2708,-0.3711,-0.5329,-0.5329,-0.5329,-0.5329,-0.5329,-0.5326,-0.5359,-0.5359,-0.5362,-0.5395,0.0,0.0,0.0,0.0,0.0,0.0,-2.0774,-2.0775,0.0,0.0,0.0,0.0,0.0,0.0,0.0,0.0,0.0,0.0,0.0,0.0,0.0,-1.3362,-1.0804,-0.8613,0.0,0.0,0.0,0.0,0.0,0.0,0.0,0.0,-0.8782,-0.9951,-1.0056,-1.0675,-1.1666,-1.1805,-1.2811,-1.4346,-1.4732,-1.5376,0.0,0.0,0.0,0.0,0.0,-1.2543,-1.1391,0.0,-0.7642,-0.4994,0.0,0.0,0.099,0.2314,0.3326,0.4015,0.4015,0.0,0.0,0.0,0.0,0.0,0.0,0.3235,0.2501,0.1557,0.1382,0.1283,0.0991,0.0416,0.0137,0.0517,-0.017,-0.0644,-0.038,-0.0347,-0.0279,-0.0036,0.0,0.0,0.0,0.0,0.0,0.0,0.0,0.0,0.0,0.0,-0.0097,-0.0283,-0.0356,-0.0462,-0.0698,-0.0737,-0.074,-0.074,-0.1283,-0.1578,-0.1706,-0.2279,-0.2609,-0.2708,-0.2685,-0.2989,-0.3447,-0.3447,-0.3447,-0.3447,-0.3447,-0.3849,-0.4384,-0.4384,-0.4821,-0.5395,0.0,0.0,0.0,0.0,0.0,-2.1427,-2.1623,-2.1494,-2.1383,0.0,0.0,0.0,0.0,0.0,0.0,0.0,0.0,0.0,0.0,0.0,-1.6109,-1.3961,-1.1379,-0.9186,-0.7475,0.0,0.0,0.0,0.0,0.0,0.0,0.0,0.0,-0.9336,-0.9761,-1.0022,-1.0199,-1.0276,-1.1438,-1.3253,-1.4139,0.0,0.0,-1.5331,-1.5325,0.0,0.0,0.0,-1.2492,-1.1143,-0.8635,0.0,0.0,-0.1417,0.0133,0.1251,0.2484,0.3447,0.3447,0.3849,0.0,0.0,0.0,0.0,0.462,0.4306,0.3654,0.0,0.2524,0.2372,0.1954,0.147,0.1321,0.1878,0.1553,0.0932,0.0107,0.0,0.0,0.0,0.0,0.0,0.0,0.0,0.0,0.0,0.0,0.0,0.0,0.0,0.0,0.0,0.0,0.0,0.0,0.0,0.0,0.0,-0.043,-0.0695,-0.0772,-0.1233,-0.1497,-0.1575,-0.1582,-0.1585,-0.1576,-0.1576,-0.2011,-0.2711,-0.2711,-0.3011,-0.3447,-0.3447,-0.3816,-0.4284,0.0,0.0,-1.9482,-2.0464,-2.151,-2.2401,-2.2896,-2.2605,-2.2344,0.0,0.0,0.0,0.0,0.0,0.0,0.0,0.0,0.0,0.0,0.0,-1.7042,-1.4615,-1.2051,-0.9911,-0.8265,-0.674,0.0,0.0,0.0,0.0,0.0,0.0,0.0,0.0,-0.9301,-0.9499,-0.9178,-0.9705,-1.0837,-1.2414,-1.396,-1.4383,0.0,0.0,-1.4579,-1.4651,-1.3777,-1.3453,-1.3165,-1.1359,-0.8886,0.0,0.0,-0.3575,-0.0733,-0.0518,0.082,0.0,0.2242,0.2339,0.0,0.3621,0.3883,0.0,0.5335,0.565,0.5454,0.0,0.441,0.4195,0.3293,0.3057,0.3068,0.3259,0.3246,0.2544,0.0619,0.0329,0.0293,0.0184,0.0184,0.0147,0.0,0.0,0.0,0.0,0.0,0.0,0.0,0.0,0.0,0.0,0.0,0.0,0.0,0.0,0.0,0.0,0.0,0.0,0.0,0.0,0.0,0.0,0.0,0.0,0.0,0.0,-0.0941,-0.241,-0.241,-0.2444,-0.2544,-0.2544,-0.2611,-0.2711,0.0,0.0,-2.011,-2.1259,-2.1669,-2.2028,-2.2658,-2.269,-2.2616,-2.2616,0.0,0.0,0.0,0.0,0.0,0.0,0.0,0.0,0.0,0.0,-1.8248,-1.5249,-1.3439,-1.119,-0.8428,-0.7586,-0.6982,0.0,0.0,0.0,0.0,0.0,0.0,0.0,-0.9601,-0.9385,-0.8971,-1.0164,-1.052,-1.0407,-1.1881,-1.3119,-1.3991,-1.3045,-1.2454,-1.2102,-1.1937,-1.1833,-1.1728,-1.0809,-0.9815,-0.8769,0.0,-0.5851,-0.43,-0.3456,-0.2052,-0.072,-0.057,0.0,0.0732,0.1642,0.0,0.0,0.4134,0.547,0.6221,0.0,0.5645,0.6075,0.5873,0.5275,0.5038,0.5766,0.5471,0.4533,0.2759,0.251,0.2191,0.1388,0.1298,0.0948,0.0078,0.0,0.0,0.0,0.0,0.0,0.0,0.0,0.0,0.0,0.0,0.0,0.0,0.0,0.0,0.0,0.0,0.0,0.0,0.0,0.0,0.0,0.0,0.0,0.0,0.0,-0.0202,-0.0538,-0.0538,-0.0941,-0.1574,-0.1574,-0.2043,-0.2711,0.0,-1.922,-1.9786,-2.0691,-2.1591,-2.2316,-2.265,-2.2967,-2.3266,0.0,0.0,0.0,0.0,0.0,0.0,0.0,0.0,0.0,0.0,0.0,-1.9355,-1.6129,-1.4306,-1.2052,-0.9309,-0.8518,-0.7886,0.0,0.0,0.0,0.0,0.0,0.0,-0.99,-0.99,-0.9659,-0.9293,-0.9995,-1.0386,-1.0594,-1.1498,0.0,-1.2464,-1.1844,-1.1523,-1.1389,-1.1389,-1.1389,-1.134,-1.1026,-1.0396,0.0,0.0,-0.7181,-0.5502,0.0,-0.3569,-0.2287,-0.206,-0.1769,-0.131,-0.0268,0.0,0.0,0.0,0.4066,0.5236,0.4737,0.5365,0.615,0.6563,0.6294,0.6313,0.7245,0.7147,0.6674,0.5854,0.4662,0.3513,0.2541,0.2454,0.2027,0.1015,0.0883,0.0629,0.0038,0.0,0.0,0.0,0.0,0.0,0.0,0.0,0.0,0.0,0.0,0.0,0.0,0.0,0.0,0.0,0.0,0.0,0.0,0.0,0.0,0.0,0.0,0.0,0.0,0.0,-0.0269,-0.0638,-0.0638,-0.0941,-0.1343,-1.8855,-1.9073,-1.9308,-2.0025,-2.1465,-2.2557,-2.2673,-2.3214,-2.3849,0.0,0.0,0.0,0.0,0.0,0.0,0.0,0.0,0.0,0.0,0.0,-2.0322,-1.7022,-1.5031,-1.2888,-1.0522,-0.9432,-0.8694,-0.8253,0.0,0.0,0.0,-0.9069,-0.9699,-0.9949,-1.0049,-0.9987,-0.9766,-0.9766,-1.0271,-1.11,0.0,-1.1407,-1.113,-1.0974,-1.1056,-1.1263,-1.1263,-1.1155,-1.1026,-1.1255,-1.0746,-1.0014,-0.9971,-0.826,0.0,0.0,0.0,0.0,0.0,0.0,0.0,0.0,0.0,-0.0377,0.0,0.0,0.0,0.3977,0.4878,0.0,0.0,0.0,0.0,0.0,0.0,0.0,0.0,0.6791,0.0,0.3895,0.3676,0.3195,0.2203,0.2087,0.1672,0.0687,0.0417,0.0297,0.0321,0.0106,0.0,0.0,0.0,0.0,0.0,0.0,0.0,0.0,0.0,0.0,0.0,0.0,0.0,0.0,0.0,0.0,0.0,0.0,0.0,0.0,0.0,0.0,0.0,0.0,0.0,0.0,-1.9467,-1.9341,-1.9365,-2.0524,-2.1323,-2.2011,-2.2615,-2.3209,-2.3849,0.0,0.0,0.0,0.0,0.0,0.0,0.0,0.0,0.0,-2.3775,0.0,-2.1052,-1.7657,-1.5907,-1.3997,-1.1828,-1.0097,-0.9206,-0.9139,0.0,0.0,0.0,-0.9684,-1.0059,-0.9412,-0.9889,-1.007,-1.0037,-1.0037,-1.011,-1.0255,-1.059,-1.1129,0.0,-1.0918,-1.066,-1.0687,-1.0687,-1.0206,-0.9689,0.0,-1.0803,-1.0566,0.0,-0.9488,-0.7909,-0.7733,0.0,0.0,0.0,0.0,0.0,0.0,-0.363,0.0,0.0,0.0,0.2979,0.3822,0.0,0.0,0.0,0.0,0.0,0.0,0.0,0.0,0.9806,0.8924,0.761,0.5738,0.5055,0.4309,0.3216,0.3202,0.3084,0.2767,0.191,0.1432,0.1424,0.0503,0.0,0.0,0.0,0.0,0.0,0.0,0.0,0.0,0.0,0.0,0.0,0.0,0.0,0.0,0.0,0.0,0.0,0.0,0.0,0.0,0.0,0.0,0.0,0.0,0.0,0.0,-1.9625,-1.9116,-1.8894,-2.0016,-2.0734,-2.1404,-2.2011,-2.3624,-2.4866,0.0,0.0,0.0,0.0,0.0,0.0,0.0,0.0,-2.5769,0.0,0.0,0.0,-1.8448,-1.6601,-1.4583,-1.2278,-1.0787,-0.9817,-0.9306,-0.9306,0.0,0.0,0.0,-0.9166,-0.9306,-0.9701,-1.0142,-1.0621,-1.0621,-1.0334,-0.9873,0.0,-0.9735,0.0,-1.0351,-1.0301,-0.9786,-0.9256,-0.8871,-0.8694,0.0,-0.9943,0.0,0.0,0.0,0.0,-0.8027,0.0,0.0,0.0,0.0,0.0,0.0,0.0,0.0,-0.3268,0.0,0.0597,0.0,0.0,0.0,0.0,0.0,0.0,0.0,1.0367,0.0,0.0,0.0,0.8112,0.0,0.0,0.0,0.5205,0.3959,0.3205,0.309,0.217,0.1611,0.1588,0.0593,0.0,0.0,0.0,0.0,0.0,0.0,0.0,0.0,0.0,0.0,0.0,0.0,0.0,0.0,0.0,0.0,0.0,0.0,0.0,0.0,0.0,0.0,0.0,0.0,0.0,0.0,-1.9689,-1.9041,-1.8702,-1.9646,-2.0344,-2.1118,-2.2114,-2.4312,-2.5869,-2.5869,-2.6452,0.0,-2.6881,-2.6437,0.0,0.0,-2.7062,-2.6338,0.0,0.0,-2.2849,-1.9242,-1.7191,-1.5127,-1.2961,-1.1461,-1.0347,-0.9658,-0.9434,-0.8844,0.0,0.0,-0.8257,-0.8728,-0.9402,-1.0092,-1.0742,-1.0702,-1.0317,-0.9671,-0.9182,-0.8609,-0.8124,-0.9422,-0.9358,-0.8549,-0.8124,-0.7832,-0.7827,-0.8914,-0.9306,0.0,-1.0333,0.0,0.0,0.0,0.0,0.0,-0.716,0.0,0.0,0.0,0.0,0.0,0.0,0.0,0.0,0.0,0.0,0.0,0.0,0.0,0.0,0.0,0.0,1.074,0.0,0.9565,0.0,0.0,0.0,0.0,0.0,0.5399,0.433,0.4064,0.3079,0.2393,0.212,0.1072,0.0337,0.0,0.0,0.0,0.0,0.0,0.0,0.0,0.0,0.0,0.0,0.0,0.0,0.0,0.0266,0.037,0.037,0.0639,0.074,0.0706,0.0471,0.0505,0.0672,0.0168,0.0,0.0034,-1.9672,-1.9345,-1.9146,-1.971,-2.0346,-2.1437,-2.3359,-2.5295,-2.6581,-2.6581,0.0,0.0,0.0,0.0,0.0,0.0,0.0,-2.6441,-2.4465,0.0,-2.2964,-1.9902,-1.7668,-1.5772,-1.4262,-1.2094,-1.0842,-1.0561,-0.9722,-0.8844,0.0,0.0,0.0,-0.7244,-0.8941,-0.9858,-1.0124,-0.9973,-0.9833,-0.9616,-0.8627,-0.8126,-0.7994,0.0,-0.7535,-0.6883,-0.7697,0.0,0.0,-0.8716,-0.9306,0.0,0.0,0.0,0.0,0.0,0.0,0.0,0.0,0.0,0.0,-0.7181,0.0,0.0,0.0,0.0,-0.3867,0.0,0.0,0.0,0.0,0.0,0.0,0.0,0.0,0.0,0.0,0.0,0.0,0.0,0.0,0.0,0.0,0.7886,0.745,0.0,0.5416,0.4364,0.3392,0.2336,0.12,0.0038,0.0,0.0,0.0,0.0,0.0,0.0,0.0,0.0,0.0,0.0,0.0,0.0032,0.0895,0.1274,0.134,0.2243,0.2611,0.2511,0.1608,0.1809,0.241,0.0639,0.0,0.0135,-2.0337,-1.9965,-1.9597,-1.9773,-2.0003,-2.0923,-2.3342,-2.4934,-2.6212,0.0,-2.7465,0.0,0.0,-2.6878,-2.6835,0.0,0.0,-2.6249,-2.5535,-2.5071,0.0,-2.1363,-1.8548,-1.6412,-1.5068,-1.2565,-1.0868,-0.9987,-0.9113,-0.8169,-0.7144,0.0,0.0,0.0,-0.763,-0.8764,-1.0066,-0.9324,-0.9157,0.0,0.0,-0.6439,-0.6469,0.0,-0.6948,-0.6654,-0.6367,-0.6079,0.0,-0.7864,-0.8452,-0.8678,-1.0136,-1.0009,-0.9306,-0.9306,-0.8877,0.0,0.0,0.0,-0.8285,-0.7697,0.0,0.0,0.0,0.0,0.0,0.0,0.0,0.0,0.0,0.0,0.0,0.0,0.0,0.0,0.0,0.0,0.0,0.0,0.0,0.0,0.0,0.0,0.0,0.0,0.4771,0.0,0.3359,0.1611,0.0434,0.0,0.0,0.0,0.0,0.0,0.0,0.0,0.0,0.0,0.0,0.0,0.0,0.0031,0.0297,0.0437,0.0504,0.1408,0.1775,0.1809,0.2108,0.241,0.2544,0.1308,0.1241,0.1849,-2.0726,-2.0265,-1.9798,-1.9798,-2.0347,-2.1433,-2.3295,-2.4654,-2.5797,0.0,-2.6811,0.0,-2.6176,0.0,-2.6063,0.0,-2.5875,-2.5684,-2.5353,-2.5143,0.0,-2.1801,-1.9638,-1.7518,-1.5438,-1.3023,-1.1084,-0.9689,-0.8459,-0.7473,-0.6687,0.0,0.0,0.0,-0.689,-0.7903,-0.9055,-0.8545,-0.8387,0.0,0.0,-0.5542,0.0,0.0,-0.6235,-0.617,0.0,-0.5395,-0.5624,-0.7051,-0.773,-0.8253,-0.9684,-0.9882,-0.958,-0.958,-0.8931,-0.8132,-0.785,-0.7787,0.0,-0.7066,-0.6734,0.0,-0.6201,0.0,0.0,0.0,0.0,0.0,0.0,0.0,0.0,0.0,0.0,0.0,0.0,1.2142,0.0,0.0,0.0,0.0,0.0,0.0,0.7461,0.662,0.5197,0.0,0.0,0.2307,0.1091,0.066,0.0225,0.0146,0.0462,0.045,0.0645,0.0974,0.0974,0.0956,0.0955,0.0958,0.0955,0.0987,0.1289,0.1411,0.1477,0.2379,0.2744,0.2778,0.3045,0.338,0.3513,0.2243,0.2392,0.3241,-2.0877,-2.0343,-1.9899,-1.9924,-2.1392,0.0,0.0,0.0,-2.537,0.0,-2.5398,-2.5398,-2.5342,-2.5342,-2.5238,-2.5028,-2.5017,-2.4754,-2.4054,-2.4494,0.0,0.0,-2.0814,-1.8953,-1.548,-1.3447,-1.1517,-0.9657,-0.7807,-0.6819,-0.6638,-0.5785,0.0,0.0,-0.6653,0.0,-0.7304,-0.7601,-0.7513,-0.7124,-0.5894,-0.5405,-0.5405,-0.5399,-0.5395,-0.5395,-0.5395,-0.5395,-0.5524,-0.6449,-0.7298,-0.8151,-0.9041,-0.9668,-1.0083,-1.0033,-0.9321,-0.834,-0.7467,-0.7294,-0.6977,-0.5309,0.0,0.0,0.0,0.0,-0.5572,0.0,0.0,0.0,0.0,0.0,0.0,0.0,0.0,0.0,0.0,0.0,0.0,0.0,0.0,0.0,0.0,0.8389,0.7509,0.6761,0.666,0.6257,0.0,0.4238,0.3068,0.1905,0.0737,0.056,0.1381,0.1381,0.1825,0.2711,0.2711,0.2709,0.2706,0.2709,0.2709,0.2737,0.3578,0.3949,0.4015,0.4954,0.5326,0.5259,0.4384,0.4622,0.5203,0.3482,0.3445,0.4314,-2.1966,-2.155,-2.1179,0.0,-2.2065,-2.2593,0.0,0.0,0.0,0.0,-2.5398,-2.5175,-2.4652,-2.4567,-2.4316,-2.3675,-2.4035,0.0,0.0,0.0,0.0,-2.1879,-2.0651,-1.863,-1.5769,-1.3785,-1.1606,-0.9255,-0.788,-0.6739,-0.5863,0.0,0.0,0.0,0.0,-0.6413,-0.7252,-0.6603,-0.6335,-0.6269,-0.5752,-0.5532,-0.5552,0.0,-0.5395,-0.5395,-0.5395,-0.5395,-0.5606,-0.688,-0.7597,-0.8195,-0.9272,-0.982,-0.9946,-0.9218,-0.8327,-0.7472,-0.6699,-0.6048,-0.5457,-0.5009,-0.5098,-0.5246,0.0,0.0,0.0,0.0,0.0,0.0,0.0,0.0,0.0,0.0,0.0,0.0,0.0,0.0,0.0,1.0158,0.0,0.0,0.0,0.8389,0.7509,0.6761,0.5862,0.0,0.0,0.0,0.3233,0.2916,0.2516,0.2348,0.2506,0.2476,0.2547,0.2711,0.2711,0.2713,0.2693,0.2685,0.2713,0.2725,0.2951,0.3045,0.3111,0.3982,0.435,0.4417,0.4855,0.5259,0.5481,0.4928,0.5002,0.539,-2.2536,-2.2193,-2.1945,-2.2259,0.0,0.0,-2.3219,-2.356,0.0,-2.4323,-2.4381,0.0,-2.3826,-2.3767,-2.3603,-2.3125,-2.3409,0.0,-2.3108,0.0,0.0,-2.1166,-2.0541,-1.9038,-1.6475,-1.4491,0.0,-0.9724,0.0,0.0,-0.5586,0.0,0.0,0.0,0.0,-0.5989,-0.6611,-0.6051,-0.61,-0.6513,-0.5814,-0.5525,0.0,-0.5429,-0.5395,-0.5395,-0.5395,-0.5395,-0.5493,-0.6139,-0.6791,-0.7407,-0.7977,-0.8451,-0.8693,-0.8103,-0.7255,-0.6425,-0.5999,-0.5318,-0.4718,-0.4718,-0.4769,-0.484,-0.4918,-0.4958,-0.5073,0.0,0.0,0.0,0.0,0.0,0.0,0.0,0.0,0.0,0.0,0.0,0.0,0.0,0.8183,0.0,0.0,0.7744,0.7003,0.6719,0.6073,0.0,0.0,0.0,0.4076,0.4106,0.3383,0.3168,0.3451,0.3393,0.3543,0.3882,0.3882,0.3883,0.3891,0.3888,0.3881,0.3891,0.3888,0.3882,0.3915,0.4417,0.4619,0.4658,0.5262,0.5549,0.5586,0.5597,0.5701,0.5911,-2.272,-2.2527,0.0,0.0,0.0,0.0,0.0,-2.3108,0.0,-2.3108,0.0,-2.3108,-2.3108,-2.3108,-2.3078,-2.2944,0.0,-2.2598,-2.1784,-2.2166,-2.1657,-1.9886,-2.0372,-1.955,-1.718,-1.5271,-1.3075,0.0,0.0,0.0,0.0,0.0,0.0,0.0,0.0,0.0,0.0,-0.5772,-0.6264,-0.6972,-0.5839,-0.5395,-0.5395,-0.5395,-0.5395,-0.5392,-0.5371,-0.5365,-0.5324,-0.5102,-0.564,-0.6373,-0.6276,-0.6639,-0.7084,-0.6936,-0.623,-0.5487,-0.5406,-0.4948,-0.4491,-0.4491,-0.459,-0.4667,-0.4684,-0.4796,-0.4928,-0.5164,-0.5384,-0.5332,0.0,0.0,0.0,0.0,0.0,0.0,0.0,0.0,0.0,0.0,0.0,0.0,0.0,0.0,0.0,0.0,0.0,0.0,0.0,0.0,0.5311,0.5311,0.4045,0.3701,0.4393,0.429,0.4626,0.5395,0.5395,0.5395,0.5395,0.5395,0.5395,0.5395,0.5395,0.5395,0.5395,0.5395,0.5395,0.5409,0.5566,0.5599,0.5637,0.5779,0.5928,0.6074,-2.2528,-2.3073,0.0,0.0,0.0,-2.3108,-2.3108,-2.3108,-2.3108,-2.3108,-2.3108,-2.3108,-2.3108,-2.3108,-2.2823,-2.2168,-2.2094,0.0,0.0,0.0,0.0,-1.9447,-1.9821,-1.9008,-1.6745,-1.5142,-1.3107,0.0,0.0,0.0,0.0,0.0,0.0,0.0,0.0,0.0,-0.5627,-0.5627,0.0,-0.5887,-0.5534,-0.5395,-0.5395,-0.5395,-0.5395,-0.5378,-0.5216,-0.514,-0.5209,-0.567,-0.6013,-0.6271,-0.6459,-0.6804,-0.6936,-0.6055,-0.565,-0.5378,-0.4814,-0.4598,-0.4491,-0.4491,-0.4508,-0.4563,-0.4663,-0.4711,-0.4945,-0.5703,-0.6059,-0.6385,-0.6954,0.0,0.0,0.0,0.0,0.0,0.0,0.0,0.0,0.0,0.0,0.5382,0.0,0.0,0.0,0.0,0.0,0.0,0.0,0.0,0.6405,0.0,0.5948,0.0,0.0,0.0,0.5452,0.5395,0.5395,0.5395,0.5395,0.5395,0.5395,0.5395,0.5395,0.5395,0.5395,0.5395,0.5395,0.5409,0.5566,0.5661,0.5783,0.5899,0.6088,0.6245,-2.3777,0.0,0.0,0.0,0.0,0.0,0.0,-2.2763,-2.2628,-2.3047,-2.2732,-2.2476,-2.2476,-2.2063,-2.1647,-2.127,-2.1239,-2.0846,-1.9977,-1.9922,-1.9529,-1.8654,-1.8822,-1.8198,-1.6636,-1.5394,-1.3711,-1.147,0.0,0.0,0.0,0.0,0.0,-0.6375,0.0,-0.6111,0.0,0.0,0.0,-0.6406,-0.5686,-0.5395,-0.5395,-0.5395,-0.5395,-0.5385,-0.5277,-0.5152,-0.5027,-0.5262,-0.5468,-0.5624,-0.5534,-0.5654,-0.5739,-0.5163,-0.4976,-0.4924,-0.4598,-0.4491,-0.4491,-0.4491,-0.4491,-0.4508,-0.4583,-0.46,-0.4841,-0.5726,-0.6007,-0.6272,-0.6808,-0.5683,0.0,0.0,0.0,0.0,0.0,0.0,0.2694,0.0,0.0,0.0,0.0,0.0,0.0,0.0,0.0,0.0,0.0,0.0,0.6783,0.0,0.0,0.0,0.0,0.0,0.0,0.5395,0.5395,0.5395,0.5395,0.5395,0.5395,0.5395,0.5395,0.5395,0.5395,0.5395,0.5443,0.5528,0.5644,0.5789,0.5939,0.6091,0.6235,0.6289,-2.4657,-2.4413,0.0,0.0,-2.3409,-2.3035,-2.2884,-2.2322,-2.2137,-2.2763,-2.2125,-2.1616,-2.1616,-2.1005,-2.0526,-2.0333,-2.0333,-1.9944,-1.9077,-1.9011,-1.8721,-1.8042,-1.7794,-1.7364,-1.6636,-1.5473,-1.3988,0.0,0.0,0.0,0.0,0.0,0.0,0.0,0.0,0.0,0.0,0.0,-0.6229,-0.6899,-0.5812,-0.5416,-0.544,-0.5405,-0.5395,-0.5395,-0.5395,-0.5242,-0.4989,-0.4836,-0.4874,-0.4928,-0.46,-0.4573,-0.4648,-0.4525,-0.4491,-0.4491,-0.4491,-0.4491,-0.4491,-0.4491,-0.4491,-0.4491,-0.4491,-0.4491,-0.4744,-0.5567,-0.6056,-0.6348,-0.6462,-0.5846,0.0,0.0,0.0,0.0,0.0,0.0,0.0,0.0,0.0,0.0,0.6337,0.0,0.0,0.0,0.0,0.0,0.7041,0.6947,0.6858,0.0,0.0,0.6197,0.585,0.0,0.5576,0.5395,0.5395,0.5395,0.5395,0.5395,0.5395,0.5395,0.5395,0.5395,0.5395,0.5429,0.5515,0.5606,0.5783,0.5925,0.6013,0.6242,0.63,0.63,0.0,0.0,0.0,0.0,0.0,-2.2854,-2.2125,-2.1939,-2.1939,-2.2002,-2.127,-2.0719,-2.0719,-2.0655,-2.0268,-1.9497,-1.9431,-1.9044,-1.8178,-1.811,-1.8076,-1.8008,-1.7173,-1.6706,-1.6602,-1.4807,-1.3281,0.0,0.0,-0.9234,0.0,0.0,0.0,0.0,0.0,0.0,0.0,-0.5709,-0.5755,-0.5915,-0.5545,-0.5477,-0.5552,-0.5446,-0.5395,-0.5395,-0.5395,-0.5378,-0.533,-0.5142,-0.484,-0.4545,-0.4505,-0.4501,-0.4508,-0.4494,-0.4491,-0.4491,-0.4491,-0.4491,-0.4491,-0.4491,-0.4491,-0.4491,-0.4491,-0.4491,-0.4684,-0.5375,-0.6824,-0.7857,-0.7455,-0.6666,-0.5342,0.0,0.0,0.0,0.0,0.0,0.1957,0.2968,0.0,0.0,0.0,0.645,0.0,0.0,0.6297,0.0,0.691,0.6893,0.6858,0.6705,0.6539,0.6308,0.5973,0.5857,0.564,0.5395,0.5395,0.5395,0.5395,0.5395,0.5395,0.5395,0.5395,0.5395,0.5405,0.5545,0.5579,0.5616,0.5861,0.5979,0.6013,0.6242,0.63,0.63,0.0,0.0,0.0,0.0,0.0,0.0,0.0,-2.0687,-2.0333,-2.0333,-2.0042,-1.9814,-1.9814,-1.9365,-1.8888,-1.8563,-1.8529,-1.8361,-1.8008,-1.7467,-1.7173,-1.7173,-1.6254,-1.5473,-1.4871,-1.4099,-1.323,0.0,0.0,-0.9584,-1.0077,-0.8449,0.0,0.0,0.0,-0.6115,-0.6105,-0.5918,-0.5888,-0.5911,-0.5616,-0.5535,-0.5572,-0.5453,-0.5395,-0.5395,-0.5395,-0.5334,-0.5213,-0.512,-0.5074,-0.5003,-0.4792,-0.4796,-0.4847,-0.4762,-0.4735,-0.4718,-0.4651,-0.4627,-0.4604,-0.4511,-0.4491,-0.4491,-0.4491,-0.4491,-0.4677,-0.5351,-0.643,-0.7046,-0.6425,-0.5737,-0.4659,0.0,0.0,0.0,0.0,0.0,0.0,0.2148,0.0,0.3928,0.0,0.0,0.0,0.0,0.0,0.0,0.4934,0.5486,0.0,0.5721,0.0,0.6416,0.6169,0.5925,0.5698,0.5532,0.544,0.5395,0.5395,0.5395,0.5395,0.5399,0.5491,0.5532,0.5542,0.5657,0.5772,0.5867,0.5946,0.6088,0.6176,0.6276,0.63,0.63,-2.3778,0.0,-2.3384,0.0,-2.1926,-2.1239,-2.0365,-1.9694,-1.9199,-1.8944,-1.8911,-1.8911,-1.8911,-1.8361,-1.8008,-1.8008,-1.8008,-1.7862,-1.7613,-1.6957,-1.6498,-1.621,-1.5269,0.0,-1.3709,-1.3419,-1.2994,-1.2432,-1.0377,-0.9883,-1.0863,-0.8794,0.0,0.0,-0.6756,-0.63,-0.6289,-0.6095,-0.602,-0.6071,-0.5772,-0.5681,-0.5698,-0.5535,-0.5463,-0.5457,-0.5412,-0.5324,-0.5199,-0.5199,-0.527,-0.5344,-0.5013,-0.4958,-0.5019,-0.4918,-0.4887,-0.4887,-0.4731,-0.4691,-0.4653,-0.4528,-0.4491,-0.4491,-0.4491,-0.4491,-0.4677,-0.5351,-0.5923,-0.6118,-0.5597,-0.5273,-0.4556,-0.2867,0.0,0.0,0.0,0.0485,0.0,0.1131,0.203,0.2833,0.3263,0.4413,0.0,0.0,0.0,0.0,0.0,0.0,0.0,0.0,0.0,0.0,0.6303,0.6,0.5796,0.565,0.5576,0.5525,0.5525,0.5525,0.5525,0.5532,0.5606,0.565,0.5664,0.581,0.5932,0.5996,0.6078,0.6166,0.63,0.63,0.63,0.63,-2.3233,-2.2884,-2.2559,-2.2016,-2.1175,-2.0333,-1.9464,-1.9309,-1.8977,-1.8144,-1.8008,-1.8008,-1.8008,-1.8008,-1.8008,-1.8008,-1.8008,-1.7613,-1.6671,-1.6602,-1.6184,0.0,0.0,-1.3709,-1.3709,-1.2806,-1.2482,-1.2777,0.0,0.0,-1.1144,0.0,-0.7783,-0.7744,-0.6756,-0.63,-0.6289,-0.6095,-0.6118,-0.6269,-0.5922,-0.5888,-0.5956,-0.5698,-0.5586,-0.5566,-0.545,-0.5392,-0.5392,-0.5392,-0.5392,-0.5344,-0.5013,-0.4891,-0.4891,-0.4887,-0.4887,-0.4887,-0.4731,-0.4691,-0.4653,-0.4528,-0.4491,-0.4491,-0.4491,-0.4491,-0.4677,-0.5351,-0.5515,-0.5515,-0.5515,-0.5768,-0.5472,-0.3832,0.0,0.0,0.0,0.0,0.0,0.0,0.0972,0.2078,0.3205,0.4403,0.0,0.0,0.0,0.0,0.0,0.0,0.0,0.6667,0.6552,0.0,0.6303,0.6105,0.5912,0.58,0.5796,0.5796,0.5796,0.5796,0.5796,0.5796,0.5796,0.58,0.581,0.5929,0.599,0.6006,0.6238,0.6296,0.63,0.63,0.63,0.63,-2.142,-2.1322,-2.1028,-2.0258,-1.989,-1.9431,-1.8563,-1.8395,-1.8303,-1.8042,-1.8008,-1.8008,-1.8008,-1.8008,-1.7759,0.0,-1.7035,-1.6645,0.0,-1.5013,-1.4486,-1.4207,-1.3273,-1.2732,-1.2732,-1.2445,-1.2351,-1.2445,0.0,0.0,0.0,-0.7123,-0.6795,-0.6756,-0.6451,-0.63,-0.6296,-0.6245,-0.6255,-0.6282,-0.604,-0.5949,-0.5973,-0.581,-0.5674,-0.5583,-0.5535,-0.5484,-0.5395,-0.5395,-0.5395,-0.5378,-0.5283,-0.5252,-0.5252,-0.5252,-0.5252,-0.5186,-0.5033,-0.4918,-0.4809,-0.4685,-0.4566,-0.4491,-0.4491,-0.4491,-0.457,-0.4787,-0.4814,-0.4847,-0.4933,-0.5133,-0.4928,-0.3893,-0.3734,0.0,-0.1538,0.0,-0.1864,-0.1169,-0.0781,-0.0434,-0.0081,0.2476,0.0,0.0,0.0,0.0,0.0,0.0,0.0,0.0,0.6102,0.0,0.6446,0.6156,0.5969,0.5919,0.585,0.58,0.58,0.58,0.58,0.5806,0.5911,0.5922,0.5969,0.6125,0.6186,0.6231,0.6279,0.63,0.63,0.63,0.63,0.6313,-2.059,-2.0333,-1.9944,-1.9398,-1.9044,-1.863,-1.8076,-1.8008,-1.8008,-1.8008,-1.8008,-1.7872,-1.7501,-1.7467,0.0,-1.6636,-1.628,-1.5685,-1.47,-1.4063,-1.3528,-1.3208,-1.2629,-1.2305,-1.2305,-1.2305,0.0,-1.1897,-0.9877,-0.8035,-0.6378,-0.6323,-0.63,-0.63,-0.63,-0.63,-0.63,-0.63,-0.63,-0.6289,-0.6156,-0.6115,-0.6098,-0.5945,-0.5833,-0.5749,-0.5691,-0.5576,-0.5487,-0.5542,-0.5487,-0.5405,-0.5463,-0.544,-0.5395,-0.5395,-0.5395,-0.5361,-0.514,-0.5032,-0.4918,-0.4741,-0.4648,-0.4559,-0.4501,-0.4491,-0.4491,-0.4491,-0.4535,-0.4604,-0.4674,-0.486,-0.4728,-0.3923,-0.3723,-0.3074,-0.1506,0.0,-0.2884,0.0,0.0,0.0,0.0,0.1193,0.2919,0.0,0.0,0.0,0.0,0.0,0.0,0.5676,0.6098,0.634,0.6429,0.621,0.6115,0.6115,0.602,0.5976,0.5976,0.5976,0.5976,0.5979,0.6074,0.6115,0.6125,0.6259,0.63,0.63,0.63,0.6528,0.6872,0.6872,0.7177,0.7594,-2.043,-1.9759,-1.9199,0.0,-1.8529,0.0,-1.8008,-1.8008,-1.7974,-1.7906,-1.7896,-1.7545,-1.6602,-1.6428,-1.6384,-1.6384,0.0,0.0,0.0,-1.36,-1.32,-1.2335,-1.2305,-1.2274,-1.222,-1.222,-1.1821,-1.0995,-0.9114,-0.7613,-0.6494,-0.6361,-0.63,-0.63,-0.63,-0.63,-0.63,-0.63,-0.63,-0.63,-0.63,-0.63,-0.6282,-0.6101,-0.6,-0.5973,-0.5867,-0.5725,-0.5627,-0.5755,-0.562,-0.545,-0.5559,-0.5542,-0.5423,-0.5399,-0.5395,-0.5361,-0.5186,-0.5106,-0.5032,-0.4789,-0.4707,-0.4679,-0.4525,-0.4498,-0.4505,-0.4505,-0.4627,-0.4711,-0.4718,-0.489,-0.4739,-0.3941,-0.3198,-0.2424,-0.1543,0.0,-0.3202,0.0,0.0,0.0,-0.1619,0.0613,0.2735,0.0,0.0,0.0,0.0,0.0,0.5515,0.6643,0.645,0.63,0.63,0.63,0.63,0.63,0.63,0.63,0.63,0.63,0.63,0.63,0.63,0.6338,0.6412,0.6338,0.6338,0.6416,0.6349,0.6926,0.7842,0.7855,0.8661,0.9729,0.0,0.0,-1.8303,-1.8303,-1.8144,-1.8008,-1.8008,-1.8008,-1.7759,-1.7035,-1.6922,-1.6567,-1.5614,-1.4835,-1.4378,-1.4378,-1.4171,-1.3629,-1.2696,-1.2629,-1.2519,-1.2305,-1.2305,-1.1989,-1.1312,-1.1318,-1.0457,-0.8751,-0.8282,-0.747,-0.6351,-0.6317,-0.63,-0.63,-0.63,-0.63,-0.63,-0.63,-0.63,-0.63,-0.63,-0.63,-0.6296,-0.6259,-0.6132,-0.5986,-0.5952,-0.5878,-0.5755,-0.5789,-0.5755,-0.5701,-0.5739,-0.5725,-0.5654,-0.5463,-0.5395,-0.5385,-0.5351,-0.522,-0.5079,-0.5012,-0.4857,-0.4679,-0.4525,-0.458,-0.4665,-0.4665,-0.4758,-0.4897,-0.4975,-0.4528,-0.4077,-0.3954,-0.3325,-0.2772,-0.2563,-0.3578,-0.4334,0.0,-0.3826,-0.3261,-0.2706,0.0873,0.3353,0.0,0.0,0.0,0.6654,0.6322,0.6239,0.6525,0.6392,0.63,0.63,0.63,0.63,0.63,0.63,0.63,0.63,0.63,0.63,0.63,0.63,0.6718,0.7403,0.6606,0.6756,0.7377,0.6731,0.713,0.8125,0.8222,0.9025,1.0104,-1.8008,-1.8008,-1.8008,-1.8008,-1.7647,-1.7354,-1.7354,-1.701,-1.6541,-1.6044,-1.5965,-1.5579,-1.4629,-1.4027,-1.3528,-1.3098,-1.3062,-1.2842,-1.2342,-1.2305,-1.2305,-1.2305,-1.1933,-1.1499,-1.1022,-1.0622,-0.9637,-0.8005,-0.7616,-0.702,-0.6303,-0.6368,-0.6361,-0.63,-0.63,-0.6334,-0.6399,-0.6399,-0.6436,-0.6501,-0.6501,-0.646,-0.6399,-0.6399,-0.6303,-0.6135,-0.6135,-0.6037,-0.5918,-0.5986,-0.5918,-0.5813,-0.5884,-0.5857,-0.5769,-0.561,-0.5549,-0.5484,-0.5416,-0.533,-0.522,-0.5117,-0.4931,-0.4772,-0.4691,-0.4735,-0.4796,-0.4796,-0.4911,-0.5029,-0.5209,-0.4483,-0.3802,-0.3522,-0.274,-0.2197,-0.2299,-0.2871,0.0,-0.3904,-0.3435,-0.2932,-0.2468,0.0693,0.2864,0.3228,0.5366,0.0,0.6505,0.646,0.6446,0.6511,0.6375,0.63,0.63,0.63,0.63,0.63,0.63,0.63,0.63,0.63,0.63,0.63,0.63,0.6606,0.7099,0.7022,0.7374,0.7991,0.7971,0.8696,0.9792,0.9863,1.0711,1.1776,-1.8008,-1.8008,-1.8008,-1.8008,-1.7207,-1.6602,-1.6602,-1.579,-1.5163,-1.4985,-1.4985,-1.4593,-1.36,-1.3491,-1.3171,-1.2372,-1.2305,-1.2305,-1.2305,-1.2305,-1.2244,-1.2098,-1.1409,-1.0862,-1.0622,-0.9771,-0.8805,-0.7853,-0.7076,-0.6593,-0.6368,-0.6467,-0.646,-0.6364,-0.634,-0.6412,-0.6549,-0.6549,-0.658,-0.6702,-0.6702,-0.6624,-0.6549,-0.6549,-0.6457,-0.633,-0.633,-0.6196,-0.6084,-0.6255,-0.6126,-0.5895,-0.6023,-0.5976,-0.5867,-0.584,-0.5749,-0.5616,-0.5477,-0.5412,-0.5358,-0.5137,-0.5009,-0.4884,-0.4738,-0.4718,-0.4734,-0.4734,-0.486,-0.501,-0.5166,-0.446,-0.3587,-0.2786,-0.179,-0.1231,-0.1571,0.0,-0.1965,-0.2969,-0.2968,-0.2485,-0.1457,0.0595,0.2289,0.3271,0.5204,0.6323,0.6303,0.63,0.6354,0.6477,0.6364,0.63,0.63,0.63,0.63,0.63,0.63,0.63,0.63,0.63,0.63,0.63,0.63,0.6387,0.6638,0.7482,0.8086,0.8533,0.9473,1.0601,1.1767,1.1762,1.2582,1.3666,-1.8008,-1.8008,-1.8008,-1.8008,-1.7207,-1.6602,-1.6602,-1.579,-1.4914,-1.4027,-1.3918,-1.3564,-1.2629,-1.2519,-1.2445,-1.2298,-1.2305,-1.2305,-1.2305,-1.2305,-1.1958,-1.1221,-1.1082,-1.0309,-0.8849,-0.7932,-0.7343,-0.7066,-0.6924,-0.6803,-0.663,-0.6522,-0.6529,-0.6627,-0.6538,-0.6522,-0.6664,-0.6664,-0.6678,-0.6702,-0.6702,-0.6685,-0.6664,-0.6664,-0.6569,-0.6477,-0.6477,-0.6385,-0.6269,-0.6289,-0.6269,-0.6231,-0.6255,-0.6248,-0.6201,-0.603,-0.5942,-0.5901,-0.563,-0.5494,-0.5358,-0.5137,-0.5083,-0.4844,-0.3986,-0.388,-0.398,-0.398,-0.4152,-0.4312,-0.4224,-0.3572,-0.2747,-0.1705,-0.0793,-0.0523,-0.1453,0.0,-0.1963,-0.2974,-0.2347,-0.1422,-0.0363,0.1811,0.3505,0.4369,0.5685,0.6426,0.6306,0.63,0.631,0.633,0.6313,0.63,0.63,0.63,0.63,0.63,0.63,0.63,0.63,0.63,0.63,0.63,0.63,0.683,0.777,0.8011,0.875,0.9666,1.0141,1.1029,1.2052,1.2176,1.2976,1.4015,-1.7354,-1.7647,-1.7691,-1.6655,-1.6402,-1.6044,-1.5155,-1.4227,-1.3484,-1.3025,-1.31,-1.3056,-1.262,-1.2692,-1.2792,-1.2792,-1.2235,-1.1876,-1.1876,-1.1701,-1.1168,-1.0234,-0.9802,-0.9013,-0.7722,-0.7321,-0.7028,-0.6886,-0.696,-0.6883,-0.6702,-0.6712,-0.6712,-0.6698,-0.6627,-0.6678,-0.6824,-0.6824,-0.6868,-0.6896,-0.6896,-0.6892,-0.6824,-0.6824,-0.6729,-0.6597,-0.6597,-0.6542,-0.6416,-0.6416,-0.6416,-0.6402,-0.6323,-0.6354,-0.6385,-0.62,-0.6037,-0.5732,-0.5024,-0.4807,-0.4591,-0.3955,-0.3792,-0.3699,-0.3208,-0.3158,-0.3222,-0.3222,-0.3293,-0.34,-0.3413,-0.2666,-0.1894,-0.1525,-0.0647,0.0,0.0,-0.1088,-0.0925,-0.1368,-0.0508,0.055,0.1584,0.3133,0.4249,0.4686,0.5759,0.6368,0.6303,0.63,0.63,0.63,0.63,0.63,0.63,0.63,0.6337,0.6416,0.6416,0.677,0.7441,0.7441,0.7441,0.7441,0.7441,0.7721,0.8273,0.8876,0.9883,1.1169,1.1864,1.2551,1.3172,1.325,1.3603,1.4088,-1.6463,-1.6901,-1.7009,-1.5537,-1.5541,-1.5347,-1.4116,-1.3096,-1.2512,-1.2512,-1.2712,-1.2891,-1.2891,-1.2824,-1.2797,-1.2797,-1.1736,-1.0997,-1.0756,-1.0516,-1.0044,-0.9293,-0.8497,-0.7797,-0.7136,-0.7095,-0.7045,-0.6933,-0.7045,-0.698,-0.6803,-0.6846,-0.6881,-0.68,-0.677,-0.6837,-0.6933,-0.6933,-0.6863,-0.6694,-0.6694,-0.6455,-0.6146,-0.6146,-0.6023,-0.5907,-0.5907,-0.603,-0.6118,-0.6118,-0.6118,-0.6099,-0.5997,-0.5851,-0.5682,-0.5586,-0.5389,-0.4975,-0.4145,-0.3864,-0.3682,-0.2901,-0.271,-0.2627,-0.2434,-0.2359,-0.236,-0.236,-0.241,-0.247,-0.2519,-0.1888,-0.1335,-0.1224,0.0,0.0,0.0,-0.0321,0.0362,0.0391,0.129,0.2347,0.3357,0.4217,0.4805,0.504,0.5828,0.63,0.63,0.6528,0.6771,0.708,0.6813,0.6775,0.708,0.708,0.7046,0.6962,0.7239,0.7704,0.8401,0.8687,0.881,0.881,0.881,0.8832,0.8955,0.9978,1.1103,1.226,1.3322,1.3888,1.4088,1.4088,1.4088,1.4088,-1.5482,-1.5571,-1.5732,-1.5577,-1.5076,-1.4688,-1.4534,-1.3747,-1.3146,-1.3146,-1.3166,-1.3173,-1.3173,-1.2249,-1.165,-1.165,-1.0514,-0.9421,-0.8492,-0.8522,-0.8569,-0.8484,-0.7642,-0.7173,-0.7095,-0.7095,-0.7092,-0.7082,-0.7092,-0.7085,-0.7061,-0.6943,-0.695,-0.7058,-0.6927,-0.6947,-0.7082,-0.7082,-0.6464,-0.5536,-0.5536,-0.4861,-0.3829,-0.3829,-0.3738,-0.3542,-0.3628,-0.4214,-0.5015,-0.5015,-0.5015,-0.5015,-0.5004,-0.4235,-0.3357,-0.3352,-0.3329,-0.3247,-0.3064,-0.292,-0.2794,-0.2715,-0.2713,-0.2459,-0.159,-0.1411,-0.1413,-0.1413,-0.1554,-0.162,-0.1434,-0.1503,-0.1264,-0.0283,0.0,0.0,-0.0122,0.0812,0.1489,0.1492,0.2384,0.3398,0.4491,0.4647,0.5118,0.6103,0.6261,0.63,0.63,0.7173,0.8245,0.9399,0.8292,0.8249,0.9443,0.9443,0.9032,0.8257,0.9402,0.9406,0.8442,0.9543,1.008,1.008,1.008,1.0147,1.033,1.1468,1.2075,1.2383,1.3613,1.4068,1.4088,1.4088,1.4088,1.4088,-1.4733,-1.4864,-1.4901,-1.4216,-1.3995,-1.3891,-1.3759,-1.3437,-1.3213,-1.3213,-1.3327,-1.3184,-1.2469,-1.2152,-1.1701,-1.0989,-0.9856,-0.9058,-0.8674,-0.797,-0.7574,-0.7574,-0.7285,-0.7095,-0.7095,-0.7095,-0.7095,-0.7095,-0.7095,-0.7095,-0.7095,-0.7041,-0.669,-0.6024,-0.5978,-0.5582,-0.4952,-0.4952,-0.4685,-0.4283,-0.4283,-0.4016,-0.3614,-0.3614,-0.3553,-0.3485,-0.3529,-0.37,-0.3933,-0.3978,-0.3978,-0.3966,-0.3827,-0.3573,-0.3157,-0.2408,-0.2158,-0.1996,-0.1307,-0.1553,-0.1859,-0.1196,-0.1043,-0.0927,-0.0584,-0.0479,-0.0485,-0.0485,-0.057,-0.058,-0.0503,-0.0553,-0.024,0.0836,0.0,0.119,0.1832,0.2288,0.277,0.3448,0.3867,0.453,0.5589,0.5709,0.5867,0.6261,0.6872,0.7211,0.7211,0.8353,0.95,1.0601,1.0349,1.0142,0.9992,0.9992,0.9898,0.9649,1.0109,1.0512,1.081,1.1282,1.1492,1.1492,1.1492,1.1542,1.1626,1.206,1.2681,1.347,1.3913,1.4088,1.4088,1.4088,1.4088,1.4088,-1.4017,-1.4161,-1.418,-1.344,-1.3534,-1.3641,-1.3507,-1.315,-1.2935,-1.2935,-1.2766,-1.2373,-1.1562,-1.1325,-1.0913,-1.0139,-0.9013,-0.8324,-0.8324,-0.7577,-0.7095,-0.7095,-0.7095,-0.7095,-0.7095,-0.7095,-0.7095,-0.7095,-0.7095,-0.6918,-0.6561,-0.6561,-0.5935,-0.4821,-0.4821,-0.4374,-0.3614,-0.3614,-0.3392,-0.3037,-0.3037,-0.2814,-0.2458,-0.2458,-0.2458,-0.2458,-0.2458,-0.2613,-0.2843,-0.2887,-0.2887,-0.288,-0.2751,-0.2539,-0.2158,-0.1352,-0.108,-0.0863,0.0246,0.0041,-0.0437,-0.0077,0.0,0.0,0.0,0.0265,0.0497,0.0497,0.0736,0.0979,0.0979,0.0993,0.1198,0.1962,0.2103,0.2377,0.3054,0.3443,0.3941,0.4671,0.5023,0.5473,0.6219,0.6606,0.6756,0.6756,0.7706,0.8455,0.8861,0.9699,1.0712,1.1909,1.2178,1.203,1.1448,1.1328,1.1161,1.101,1.1394,1.182,1.2328,1.2674,1.2851,1.2851,1.2851,1.2851,1.2851,1.2851,1.3336,1.4088,1.4088,1.4088,1.4095,1.4188,1.4222,1.4235,-1.3404,-1.3407,-1.36,-1.3606,-1.3888,-1.4088,-1.4088,-1.3069,-1.2279,-1.2279,-1.1295,-1.0611,-1.0611,-0.9579,-0.889,-0.889,-0.7797,-0.7095,-0.7095,-0.7095,-0.7095,-0.7095,-0.7095,-0.7095,-0.7095,-0.7095,-0.7095,-0.7095,-0.7095,-0.6517,-0.5403,-0.5403,-0.4732,-0.357,-0.357,-0.357,-0.357,-0.357,-0.286,-0.1791,-0.1791,-0.1076,0.0,0.0,0.0,0.0,0.0,-0.0763,-0.179,-0.179,-0.179,-0.179,-0.179,-0.0972,0.0,0.0,0.0,0.0295,0.1469,0.1802,0.1535,0.0318,0.0039,0.0039,0.0039,0.0863,0.1608,0.1608,0.2426,0.3086,0.3086,0.3085,0.3085,0.3124,0.3228,0.3318,0.3318,0.425,0.4899,0.4899,0.5753,0.6303,0.6303,0.7215,0.7783,0.7783,0.8732,0.9856,1.1144,1.1239,1.1954,1.3546,1.3606,1.3746,1.4082,1.3753,1.3188,1.2328,1.3512,1.347,1.237,1.3555,1.4088,1.4088,1.4088,1.4088,1.4088,1.4088,1.4088,1.4088,1.4088,1.4088,1.4128,1.4416,1.4479,1.4563,-1.3514,-1.3547,-1.3666,-1.3915,-1.3328,-1.2851,-1.2851,-1.1858,-1.1123,-1.1123,-1.0826,-1.0308,-0.9492,-0.9104,-0.854,-0.7709,-0.7316,-0.7095,-0.7095,-0.7095,-0.7095,-0.7095,-0.7095,-0.7095,-0.7095,-0.7095,-0.7095,-0.7095,-0.6293,-0.5714,-0.5403,-0.4552,-0.3482,-0.2325,-0.2325,-0.1879,-0.1077,-0.1092,-0.0869,-0.055,-0.0558,-0.0328,0.0,0.0,0.0,0.0,0.0,-0.0227,-0.0539,-0.0539,-0.0539,-0.0539,-0.0539,-0.0268,0.0178,0.1014,0.1261,0.1546,0.2745,0.3054,0.2965,0.2597,0.2506,0.2506,0.2506,0.2794,0.2999,0.2999,0.3244,0.3447,0.3447,0.332,0.3483,0.4245,0.4393,0.4693,0.5459,0.5909,0.6176,0.6176,0.6337,0.645,0.645,0.7281,0.7783,0.7783,0.9558,1.115,1.2273,1.2666,1.309,1.36,1.3848,1.4001,1.4088,1.4001,1.382,1.3561,1.3913,1.3906,1.3561,1.3955,1.4088,1.4088,1.4088,1.4088,1.4088,1.4088,1.4088,1.4108,1.4309,1.4389,1.4429,1.4723,1.483,1.4888,-1.3788,-1.3814,-1.3701,-1.3438,-1.2766,-1.2151,-1.1681,-1.0654,-0.9923,-0.9923,-0.9531,-0.8965,-0.8277,-0.8193,-0.7885,-0.7183,-0.7095,-0.7122,-0.7227,-0.7231,-0.7258,-0.7274,-0.7277,-0.7295,-0.7234,-0.7292,-0.7044,-0.6491,-0.5807,-0.4965,-0.398,-0.3238,-0.2227,-0.1077,-0.1094,-0.0686,0.0,0.0,0.0,0.0,0.0,0.0,0.0,0.0,0.0,0.0,0.0,0.0,0.0,0.0,0.0364,0.0771,0.072,0.1082,0.1629,0.2331,0.2524,0.2761,0.3989,0.4299,0.4428,0.4853,0.4284,0.3604,0.3604,0.3895,0.4187,0.4187,0.4522,0.4814,0.4814,0.4719,0.4839,0.5496,0.5665,0.5906,0.6569,0.6732,0.679,0.679,0.7058,0.7237,0.7237,0.8532,0.952,0.9909,1.122,1.231,1.3093,1.3407,1.366,1.3773,1.3995,1.4088,1.4088,1.4088,1.4088,1.4088,1.4088,1.4088,1.4088,1.4088,1.4088,1.4088,1.4088,1.4088,1.4095,1.4208,1.4255,1.4289,1.4583,1.4696,1.473,1.5023,1.5182,1.515,-1.4088,-1.3997,-1.3597,-1.2504,-1.2109,-1.1638,-1.0611,-0.9492,-0.8759,-0.8759,-0.7797,-0.7102,-0.7115,-0.7119,-0.7122,-0.7136,-0.7136,-0.7241,-0.7429,-0.7439,-0.7405,-0.7402,-0.7419,-0.7316,-0.7089,-0.73,-0.6785,-0.5402,-0.5308,-0.4088,-0.1806,-0.1698,-0.1075,0.0,0.0,0.0,0.0,0.0,0.0,0.0,0.0,0.0,0.0,0.0,0.0,0.0,0.0143,0.0189,0.0186,0.0325,0.1158,0.2169,0.2036,0.2823,0.3818,0.3791,0.3808,0.403,0.525,0.5607,0.5824,0.6862,0.5537,0.3938,0.3922,0.4629,0.5299,0.5299,0.6062,0.6739,0.6739,0.6729,0.6722,0.6722,0.6837,0.6886,0.6886,0.6896,0.6906,0.6906,0.7803,0.8427,0.8427,1.0409,1.2114,1.3127,1.3233,1.3327,1.3586,1.3626,1.3766,1.4082,1.4088,1.4088,1.4088,1.4088,1.4088,1.4088,1.4088,1.4088,1.4088,1.4088,1.4088,1.4088,1.4115,1.4128,1.4148,1.4442,1.4563,1.4589,1.4928,1.5048,1.5082,1.5331,1.5438,1.5471,-1.4088,-1.3336,-1.2589,-1.237,-1.0821,-0.9536,-0.9323,-0.8277,-0.7489,-0.7489,-0.7272,-0.7142,-0.7309,-0.7322,-0.737,-0.7489,-0.7502,-0.7516,-0.755,-0.755,-0.7088,-0.6067,-0.6112,-0.5668,-0.4584,-0.5531,-0.5358,-0.4033,-0.3087,-0.2325,-0.1797,-0.0856,-0.0237,0.0,0.0,0.0,0.0,0.0,0.0,0.0,0.0,0.0,0.0,0.0,0.0,0.0146,0.1168,0.1586,0.175,0.2785,0.3303,0.3584,0.3521,0.3713,0.4146,0.5062,0.5233,0.5463,0.6768,0.704,0.7028,0.7422,0.7125,0.6651,0.6389,0.6514,0.6645,0.6645,0.6867,0.7001,0.7001,0.691,0.6836,0.6836,0.6866,0.6886,0.6886,0.698,0.7051,0.7051,0.7979,0.8627,0.8627,1.0509,1.2114,1.3127,1.338,1.354,1.36,1.3868,1.4021,1.4082,1.4088,1.4088,1.4088,1.4088,1.4088,1.4088,1.4088,1.4088,1.4088,1.4088,1.4088,1.4102,1.4329,1.4429,1.4449,1.4743,1.4914,1.4941,1.519,1.5304,1.5337,1.5625,1.5684,1.5745,-1.3245,-1.2291,-1.1338,-1.0783,-0.971,-0.8715,-0.8145,-0.7489,-0.7095,-0.7095,-0.7204,-0.7282,-0.7409,-0.7438,-0.7512,-0.7594,-0.76,-0.7628,-0.7695,-0.7073,-0.6472,-0.58,-0.5265,-0.4305,-0.2973,-0.358,-0.3561,-0.2832,-0.2198,-0.1558,-0.0918,-0.0293,0.0,0.0,0.0,0.0,0.0,0.0,0.0,0.0,0.0,0.0404,0.0958,0.0958,0.1352,0.1983,0.2724,0.2937,0.308,0.3764,0.4441,0.4947,0.4901,0.5299,0.5905,0.647,0.6596,0.67,0.7389,0.7543,0.7499,0.758,0.76,0.7539,0.7302,0.7251,0.7227,0.7112,0.7095,0.7095,0.7095,0.7038,0.6987,0.6987,0.6987,0.7201,0.7761,0.792,0.8145,0.8703,0.9733,1.0646,1.1207,1.2236,1.3041,1.3586,1.3768,1.3854,1.3854,1.4001,1.4088,1.4088,1.4088,1.4088,1.4088,1.4222,1.4295,1.4295,1.4155,1.4162,1.4295,1.4295,1.4369,1.4559,1.4669,1.473,1.475,1.505,1.517,1.5197,1.5491,1.5605,1.5618,1.5772,1.5784,1.5784,-1.2066,-1.1085,-1.0019,-0.9104,-0.8761,-0.8336,-0.7348,-0.7173,-0.7173,-0.7173,-0.7329,-0.7463,-0.7444,-0.7584,-0.7675,-0.7675,-0.7675,-0.7627,-0.7498,-0.6474,-0.5682,-0.5322,-0.4268,-0.3015,-0.1711,-0.1661,-0.1661,-0.1661,-0.1661,-0.11,0.0,0.0,0.0,0.0,0.0,0.0,0.0,0.0251,0.0353,0.0353,0.0605,0.136,0.2364,0.2364,0.3015,0.4016,0.4268,0.4476,0.4702,0.4676,0.5425,0.6311,0.621,0.6924,0.7828,0.7709,0.7655,0.7641,0.7668,0.7655,0.7641,0.7668,0.7675,0.7634,0.7482,0.7473,0.7373,0.72,0.7173,0.7173,0.7173,0.7173,0.7166,0.7139,0.731,0.7782,0.8763,0.9061,0.9536,1.0481,1.1595,1.2766,1.3997,1.4088,1.4088,1.4088,1.4088,1.4088,1.4088,1.4135,1.4162,1.4162,1.4208,1.4235,1.4235,1.4476,1.4596,1.4596,1.4355,1.4362,1.4596,1.4596,1.473,1.5015,1.5062,1.5082,1.5109,1.5351,1.5471,1.5491,1.5684,1.5784,1.5784,1.5784,1.5784,1.5784,-1.1042,-0.9923,-0.9112,-0.9093,-0.8275,-0.7566,-0.7519,-0.7539,-0.7539,-0.7539,-0.7556,-0.7614,-0.774,-0.7889,-0.7931,-0.7931,-0.7931,-0.744,-0.6305,-0.6056,-0.496,-0.2666,-0.2364,-0.1662,-0.0303,-0.0252,-0.0252,-0.0252,-0.0252,-0.0202,0.0,0.0,0.0,0.0,0.0,0.0,0.0101,0.1258,0.1712,0.1812,0.3015,0.3565,0.3715,0.3715,0.3865,0.4166,0.5322,0.647,0.7456,0.7437,0.7592,0.7704,0.7684,0.7842,0.7955,0.7934,0.7885,0.7811,0.7894,0.7882,0.7814,0.7897,0.7931,0.7891,0.7787,0.7655,0.7563,0.7543,0.7539,0.7539,0.7539,0.7539,0.7495,0.7363,0.8185,0.8844,0.8911,0.9749,1.0438,1.0567,1.1595,1.2766,1.3997,1.4088,1.4088,1.4088,1.4088,1.4088,1.4088,1.4322,1.4462,1.4462,1.471,1.4894,1.4894,1.4928,1.4948,1.4948,1.4908,1.4908,1.4948,1.4948,1.4975,1.5022,1.5231,1.5337,1.5357,1.5651,1.5772,1.5724,1.5764,1.5784,1.5784,1.5784,1.5784,1.5784,-0.9981,-0.886,-0.8125,-0.8241,-0.7862,-0.7522,-0.759,-0.76,-0.76,-0.76,-0.7668,-0.7743,-0.7804,-0.7897,-0.7988,-0.7988,-0.7335,-0.6631,-0.6029,-0.4622,-0.3218,-0.2063,-0.126,-0.0605,0.0,0.0,0.0,0.0,0.0,0.0,0.0,0.0,0.0,0.0051,0.0807,0.1109,0.1209,0.2564,0.3115,0.3165,0.3765,0.4468,0.5122,0.5122,0.5572,0.6326,0.688,0.7487,0.7988,0.7988,0.7988,0.7988,0.7988,0.7988,0.7988,0.7988,0.7941,0.7904,0.7971,0.8526,0.9022,0.9099,0.9653,0.9972,0.9213,0.9526,0.9554,0.7914,0.76,0.76,0.76,0.76,0.7807,0.8459,0.8992,0.9781,1.1139,1.1748,1.2281,1.3001,1.3492,1.4025,1.4532,1.462,1.462,1.462,1.462,1.462,1.462,1.4696,1.477,1.477,1.4941,1.5008,1.5008,1.5169,1.5204,1.5211,1.5371,1.5364,1.5204,1.5204,1.5297,1.5451,1.5585,1.5638,1.5651,1.5724,1.5784,1.5784,1.5784,1.5784,1.5784,1.5784,1.5784,1.5784]},{"header":{"parameterUnit":"m.s-1","parameterCategory":1,"la1":30.6,"la2":28.766,"lo1":-90.7593,"lo2":-88.6598,"dy":0.0162,"dx":0.0183,"nx":116,"ny":114,"refTime":"2024-06-14T18:00:00:Z","depth":0,"parameterNumber":3,"parameterNumberName":"V-component_of_WINDS"},"data":[0.0,0.0,0.0,0.0,0.0,0.0,0.0,0.0,0.0,0.0,0.0,0.0,0.0,0.0,0.0,0.0,0.0,0.0,0.0,0.0,0.0,0.0,0.0,0.0,0.0,0.0,0.0,0.0,0.0,0.0,0.0,0.0,0.0,0.0,0.0,0.0,0.0,0.0,0.0,0.0,0.0,0.0,0.0,0.0,0.0,0.0,0.0,0.0,0.0,0.0,0.0,0.0,0.0,0.0,0.0,0.0,0.0,0.0,0.0,0.0,0.0,0.0,0.0,0.0,0.0,0.0,0.0,0.0,0.0,0.0,0.0,0.0,0.0,0.0,0.0,0.0,0.0,0.0,0.0,0.0,0.0,0.0,0.0,0.0,0.0,0.0,0.0,0.0,0.0,0.0,0.0,0.0,0.0,0.0,0.0,0.0,0.0,0.0,0.0,0.0,0.0,0.0,0.0,0.0,0.0,0.0,0.0,0.0,0.0,0.0,0.0,0.0,0.0,0.0,0.0,0.0,0.0,0.0,0.0,0.0,0.0,0.0,0.0,0.0,0.0,0.0,0.0,0.0,0.0,0.0,0.0,0.0,0.0,0.0,0.0,0.0,0.0,0.0,0.0,0.0,0.0,0.0,0.0,0.0,0.0,0.0,0.0,0.0,0.0,0.0,0.0,0.0,0.0,0.0,0.0,0.0,0.0,0.0,0.0,0.0,0.0,0.0,0.0,0.0,0.0,0.0,0.0,0.0,0.0,0.0,0.0,0.0,0.0,0.0,0.0,0.0,0.0,0.0,0.0,0.0,0.0,0.0,0.0,0.0,0.0,0.0,0.0,0.0,0.0,0.0,0.0,0.0,0.0,0.0,0.0,0.0,0.0,0.0,0.0,0.0,0.0,0.0,0.0,0.0,0.0,0.0,0.0,0.0,0.0,0.0,0.0,0.0,0.0,0.0,0.0,0.0,0.0,0.0,0.0,0.0,0.0,0.0,0.0,0.0,0.0,0.0,0.0,0.0,0.0,0.0,0.0,0.0,0.0,0.0,0.0,0.0,0.0,0.0,0.0,0.0,0.0,0.0,0.0,0.0,0.0,0.0,0.0,0.0,0.0,0.0,0.0,0.0,0.0,0.0,0.0,0.0,0.0,0.0,0.0,0.0,0.0,0.0,0.0,0.0,0.0,0.0,0.0,0.0,0.0,0.0,0.0,0.0,0.0,0.0,0.0,0.0,0.0,0.0,0.0,0.0,0.0,0.0,0.0,0.0,0.0,0.0,0.0,0.0,0.0,0.0,0.0,0.0,0.0,0.0,0.0,0.0,0.0,0.0,0.0,0.0,0.0,0.0,0.0,0.0,0.0,0.0,0.0,0.0,0.0,0.0,0.0,0.0,0.0,0.0,0.0,0.0,0.0,0.0,0.0,0.0,0.0,0.0,0.0,0.0,0.0,0.0,0.0,0.0,0.0,0.0,0.0,0.0,0.0,0.0,0.0,0.0,0.0,0.0,0.0,0.0,0.0,0.0,0.0,0.0,0.0,0.0,0.0,0.0,0.0,0.0,0.0,0.0,0.0,0.0,0.0,0.0,0.0,0.0,0.0,0.0,0.0,0.0,0.0,0.0,0.0,0.0,0.0,0.0,0.0,0.0,0.0,0.0,0.0,0.0,0.0,0.0,0.0,0.0,0.0,0.0,0.0,0.0,0.0,0.0,0.0,0.0,0.0,0.0,0.0,0.0,0.0,0.0,0.0,0.0,0.0,0.0,0.0,0.0,0.0,0.0,0.0,0.0,0.0,0.0,0.0,0.0,0.0,0.0,0.0,0.0,0.0,0.0,0.0,0.0,0.0,0.0,0.0,0.0,0.0,0.0,0.0,0.0,0.0,0.0,0.0,0.0,0.0,0.0,0.0,0.0,0.0,0.0,0.0,0.0,0.0,0.0,0.0,0.0,0.0,0.0,0.0,0.0,0.0,0.0,0.0,0.0,0.0,0.0,0.0,0.0,0.0,0.0,0.0,0.0,0.0,0.0,0.0,0.0,0.0,0.0,0.0,0.0,0.0,0.0,0.0,0.0,0.0,0.0,0.0,0.0,0.0,0.0,0.0,0.0,0.0,0.0,0.0,0.0,0.0,0.0,0.0,0.0,0.0,0.0,0.0,0.0,0.0,0.0,0.0,0.0,0.0,0.0,0.0,0.0,0.0,0.0,0.0,0.0,0.0,0.0,0.0,0.0,0.0,0.0,0.0,0.0,0.0,0.0,0.0,0.0,0.0,0.0,0.0,0.0,0.0,0.0,0.0,0.0,0.0,0.0,0.0,0.0,0.0,0.0,0.0,0.0,0.0,0.0,0.0,0.0,0.0,0.0,0.0,0.0,0.0,0.0,0.0,0.0,0.0,0.0,0.0,0.0,0.0,0.0,0.0,0.0,0.0,0.0,0.0,0.0,0.0,0.0,0.0,0.0,0.0,0.0,0.0,0.0,0.0,0.0,0.0,0.0,0.0,0.0,0.0,0.0,0.0,0.0,0.0,0.0,0.0,0.0,0.0,0.0,0.0,0.0,0.0,0.0,0.0,0.0,0.0,0.0,0.0,0.0,0.0,0.0,0.0,0.0,0.0,0.0,0.0,0.0,0.0,0.0,0.0,0.0,0.0,0.0,0.0,0.0,0.0,0.0,0.0,0.0,0.0,0.0,0.0,0.0,0.0,0.0,0.0,0.0,0.0,0.0,0.0,0.0,0.0,0.0,0.0,0.0,0.0,0.0,0.0,0.0,0.0,0.0,0.0,0.0,0.0,0.0,0.0,0.0,0.0,0.0,0.0,0.0,0.0,0.0,0.0,0.0,0.0,0.0,0.0,0.0,0.0,0.0,0.0,0.0,0.0,0.0,0.0,0.0,0.0,0.0,0.0,0.0,0.0,0.0,0.0,0.0,0.0,0.0,0.0,0.0,0.0,0.0,0.0,0.0,0.0,0.0,0.0,0.0,0.0,0.0,0.0,0.0,0.0,0.0,0.0,0.0,0.0,0.0,0.0,0.0,0.0,0.0,0.0,0.0,0.0,0.0,0.0,0.0,0.0,0.0,0.0,0.0,0.0,0.0,0.0,0.0,0.0,0.0,0.0,0.0,0.0,0.0,0.0,0.0,0.0,0.0,0.0,0.0,0.0,0.0,0.0,0.0,0.0,0.0,0.0,0.0,0.0,0.0,0.0,0.0,0.0,0.0,0.0,0.0,0.0,0.0,0.0,0.0,0.0,0.0,0.0,0.0,0.0,0.0,0.0,0.0,0.0,0.0,0.0,0.0,0.0,0.0,0.0,0.0,0.0,0.0,0.0,0.0,0.0,0.0,0.0,0.0,0.0,0.0,0.0,0.0,0.0,0.0,0.0,0.0,0.0,0.0,0.0,0.0,0.0,0.0,0.0,0.0,0.0,0.0,0.0,0.0,0.0,0.0,0.0,0.0,0.0,0.0,0.0,0.0,0.0,0.0,0.0,0.0,0.0,0.0,0.0,0.0,0.0,0.0,0.0,0.0,0.0,0.0,0.0,0.0,0.0,0.0,0.0,0.0,0.0,0.0,0.0,0.0,0.0,0.0,0.0,0.0,0.0,0.0,0.0,0.0,0.0,0.0,0.0,0.0,0.0,0.0,0.0,0.0,0.0,0.0,0.0,0.0,0.0,0.0,0.0,0.0,0.0,0.0,0.0,0.0,0.0,0.0,0.0,0.0,0.0,0.0,0.0,0.0,0.0,0.0,0.0,0.0,0.0,0.0,0.0,0.0,0.0,0.0,0.0,0.0,0.0,0.0,0.0,0.0,0.0,0.0,0.0,0.0,0.0,0.0,0.0,0.0,0.0,0.0,0.0,0.0,0.0,0.0,0.0,0.0,0.0,0.0,0.0,0.0,0.0,0.0,0.0,0.0,0.0,0.0,0.0,0.0,0.0,0.0,0.0,0.0,0.0,0.0,0.0,0.0,0.0,0.0,0.0,0.0,0.0,0.0,0.0,0.0,0.0,0.0,0.0,0.0,0.0,0.0,0.0,0.0,0.0,0.0,0.0,0.0,0.0,0.0,0.0,0.0,0.0,0.0,0.0,0.0,0.0,0.0,0.0,0.0,0.0,0.0,0.0,0.0,0.0,0.0,0.0,0.0,0.0,0.0,0.0,0.0,0.0,0.0,0.0,0.0,0.0,0.0,0.0,0.0,0.0,0.0,0.0,0.0,0.0,0.0,0.0,0.0,0.0,0.0,0.0,0.0,0.0,0.0,0.0,0.0,0.0,0.0,0.0,0.0,0.0,0.0,0.0,0.0,0.0,0.0,0.0,0.0,0.0,0.0,0.0,0.0,0.0,0.0,0.0,0.0,0.0,0.0,0.0,0.0,0.0,0.0,0.0,0.0,0.0,0.0,0.0,0.0,0.0,0.0,0.0,0.0,0.0,0.0,0.0,0.0,0.0,0.0,0.0,0.0,0.0,0.0,0.0,0.0,0.0,0.0,0.0,0.0,0.0,0.0,0.0,0.0,0.0,0.0,0.0,0.0,0.0,0.0,0.0,0.0,0.0,0.0,0.0,0.0,0.0,0.0,0.0,0.0,0.0,0.0,0.0,0.0,0.0,0.0,0.0,0.0,0.0,0.0,0.0,0.0,0.0,0.0,0.0,0.0,0.0,0.0,0.0,0.0,0.0,0.0,0.0,0.0,0.0,0.0,0.0,0.0,0.0,0.0,0.0,0.0,0.0,0.0,0.0,0.0,0.0,0.0,0.0,0.0,0.0,0.0,0.0,0.0,0.0,0.0,0.0,0.0,0.0,0.0,0.0,0.0,0.0,0.0,0.0,0.0,0.0,0.0,0.0,0.0,0.0,0.0,0.0,0.0,0.0,0.0,0.0,0.0,0.0,0.0,0.0,0.0,0.0,0.0,0.0,0.0,0.0,0.0,0.0,0.0,0.0,0.0,0.0,0.0,0.0,0.0,0.0,0.0,0.0,0.0,0.0,0.0,0.0,0.0,0.0,0.0,0.0,0.0,0.0,0.0,0.0,0.0,0.0,0.0,0.0,0.0,0.0,0.0,0.0,0.0,0.0,0.0,0.0,0.0,0.0,0.0,0.0,0.0,0.0,0.0,0.0,0.0,0.0,0.0,0.0,0.0,0.0,0.0,0.0,0.0,0.0,0.0,0.0,0.0,0.0,0.0,0.0,0.0,0.0,0.0,0.0,0.0,0.0,0.0,0.0,0.0,0.0,0.0,0.0,0.0,0.0,0.0,0.0,0.0,0.0,0.0,0.0,0.0,0.0,0.0,0.0,0.0,0.0,0.0,0.0,0.0,0.0,0.0,0.0,0.0,0.0,0.0,0.0,0.0,0.0,0.0,0.0,0.0,0.0,0.0,0.0,0.0,0.0,0.0,0.0,0.0,0.0,0.0,0.0,0.0,0.0,0.0,0.0,0.0,0.0,0.0,0.0,0.0,0.0,0.0,0.0,0.0,0.0,0.0,0.0,0.0,0.0,0.0,0.0,0.0,0.0,0.0,0.0,0.0,0.0,0.0,0.0,0.0,0.0,0.0,0.0,0.0,0.0,0.0,0.0,0.0,0.0,0.0,0.0,0.0,0.0,0.0,0.0,0.0,0.0,0.0,0.0,0.0,0.0,0.0,0.0,0.0,0.0,0.0,0.0,0.0,0.0,0.0,0.0,0.0,0.0,0.0,0.0,0.0,0.0,0.0,0.0,0.0,0.0,0.0,0.0,0.0,0.0,0.0,0.0,0.0,0.0,0.0,0.0,0.0,0.0,0.0,0.0,0.0,0.0,0.0,0.0,0.0,0.0,0.0,0.0,0.0,0.0,0.0,0.0,0.0,0.0,0.0,0.0,0.0,0.0,0.0,0.0,0.0,0.0,0.0,0.0,0.0,0.0,0.0,0.0,0.0,0.0,0.0,0.0,0.0,0.0,0.0,0.0,0.0,0.0,0.0,0.0,0.0,0.0,0.0,0.0,0.0,0.0,0.0,0.0,0.0,0.0,0.0,0.0,0.0,0.0,0.0,0.0,0.0,0.0,0.0,0.0,0.0,0.0,0.0,0.0,0.0,0.0,0.0,0.0,0.0,0.0,0.0,0.8451,0.7974,0.0,0.0,0.0,0.0,0.0,0.0,0.0,0.0,0.0,0.0,0.0,0.0,0.0,0.0,0.0,0.0,0.0,0.0,0.0,0.0,0.0,0.0,0.0,0.7427,0.6591,0.5073,0.5802,0.72,0.9255,0.0,0.0,0.0,0.0,0.0,1.0225,1.001,0.9677,0.918,0.8956,0.8477,0.7767,0.6522,0.511,0.3605,0.0,0.0,0.0,0.0,0.0,0.0,0.0,0.0,0.0,0.0,0.0,0.0,0.0,0.0,0.0,0.0,0.0,0.0,0.0,0.0,0.0,0.0,0.0,0.0,0.0,0.0,0.0,0.0,0.0,0.0,0.0,0.0,0.0,0.0,0.0,0.0,0.0,0.0,0.0,0.0,0.0,0.0,0.0,0.0,0.0,0.0,0.0,0.0,0.0,0.0,0.0,0.0,0.0,0.0,0.0,0.0,0.0,0.0,0.0,0.0,0.0,0.0,0.0,0.0,0.0,0.0,0.0,0.0,0.0,0.0,0.9569,0.8844,0.0,0.0,0.0,0.0,0.0,0.0,0.0,0.0,0.0,0.0,0.0,0.0,0.0,0.0,0.0,0.0,0.0,0.0,0.0,0.0,0.0,0.9021,0.8539,0.7815,0.709,0.6401,0.6507,0.7056,0.8059,0.825,0.0,0.0,0.0,1.0726,1.1025,1.1025,1.0624,0.9813,0.9029,0.8194,0.7282,0.6106,0.4935,0.3767,0.3721,0.0,0.0,0.0,0.0,0.0,0.0,0.0,0.0,0.0,0.0,0.0,0.0,0.0,0.0,0.0,0.0,0.0,0.0,0.0,0.0,0.0,0.0,0.0,0.0,0.0,0.0,0.0,0.0,0.0,0.0,0.0,0.0,0.0,0.0,0.0,0.0,0.0,0.0,0.0,0.0,0.0,0.0,0.0,0.0,0.0,0.0,0.0,0.0,0.0,0.0,0.0,0.0,0.0,0.0,0.0,0.0,0.0,0.0,0.0,0.0,0.0,0.0,0.0,1.1844,1.189,1.2465,1.2697,1.2623,1.2211,1.0425,0.9568,0.9364,0.9061,0.0,0.0,0.0,0.0,0.0,0.0,0.0,0.0,0.0,0.0,0.0,0.0,0.0,0.0,0.0,0.0,0.0,0.0,0.0,0.8749,0.8439,0.7712,0.6899,0.6131,0.5974,0.624,0.6961,0.7448,0.0,0.0,1.0602,1.0877,1.1496,1.1518,1.096,0.9808,0.788,0.6243,0.495,0.4755,0.4577,0.437,0.4211,0.363,0.2849,0.0,0.0,0.0,0.0,0.0,0.0,0.0,0.0,0.0,0.0,0.0,0.0,0.0,0.0,0.0,0.0,0.0,0.0,0.0,0.0,0.0,0.0,0.0,0.0,0.0,0.0,0.0,0.0,0.0,0.0,0.0,0.0,0.0,0.0,0.0,0.0,0.0,0.0,0.0,0.0,0.0,1.2436,1.3881,0.0,0.0,0.0,0.0,0.0,0.0,0.0,0.0,0.0,0.0,0.0,0.0,0.0,1.2425,1.2723,1.2836,1.3055,1.3427,1.3088,1.2969,1.3086,1.2891,1.2623,1.2261,1.1994,0.0,1.0564,1.0399,0.0,0.0,0.0,0.0,0.0,0.0,0.0,0.0,0.0,0.0,0.0,0.0,0.0,0.0,0.0,0.0,0.0,0.0,0.0,0.0,0.0,0.8473,0.7792,0.6028,0.6358,0.6806,0.7217,0.7368,0.848,1.0837,1.0791,1.1092,1.1921,1.1934,1.1301,1.003,0.8541,0.7259,0.6143,0.6127,0.5841,0.5284,0.5035,0.4191,0.2963,0.3066,0.0,0.0,0.0,0.0,0.0,0.0,0.0,0.0,0.0,0.0,0.0,0.0,0.0,0.0,0.0,0.0,0.0,0.0,0.0,0.0,0.0,0.0,0.0,0.0,0.0,0.0,0.0,0.0,0.0,0.0,0.0,0.0,0.0,0.0,0.0,0.0,0.0,0.0,0.0,1.4105,1.4461,1.5459,1.4563,1.418,0.0,0.0,0.0,0.0,0.0,0.0,0.0,0.0,0.0,1.2612,1.2746,1.2872,1.3006,1.314,1.3186,1.314,1.3186,1.3033,1.2705,1.277,1.2623,1.2305,1.2305,1.204,1.1631,1.1401,1.0755,0.9793,0.0,0.0,0.0,0.0,0.8948,0.9013,0.0,0.0,0.0,0.0,0.0,0.0,0.0,0.0,0.0,0.0,0.0,0.0,0.917,0.9157,0.8499,0.6707,0.6906,0.7295,0.7689,0.7819,0.8962,1.1336,1.1507,1.1889,1.2593,1.2279,1.1528,1.0344,0.93,0.8324,0.746,0.729,0.6803,0.6077,0.5873,0.4774,0.3126,0.3357,0.3263,0.0,0.0,0.0,0.0,0.0,0.0,0.0,0.0,0.0,0.0,0.0,0.0,0.0,0.0,0.0,0.0,0.0,0.0,0.0,0.0,0.0,0.0,0.0,0.0,0.0,0.0,0.0,0.0,0.0,0.0,0.0,0.0,0.0,0.0,0.0,0.0,0.0,0.0,1.5876,1.6236,1.6617,1.584,1.5247,0.0,0.0,0.0,0.0,0.0,0.0,1.2505,1.2532,1.2746,1.32,1.328,1.328,1.328,1.3394,1.328,1.3018,1.3133,1.2933,1.2418,1.2603,1.2549,1.2305,1.2305,1.2305,1.2285,1.2064,1.1653,1.1059,1.0704,1.0049,0.9372,0.9922,1.012,1.0227,0.0,0.0,0.0,0.0,0.0,0.0,0.0,0.0,0.0,0.0,0.0,1.1215,1.0654,0.9314,0.8475,0.856,0.7378,0.7035,0.0,0.8954,1.0253,1.1968,1.3013,1.3611,1.3713,1.2473,1.149,1.0763,0.9375,0.835,0.7664,0.6966,0.6615,0.6561,0.6561,0.5366,0.344,0.4134,0.392,0.3219,0.0,0.0,0.0,0.0,0.0,0.0,0.0,0.0,0.0,0.0,0.0,0.0,0.0,0.0,0.0,0.0,0.0,0.0,0.0,0.0,0.0,0.0,0.0,0.0,0.0,0.0,0.0,0.0,0.0,0.0,0.0,0.0,0.0,0.0,0.0,0.0,0.0,0.0,0.0,1.6617,1.5878,0.0,0.0,0.0,0.0,1.379,1.2864,1.2517,1.3107,1.316,1.318,1.3213,1.344,1.358,1.358,1.3901,1.3895,1.3553,1.3333,1.3039,1.2757,1.2445,1.2318,1.2305,1.2305,1.2305,1.2305,1.2285,1.2124,1.1848,1.1822,1.1565,1.1245,1.1307,1.13,1.1334,0.0,0.0,0.0,0.0,0.0,1.4123,1.3432,1.3142,1.2879,1.258,1.1863,1.1331,1.1237,1.0426,0.9586,0.8837,0.8409,0.8569,0.9399,0.9993,1.1196,1.3178,1.3533,1.3903,1.4376,1.3545,1.2759,1.2083,1.0893,0.9959,0.9302,0.8739,0.8369,0.8228,0.8623,0.8273,0.7317,0.6301,0.5601,0.5311,0.6273,0.6147,0.0,0.0,0.0,0.0,0.0,0.0,0.0,0.0,0.0,0.0,0.0,0.0,0.0,0.0,0.0,0.0,0.0,0.0,0.0,0.0,0.0,0.0,0.0,0.0,0.0,0.0,0.0,0.0,0.0,0.0,0.0,0.0,0.0,0.0,0.0,0.0,0.0,1.7891,1.7315,0.0,1.6436,1.4058,1.2869,1.3579,1.3519,1.3444,1.3474,1.3447,1.3581,1.3768,1.3874,1.3928,1.3928,1.4035,1.3848,1.332,1.326,1.2946,1.2458,1.2351,1.2305,1.2305,1.2305,1.2305,1.2305,1.2305,1.2238,1.2144,1.2144,1.185,1.1415,1.1637,1.159,1.1389,0.0,0.0,0.0,0.0,1.4649,1.4341,1.3856,1.3752,1.375,1.3736,1.3274,1.2882,1.2666,1.2008,1.1186,1.02,0.9886,1.0034,1.0754,1.1221,1.234,1.4379,1.4734,1.5093,1.554,1.4937,1.4132,1.3075,1.2355,1.1486,1.046,1.0157,0.9972,0.9955,1.0369,1.0664,1.0761,0.9223,0.8146,0.7516,0.7999,0.7835,0.7383,0.0,0.0,0.0,0.0,0.0,0.0,0.0,0.0,0.0,0.0,0.0,0.0,0.0,0.0,0.0,0.0,0.0,0.0,0.0,0.0,0.0,0.0,0.0,0.0,0.0,0.0,0.0,0.0,0.0,0.0,0.0,0.0,0.0,0.0,1.7886,1.8549,1.8403,1.8247,1.795,1.7378,1.5435,1.4072,1.373,1.3971,1.3987,1.3781,1.3753,1.3881,1.4082,1.4088,1.4088,1.4088,1.4088,1.3794,1.3213,1.3213,1.2893,1.2305,1.2305,1.2305,1.2305,1.2305,1.2305,1.2305,1.2305,1.2305,1.2305,1.2305,1.2064,1.173,1.1866,1.1744,1.1578,0.0,0.0,0.0,1.4687,1.4592,1.4529,1.454,1.5401,1.5845,1.5323,1.5789,1.5884,1.504,1.4007,1.3202,1.2818,1.1753,1.1373,1.2037,1.2631,1.3769,1.5578,1.6665,1.7241,1.7241,1.6627,1.545,1.3679,1.3657,1.2765,1.1118,1.1108,1.1309,1.1694,1.1715,1.2352,1.3363,1.2859,1.157,0.9851,0.984,0.9781,0.9721,0.0,0.0,0.0,0.0,0.0,0.0,0.0,0.0,0.0,0.0,0.0,0.0,0.0,0.0,0.0,0.0,0.0,0.0,0.0,0.0,0.0,0.0,0.0,0.0,0.0,0.0,0.0,0.0,0.0,0.0,0.0,0.0,0.0,1.7383,1.8105,1.8451,1.8061,1.8553,1.8709,1.8135,1.8081,1.7037,1.4491,1.4177,1.4109,1.411,1.4082,1.4088,1.4088,1.4088,1.4088,1.4088,1.4088,1.3794,1.3213,1.3213,1.2893,1.2305,1.2305,1.2305,1.2305,1.2305,1.2305,1.2305,1.2305,1.2305,1.2305,1.2305,1.2291,1.2258,1.2013,1.1893,1.1933,0.0,0.0,1.4649,1.4686,1.4869,1.5148,1.552,1.619,1.662,1.6517,1.6209,1.608,1.6318,1.5476,1.4848,1.4741,1.3949,1.3608,1.3944,1.4309,1.5296,1.7116,1.7716,1.8,1.8,1.6884,1.6059,1.5566,1.4779,1.4159,1.3677,1.3378,1.346,1.3867,1.4315,1.4853,1.5508,1.5896,1.5737,1.5084,1.3324,1.2296,1.1886,0.0,0.0,0.0,0.0,0.0,0.0,0.0,0.0,0.0,0.0,0.0,0.0,0.0,0.0,0.0,0.0,0.0,0.0,0.0,0.0,0.0,0.0,0.0,0.0,0.0,0.0,0.0,0.0,0.0,0.0,0.0,1.748,1.7734,1.7432,1.8105,1.8621,1.8634,1.8977,1.9371,1.9857,1.9898,1.9578,1.8885,1.5876,1.4096,1.4103,1.4105,1.4088,1.4088,1.4088,1.4088,1.4088,1.4088,1.3794,1.3213,1.3213,1.2893,1.2305,1.2305,1.2305,1.2305,1.2305,1.2305,1.2305,1.2305,1.2305,1.2305,1.2305,1.2171,1.2013,1.1933,1.1999,1.2141,0.0,1.3892,1.484,1.4837,1.4985,1.5359,1.6054,1.6846,1.7392,1.7491,1.7347,1.7202,1.7082,1.6423,1.5803,1.5281,1.4595,1.4478,1.5149,1.6026,1.7076,1.8297,1.8641,1.8839,1.8942,1.8171,1.7571,1.7185,1.6565,1.5987,1.5446,1.5265,1.5365,1.5719,1.6163,1.6721,1.737,1.7547,1.7879,1.8132,1.6472,1.541,1.4817,1.48,1.4699,1.4485,1.3808,1.3207,1.2598,1.1894,0.0,0.0,0.0,0.0,0.0,0.0,0.0,0.0,0.0,0.0,0.0,0.0,0.0,0.0,0.0,0.0,0.0,0.0,0.0,0.0,0.0,0.0,0.0,0.0,1.8154,1.8412,1.8071,1.8437,1.8695,1.8555,1.8657,1.9251,2.0486,2.0603,2.0586,2.0621,1.8267,1.6285,1.5063,1.4998,1.472,1.413,1.4088,1.4088,1.4088,1.4088,1.3794,1.3213,1.3213,1.3079,1.2879,1.2879,1.3127,1.3484,1.3055,1.2879,1.2842,1.2445,1.2519,0.0,0.0,0.0,0.0,0.0,1.2365,1.2586,0.0,1.4137,1.5197,1.5286,1.5262,1.5561,1.6525,1.7567,1.8282,1.8376,0.0,1.8628,1.7546,1.7034,1.6344,1.5266,1.4688,1.4937,0.0,0.0,1.892,1.9286,1.9487,1.966,1.9843,1.9773,1.9326,1.8484,1.8484,1.7907,1.6806,1.6935,1.7116,1.7332,1.7509,1.8046,1.8805,1.8382,1.8779,1.9637,1.9139,1.8554,1.7879,1.698,1.6984,1.7383,1.6847,1.6274,1.5676,1.5066,0.0,0.0,0.0,0.0,0.0,0.0,0.0,0.0,0.0,0.0,0.0,0.0,0.0,0.0,0.0,0.0,0.0,0.0,0.0,0.0,0.0,0.0,0.0,0.0,1.8828,1.9299,1.9114,1.9085,1.8831,1.8083,1.8,1.8669,2.0423,2.0619,2.061,2.0593,2.0582,1.946,1.6827,0.0,0.0,0.0,0.0,1.4272,1.4104,1.4201,1.3953,1.3365,1.3365,1.3533,1.3882,1.3882,1.4343,1.5163,1.4279,1.3882,1.381,1.2989,1.3127,1.3774,1.2873,1.2517,1.2523,1.2706,1.2931,1.3252,0.0,1.613,1.6404,1.705,1.6904,1.7069,1.8164,1.9154,1.9722,1.9586,1.9069,1.8596,1.8297,1.7626,1.7098,1.6852,1.7157,1.7847,0.0,0.0,2.0477,2.0545,2.0228,2.0082,2.0124,1.9579,1.9234,1.9049,1.9049,1.8911,1.8685,1.87,1.875,1.8799,1.8777,1.8878,1.9066,1.9399,2.0023,2.0782,2.0567,1.9925,1.9071,1.8874,1.887,1.8973,1.8852,1.819,1.7343,1.7217,1.6262,1.5175,1.5458,0.0,0.0,0.0,0.0,0.0,0.0,0.0,0.0,0.0,0.0,0.0,0.0,0.0,0.0,0.0,0.0,0.0,0.0,0.0,0.0,1.9154,1.9463,1.9899,2.024,2.0266,1.9723,1.8175,1.7981,1.8682,2.0436,2.0594,2.0595,2.0586,2.0614,2.0334,1.9768,1.8051,1.6944,1.669,1.6106,1.5267,1.413,1.4941,1.5017,1.4343,0.0,0.0,1.4914,1.4914,1.5021,1.5199,1.4985,1.4914,1.4914,1.47,1.4736,1.4846,1.4283,1.3929,1.3703,1.3388,1.3559,1.3995,1.7571,1.7543,1.7536,1.7923,1.795,1.8144,1.8846,1.969,2.0184,1.9981,1.9241,1.8662,1.8435,1.7595,1.6844,1.6332,1.8141,0.0,0.0,2.1268,2.1241,2.1678,2.064,2.0083,2.0141,1.9784,1.9658,1.9757,1.9757,1.9698,1.9597,1.9701,1.9698,1.9593,1.9664,1.9907,2.0276,2.0532,2.1165,2.198,2.1896,2.1524,2.0985,2.041,2.0052,1.988,2.0121,1.9667,1.8965,1.877,1.8384,1.7846,1.729,1.729,1.7452,0.0,0.0,0.0,0.0,0.0,0.0,0.0,0.0,0.0,0.0,0.0,0.0,0.0,0.0,2.141,2.0758,0.0,2.1161,2.0457,2.0101,1.9969,2.0121,1.9916,1.9292,1.8153,1.877,1.9655,2.0537,2.0579,2.0605,2.0615,2.0596,2.0594,2.0591,1.9543,1.8455,1.7342,1.8036,1.7702,1.6275,1.6201,1.5944,1.5396,1.5194,1.5389,1.5895,1.5895,1.6149,1.6585,1.6114,1.5895,1.5895,1.5895,1.5748,1.5541,1.5579,1.5239,1.4661,1.4219,1.4364,1.4805,1.8145,1.8512,1.8591,1.8591,1.8785,1.9016,1.9213,1.9815,2.0175,2.0002,1.9315,1.8731,1.8425,1.7523,1.6765,0.0,0.0,0.0,0.0,2.2441,2.1994,2.2545,2.1032,2.0158,2.0106,2.0035,2.0097,2.0286,2.0244,2.0172,2.0038,2.0191,2.0268,2.0254,2.0526,2.0946,2.1465,2.1603,2.2181,2.3026,2.2885,2.2829,2.271,2.1707,2.1054,2.0748,2.1118,2.0862,2.0305,2.0064,2.0169,2.0181,1.8821,1.9076,1.9674,1.8404,1.797,0.0,0.0,0.0,0.0,0.0,0.0,0.0,0.0,0.0,2.1848,2.1751,2.2628,2.3337,2.3038,2.3063,2.2789,2.1702,2.0836,2.0179,1.977,1.9439,1.9068,1.8555,1.9465,2.0177,2.0315,2.05,2.0588,2.0595,2.0605,2.0605,2.0593,2.0603,1.9785,1.7989,1.9663,2.0006,1.8829,1.7632,1.6824,1.6493,1.6058,1.6232,1.6888,1.6888,1.7285,1.7974,1.7207,1.6888,1.6888,1.6888,1.6615,1.6245,1.6555,1.6176,1.5423,1.4991,1.5067,1.541,0.0,1.8958,1.9625,1.9625,1.9716,1.9775,1.9813,1.995,1.9999,1.9926,1.9173,1.8663,1.8739,1.7943,1.8049,1.9593,0.0,0.0,2.3925,2.3866,2.3475,2.2808,2.1783,2.0886,2.0127,2.0025,2.0079,2.021,2.0089,2.0076,2.0182,2.0208,2.0529,2.1093,2.1646,2.181,2.1703,2.2302,2.293,2.348,2.307,2.3033,2.3181,2.2688,2.233,2.2077,2.2137,2.1615,2.0959,2.1275,2.0663,1.9835,2.0055,2.0394,2.0522,1.9777,0.0,2.0954,1.9851,1.9965,2.0523,2.1159,2.1883,2.2513,0.0,0.0,2.328,2.3608,2.4179,2.4491,2.4094,2.4424,2.4148,2.2254,2.1841,2.1281,1.9874,2.0121,2.0379,2.0318,1.9118,1.8588,1.937,2.0147,2.0604,2.0615,2.0605,2.0615,2.0605,2.0605,2.0469,2.0245,2.0459,2.0527,2.0373,1.8864,1.7926,1.7543,1.7078,1.7186,1.7828,1.7828,1.7896,1.7974,1.7906,1.7828,1.7828,1.7828,1.762,1.7203,1.684,1.6422,1.5953,1.5487,1.5362,1.541,0.0,1.9475,1.979,1.979,1.9978,2.0086,1.9979,1.9978,1.9936,1.9747,1.9074,1.9023,2.0131,2.0442,2.1036,2.2172,2.3253,2.392,2.4038,2.4038,2.3733,2.3053,2.1724,2.0728,2.0178,1.9675,1.9546,1.9793,2.0013,2.0208,2.0448,2.0545,2.0926,2.1513,2.2239,2.2729,2.3005,2.3283,2.3842,2.4502,2.4276,2.4081,2.3901,2.3616,2.3178,2.2647,2.2079,2.166,0.0,0.0,2.075,2.0554,2.0133,2.0337,2.0614,1.9997,2.0439,0.0,2.0944,2.1647,2.2425,2.2328,2.331,2.4226,2.4069,2.4299,2.459,2.4632,2.5071,2.5358,2.5086,2.5009,2.4707,2.3891,2.2585,2.1334,2.0477,2.024,2.0117,1.9887,1.9647,1.9445,1.9328,1.9769,2.0222,2.0556,2.0605,2.0605,2.0605,2.0605,2.0605,2.0605,2.0605,2.044,2.0072,1.9259,1.8656,1.8205,1.7791,1.7726,1.8008,1.8008,1.7881,1.7656,1.79,1.7871,1.7646,1.7646,1.7393,1.6963,1.6514,1.6074,1.5664,1.5478,1.541,1.541,0.0,1.9654,1.9858,1.9858,2.0102,2.0225,1.9978,1.9934,1.9955,2.0013,1.9343,1.96,2.1524,2.2288,2.2919,2.3589,2.4443,2.4737,2.4254,2.4135,2.3793,2.3164,2.1755,2.0757,2.0262,1.9656,1.9476,1.9746,2.0064,2.0353,2.0609,2.0508,2.087,2.1633,2.2563,2.3274,2.3805,2.3972,2.435,2.4861,2.5122,2.4949,2.4484,2.4247,2.3732,2.3029,2.2204,2.17,0.0,0.0,2.0743,2.0737,2.0093,2.0259,2.0608,2.0188,2.0529,2.1172,2.1811,2.2654,2.3297,2.3052,2.4092,2.5047,2.4607,2.4988,2.537,2.5177,2.5408,2.568,2.5691,2.5395,2.5071,2.4826,2.3432,2.2194,2.1643,2.0922,2.0418,2.0259,2.032,2.0243,1.9849,1.9687,1.9883,2.0546,2.038,2.0254,2.0226,2.0477,2.0477,2.0253,2.0312,2.007,1.9492,1.9224,1.8955,1.8598,1.8178,1.8008,1.8008,1.8008,1.7842,1.7568,1.7754,1.7666,1.7383,1.7383,1.7051,1.6523,1.6328,1.5898,1.541,1.541,1.541,1.541,0.0,0.0,1.9984,1.9984,2.0161,2.0199,1.9866,1.9821,2.0104,2.0933,2.0181,2.0414,2.2608,2.2462,2.2574,2.3431,2.3532,2.3898,2.4731,2.4478,2.3913,2.3037,2.2152,2.128,2.0402,2.024,2.0229,2.0374,2.0315,2.0389,2.0577,1.9742,2.0049,2.1368,2.262,2.3313,2.3557,2.4129,2.4206,2.4034,2.5147,2.5252,2.4752,2.4422,2.3969,2.3419,2.287,0.0,0.0,2.143,2.0747,1.9812,2.0156,2.0466,0.0,2.0682,2.1139,2.1824,2.2498,2.27,2.2873,2.3524,2.4147,2.46,2.4529,2.5009,2.5434,2.5232,2.515,2.5287,2.5809,2.573,2.5277,2.4359,2.4589,2.4541,2.3554,2.2559,2.2089,2.2557,2.0995,2.0223,0.0,2.0015,1.9686,2.0537,1.9832,1.9352,1.9325,2.0141,2.02,1.9382,1.9576,1.9482,1.8918,1.8731,1.8617,1.8598,1.8178,1.8008,1.8008,1.8008,1.8008,1.7969,1.7568,1.7393,1.7383,1.7383,1.6907,1.6153,1.6512,1.6151,1.541,1.541,1.541,1.541,0.0,0.0,0.0,2.0741,2.0852,2.1042,2.1515,2.0652,2.0221,2.1002,2.1727,0.0,0.0,0.0,0.0,0.0,2.4356,2.4339,2.4269,2.4421,2.3994,2.2841,2.2258,2.1502,2.0494,1.9687,1.953,2.0066,2.0052,2.0243,2.0602,2.0661,2.0955,2.145,2.1745,2.238,2.325,2.3451,2.3905,2.4534,2.4901,2.5576,2.6281,2.6,2.5339,2.4498,0.0,0.0,0.0,2.0797,2.0278,1.9711,1.9856,0.0,2.0859,2.1771,2.2438,2.3018,2.3649,2.4422,2.5076,2.5292,2.5854,2.6237,2.5849,2.627,2.6508,2.5595,2.5656,2.5797,2.5428,2.5574,2.5614,2.519,2.5055,2.4767,2.4132,2.37,2.3397,2.3268,2.2363,0.0,0.0,0.0,0.0,2.0537,2.0029,1.9718,1.9713,1.9969,1.9878,1.9333,1.9377,1.9195,1.8721,1.8621,1.8461,1.8188,1.8076,1.8008,1.8008,1.8008,1.7672,1.7135,1.7324,1.7083,1.6535,1.6535,1.6656,1.6816,1.6643,1.6696,1.6856,1.6856,1.6856,1.6715,0.0,0.0,0.0,0.0,0.0,0.0,0.0,0.0,0.0,0.0,0.0,0.0,0.0,0.0,0.0,0.0,0.0,2.4072,2.3741,2.3893,2.3541,2.2521,2.2087,2.1398,2.0441,1.9702,1.9576,2.0045,1.9846,2.0099,2.0749,2.078,2.0828,2.0847,2.0719,2.1282,2.2374,2.2689,2.3608,2.5021,2.6712,2.7354,2.726,2.7067,2.6447,0.0,0.0,0.0,2.1825,2.0987,2.039,2.0033,2.0125,2.0843,2.1823,2.2707,2.3498,2.4184,2.4576,2.5263,2.5847,2.5847,2.6162,2.6395,2.6062,2.6352,2.6451,2.5628,2.577,2.5866,2.5339,2.5402,2.5592,2.5704,2.5434,2.5194,2.5093,2.4602,2.4194,2.4052,2.3282,2.2829,0.0,0.0,0.0,2.0585,2.0019,1.9697,1.9697,1.9697,1.9424,1.8848,1.8975,1.898,1.8838,1.8838,1.8869,1.8921,1.8921,1.8829,1.8652,1.8839,1.8385,1.7513,1.7841,1.7575,1.6906,1.6906,1.7068,1.7345,1.7206,1.7327,1.7605,1.7605,1.7605,1.7457,0.0,0.0,0.0,0.0,0.0,0.0,0.0,0.0,0.0,0.0,0.0,0.0,0.0,0.0,0.0,0.0,0.0,0.0,2.3177,2.302,0.0,2.2127,2.1607,2.1004,2.033,2.028,2.0263,2.0263,1.9754,1.9962,2.0828,2.001,1.9621,1.9624,1.9749,2.0281,2.1166,2.2037,2.3473,2.5585,3.0182,3.0303,2.7738,2.7666,0.0,0.0,0.0,0.0,2.351,2.2019,2.1147,2.0734,2.1019,2.2179,2.3417,2.3483,2.4327,2.524,2.524,2.5259,2.5278,2.5278,2.5278,2.5278,2.524,2.5363,2.5464,2.54,2.5484,2.5524,0.0,0.0,2.5352,2.5814,2.5775,2.5892,2.6411,2.5303,2.4583,0.0,0.0,0.0,0.0,0.0,0.0,2.0875,0.0,1.9452,1.936,1.9423,1.9029,1.8163,1.8493,1.8907,1.9375,1.9365,1.9792,2.059,2.0568,2.0279,1.9812,2.031,1.9912,1.8877,1.9007,1.8769,1.8253,1.8253,1.8031,1.7705,1.8159,1.8076,1.7715,1.7715,1.7715,1.7715,0.0,0.0,0.0,0.0,0.0,0.0,0.0,0.0,0.0,0.0,0.0,0.0,0.0,0.0,0.0,0.0,0.0,0.0,2.2848,0.0,0.0,0.0,2.0879,2.0256,2.0522,2.008,1.9856,1.9856,1.971,1.9369,1.8837,1.8608,1.8522,1.8586,2.0398,2.1738,2.268,2.3506,2.535,2.7881,0.0,3.045,2.9661,0.0,0.0,0.0,0.0,0.0,2.4167,2.3436,2.2625,2.204,2.2605,2.3076,2.3631,2.4786,2.5432,2.5797,2.5797,2.605,2.6315,2.6315,2.6315,2.6228,2.5888,2.6168,2.6298,2.5549,2.58,2.6032,2.5568,2.6165,2.6548,2.5999,2.6614,0.0,2.6564,2.6189,0.0,2.6117,0.0,2.4495,2.4624,2.3849,0.0,0.0,2.227,2.146,2.0349,2.0945,2.0886,1.9977,2.0031,2.0129,2.0268,2.0268,2.0365,2.0579,2.0135,1.987,1.9789,1.9471,1.9015,1.8447,1.8505,1.8226,1.7796,1.7796,1.8048,1.8432,1.8561,1.886,1.9228,1.9228,1.9228,1.9228,0.0,0.0,0.0,0.0,0.0,0.0,0.0,0.0,0.0,0.0,0.0,0.0,0.0,0.0,0.0,0.0,0.0,0.0,0.0,0.0,0.0,2.1585,2.0362,1.9861,2.0207,1.9879,1.9693,1.969,0.0,0.0,1.8797,1.8327,1.8115,1.8173,2.0006,2.2201,2.4673,2.6327,0.0,0.0,0.0,0.0,0.0,0.0,0.0,0.0,0.0,0.0,2.5952,2.5693,2.4813,2.3917,2.428,2.4411,2.4598,2.5554,2.6061,2.6314,2.6314,2.6504,2.6691,2.6691,2.6691,2.6641,2.6367,2.6649,2.6823,2.6254,2.6543,2.678,2.6447,2.6933,2.7159,2.6489,0.0,0.0,2.6586,2.6499,2.6499,0.0,2.599,0.0,2.5664,2.5134,2.453,0.0,2.3408,2.2584,2.1282,2.1691,2.1554,2.0624,2.059,2.0782,2.1175,2.151,2.171,2.1698,2.1136,2.0741,2.0517,2.0182,1.9641,1.8975,0.0,1.9038,1.8581,1.8581,1.8821,1.9176,1.9176,1.9449,1.9798,1.9798,1.9798,1.9798,0.0,0.0,0.0,0.0,0.0,0.0,0.0,0.0,0.0,0.0,0.0,0.0,0.0,0.0,0.0,0.0,0.0,0.0,0.0,0.0,0.0,2.0868,1.9822,1.9273,1.9269,1.9403,1.9556,1.97,0.0,0.0,0.0,0.0,0.0,0.0,0.0,0.0,0.0,0.0,0.0,0.0,0.0,0.0,0.0,0.0,0.0,0.0,0.0,0.0,2.8053,2.8059,2.7062,2.5806,2.5822,2.5791,2.5793,2.603,2.6383,2.6691,2.6691,2.6691,2.6691,2.6691,2.6691,2.6691,2.6691,2.6886,2.7061,2.7085,2.7357,2.7561,2.7495,2.7665,2.7633,2.7232,0.0,2.696,2.6705,2.6555,2.6499,2.6499,2.6499,2.6499,2.6499,2.6499,2.5906,2.4474,2.4013,2.3273,2.2128,2.2185,2.1866,2.0965,2.0873,2.1197,2.1968,2.2577,2.2882,2.2882,2.2347,2.1845,2.1408,2.1305,2.0727,1.9823,2.0352,2.0289,1.9798,1.9798,1.9798,1.9798,1.9798,1.9798,1.9798,1.9798,1.9798,1.9798,0.0,0.0,0.0,0.0,0.0,0.0,0.0,0.0,0.0,0.0,2.2077,0.0,0.0,0.0,0.0,0.0,0.0,0.0,0.0,0.0,0.0,0.0,1.8833,1.7059,1.706,1.7921,1.8811,1.9695,1.97,0.0,0.0,0.0,0.0,0.0,0.0,0.0,0.0,0.0,0.0,0.0,0.0,0.0,0.0,0.0,0.0,0.0,0.0,2.8915,2.882,2.8802,2.7721,2.637,2.6488,2.6264,2.603,2.6453,2.6653,2.6691,2.6691,2.6691,2.6691,2.6691,2.6691,2.6691,2.6691,2.6742,0.0,2.7044,2.7568,2.7893,2.7561,2.842,2.8906,2.8196,2.7915,2.7719,2.7525,2.6905,2.6499,0.0,2.6499,2.6499,2.6499,2.6499,0.0,0.0,2.5259,2.4426,2.2524,2.3192,2.3336,2.2684,2.2258,2.2083,2.2242,2.1938,2.1782,2.1769,2.1245,2.093,2.0817,2.0313,1.9987,1.9811,1.9911,0.0,1.9798,1.9798,1.9798,1.9798,1.9798,1.9798,1.9798,1.9798,1.9798,1.9798,0.0,0.0,0.0,0.0,0.0,0.0,0.0,0.0,0.0,2.2432,2.2116,2.2113,0.0,0.0,0.0,0.0,0.0,0.0,0.0,0.0,0.0,0.0,0.0,1.7635,1.6517,1.8106,1.9952,2.203,0.0,0.0,0.0,0.0,0.0,0.0,0.0,0.0,0.0,0.0,0.0,0.0,0.0,0.0,0.0,0.0,0.0,0.0,0.0,3.0133,3.0537,2.9659,2.8664,2.7713,2.7173,2.6704,2.6404,2.6622,2.6691,2.6691,2.6691,2.6691,2.6691,2.6691,2.6691,2.6691,2.6691,0.0,0.0,2.7977,2.8412,2.8727,2.8925,2.925,2.9235,2.8366,2.8197,2.7933,2.7279,2.6849,2.656,2.6517,2.6499,2.6499,2.6499,2.6223,2.5787,2.5234,2.4933,2.4327,2.335,2.3443,2.3258,2.2694,2.2418,2.2171,2.1882,2.1619,2.1493,2.1481,2.0955,2.0691,2.0679,2.0075,1.9798,1.9798,1.9798,1.9798,1.9798,1.9798,1.9798,1.9798,1.9798,1.9798,1.9798,1.9798,1.9798,1.9798,0.0,0.0,0.0,0.0,0.0,0.0,0.0,2.2671,2.2833,2.2807,2.2561,2.2764,2.3739,2.358,2.321,0.0,0.0,0.0,0.0,0.0,0.0,0.0,0.0,1.9589,1.8182,0.0,0.0,2.4654,2.4755,0.0,0.0,0.0,0.0,0.0,2.4615,0.0,0.0,0.0,0.0,0.0,0.0,0.0,0.0,0.0,0.0,0.0,0.0,0.0,3.1659,3.0598,2.9748,2.8986,2.7994,2.734,2.6926,2.6753,2.6774,2.6842,2.6725,2.6691,2.6691,2.6691,2.6792,2.6842,2.6725,2.7216,0.0,2.8825,2.9078,2.9397,3.0149,2.9945,2.9415,2.8615,2.8498,2.8196,2.7363,2.7218,2.7065,2.6786,2.6748,0.0,2.6357,2.5862,0.0,2.4695,2.413,2.3816,2.3816,2.3358,2.2844,2.2334,2.2196,2.1914,2.1526,2.1262,2.1211,2.1335,2.077,2.0515,2.049,2.0012,1.9798,1.9798,1.9798,1.9875,2.0003,2.0003,2.0093,2.0207,2.0207,2.0207,2.0207,2.0207,2.0207,2.0207,0.0,0.0,0.0,0.0,0.0,0.0,0.0,2.3536,2.3628,2.3444,2.339,2.3866,2.516,2.4167,2.321,0.0,0.0,0.0,0.0,0.0,0.0,0.0,0.0,0.0,0.0,0.0,0.0,2.612,2.6534,0.0,0.0,0.0,0.0,0.0,0.0,2.7897,0.0,0.0,0.0,0.0,0.0,0.0,0.0,0.0,0.0,0.0,0.0,0.0,3.0703,3.1644,3.0929,2.9531,2.9019,2.835,2.7648,2.6909,0.0,0.0,2.6825,2.6691,2.6691,2.6691,2.7072,2.7299,2.6808,0.0,2.7664,2.8778,2.9007,2.9276,3.0129,3.0258,3.0047,2.9468,2.9229,2.9088,2.9071,2.8901,2.8488,2.7703,0.0,0.0,2.5824,2.5624,2.5172,2.4155,2.3509,2.3183,2.3183,2.3133,2.2844,2.2334,2.1832,2.1582,2.1603,2.0513,2.0258,2.0867,2.0207,1.9874,1.9874,1.9823,1.9798,1.9798,1.9798,2.0156,0.0,2.0696,2.104,2.153,2.153,2.153,2.153,2.153,2.153,2.153,0.0,0.0,0.0,0.0,0.0,0.0,0.0,2.3858,2.4004,2.3925,2.3754,2.4046,2.5141,2.5045,2.4861,0.0,0.0,0.0,0.0,0.0,0.0,0.0,0.0,0.0,0.0,0.0,0.0,0.0,2.6767,0.0,0.0,0.0,0.0,0.0,0.0,2.9129,2.9255,0.0,0.0,0.0,0.0,0.0,0.0,0.0,0.0,0.0,0.0,0.0,3.2414,3.2212,3.1118,2.9882,3.0227,2.9627,2.8531,0.0,2.7192,2.7686,2.7472,2.7509,2.7561,2.7459,2.796,2.8401,2.8181,2.8638,2.9288,2.9903,3.0022,3.0186,3.0737,3.0539,3.0098,2.9522,2.906,2.8752,2.8727,2.8638,2.8554,2.8506,2.8116,2.7647,0.0,0.0,2.5661,2.4893,2.4629,2.4308,2.3907,2.3454,2.2951,2.2384,2.222,2.1989,2.1645,2.1182,2.1075,2.1342,2.1062,2.0939,2.0939,2.0939,2.0939,2.0939,2.0939,2.0892,0.0,2.1186,2.1269,2.1186,2.1568,2.1697,2.1697,2.1697,2.1697,2.1697,0.0,0.0,0.0,0.0,0.0,0.0,2.3767,2.4183,2.4348,2.4294,2.4078,2.4275,2.5184,2.5834,2.6356,2.6762,0.0,0.0,0.0,0.0,0.0,0.0,0.0,0.0,0.0,0.0,0.0,0.0,0.0,0.0,0.0,0.0,2.7974,2.8107,0.0,0.0,0.0,0.0,0.0,0.0,0.0,0.0,0.0,0.0,0.0,0.0,0.0,0.0,0.0,0.0,0.0,3.0446,3.0686,3.0084,2.9013,2.7601,2.7694,2.819,2.7957,2.805,2.822,2.8244,2.867,2.9116,2.9208,2.9671,3.016,3.0456,3.0505,3.0655,3.1133,3.0858,3.0372,2.9761,2.9483,2.9261,2.8988,2.9125,2.9275,2.9375,0.0,2.8444,2.7839,2.6679,2.5797,2.5439,2.5398,2.5094,2.4433,2.3946,2.3286,2.2485,2.2544,2.2394,2.2007,2.1805,2.1805,2.1993,2.1791,2.1697,2.1697,2.1697,2.1697,2.1697,2.1697,2.1582,0.0,2.1819,2.1842,2.1667,2.2086,2.2271,2.2271,2.2271,2.2271,2.2271,0.0,0.0,0.0,0.0,0.0,0.0,0.0,2.4662,2.4723,2.4528,2.4495,2.4803,2.5604,2.6413,2.7297,2.8277,0.0,0.0,0.0,0.0,0.0,0.0,0.0,0.0,0.0,0.0,0.0,0.0,0.0,0.0,0.0,0.0,0.0,2.8696,0.0,0.0,0.0,0.0,0.0,0.0,0.0,0.0,0.0,0.0,0.0,0.0,0.0,0.0,0.0,0.0,0.0,0.0,0.0,2.9396,2.8923,2.8493,2.868,2.884,2.8112,2.805,2.8344,2.8929,2.9045,2.9105,2.9497,2.9555,2.9627,3.0016,3.0108,3.0328,3.1055,3.119,3.0995,3.0393,3.0898,3.1146,3.0566,3.1046,3.1175,0.0,3.0299,2.9481,2.7421,2.6116,2.5412,2.5398,2.5398,0.0,2.4433,2.4459,2.3925,2.2628,2.26,2.2626,2.2686,2.2016,2.2016,2.2672,2.2016,2.1697,2.1697,2.1697,2.1697,2.1697,2.1697,2.2077,0.0,2.2694,2.3031,2.3573,2.3573,2.3573,2.3573,2.3573,2.3573,2.3573,0.0,0.0,0.0,0.0,0.0,0.0,0.0,2.4339,2.4366,2.4303,2.44,2.486,2.5794,2.6779,2.7775,2.8779,0.0,0.0,0.0,0.0,0.0,0.0,0.0,0.0,0.0,0.0,0.0,0.0,0.0,0.0,0.0,0.0,0.0,0.0,2.7956,0.0,0.0,0.0,0.0,0.0,0.0,0.0,0.0,0.0,0.0,0.0,0.0,0.0,0.0,0.0,0.0,0.0,0.0,0.0,0.0,2.8143,2.8515,2.8943,2.8724,2.8505,2.8501,2.9259,2.9632,2.9993,3.0626,3.1157,3.1514,3.13,3.126,3.1252,3.1218,3.119,3.1183,3.108,3.1243,3.1377,3.127,3.1413,0.0,3.116,3.0333,2.9378,0.0,0.0,2.689,2.689,2.648,2.5929,2.5248,2.4811,2.4145,2.3249,2.3245,2.3289,2.3312,2.3106,2.3106,2.3312,2.3106,2.3002,2.3002,2.3375,2.3554,2.3554,2.3554,2.344,2.326,2.3297,2.3187,2.3046,2.3443,2.3595,2.3595,2.3595,2.3595,2.3595,0.0,0.0,0.0,0.0,0.0,0.0,0.0,2.4321,2.4321,2.4321,2.4348,2.4681,2.5454,2.6613,2.7661,2.8452,0.0,0.0,0.0,0.0,0.0,0.0,0.0,0.0,0.0,0.0,0.0,0.0,0.0,0.0,0.0,0.0,0.0,0.0,0.0,0.0,0.0,0.0,0.0,0.0,0.0,0.0,0.0,0.0,0.0,0.0,0.0,0.0,0.0,0.0,0.0,0.0,0.0,0.0,0.0,0.0,2.905,2.9391,2.9265,2.9266,2.9494,3.0291,3.0424,3.0546,3.1318,3.176,3.1932,3.164,3.1565,3.1488,3.1249,3.119,3.1227,3.1304,3.1581,3.1818,3.1899,0.0,0.0,3.1537,3.0372,0.0,0.0,2.8343,2.786,2.7625,2.7176,2.6536,2.5644,2.4963,2.4365,2.3851,2.368,2.3595,2.3595,2.3595,2.3702,2.3885,2.3885,2.4012,2.4204,2.4552,2.4697,2.4697,2.4697,2.448,0.0,2.4189,2.3981,2.367,2.4059,2.4204,2.4204,2.4204,2.4204,2.4204,0.0,0.0,0.0,0.0,0.0,0.0,0.0,0.0,0.0,0.0,2.4358,2.4384,2.4836,2.6128,2.7153,0.0,0.0,0.0,0.0,0.0,0.0,0.0,0.0,0.0,0.0,0.0,0.0,0.0,2.6455,2.5487,2.3653,0.0,0.0,0.0,0.0,0.0,0.0,0.0,0.0,0.0,0.0,0.0,0.0,0.0,0.0,0.0,0.0,0.0,0.0,0.0,0.0,0.0,0.0,0.0,0.0,0.0,0.0,0.0,0.0,3.0182,3.0891,3.1711,3.1236,3.0766,3.1579,3.147,0.0,3.119,3.119,3.1207,3.1258,3.1275,3.1309,3.141,3.2062,3.2543,0.0,3.2606,0.0,0.0,3.0524,0.0,2.9726,2.901,2.8319,2.776,2.7579,2.698,2.5793,2.504,2.4589,2.4466,2.397,2.3709,2.3709,2.3709,2.3948,2.4471,2.4471,2.4732,2.5202,2.524,2.5259,0.0,2.5259,2.5259,0.0,2.5221,2.5202,2.5202,2.5202,2.5202,2.5202,2.5202,2.5202,2.5202,0.0,0.0,0.0,0.0,0.0,0.0,0.0,0.0,0.0,0.0,2.4543,2.476,2.5623,2.6759,2.7733,0.0,0.0,0.0,0.0,0.0,0.0,0.0,0.0,0.0,0.0,0.0,0.0,2.7513,2.5373,2.4084,2.3653,2.5719,0.0,0.0,0.0,0.0,0.0,0.0,0.0,0.0,0.0,0.0,0.0,0.0,0.0,0.0,2.8304,2.8187,0.0,0.0,0.0,0.0,0.0,0.0,0.0,0.0,2.9886,3.054,3.0464,0.0,2.9978,3.0729,3.0575,3.0411,0.0,3.1271,3.119,3.119,3.119,3.136,3.1938,3.2039,3.2412,3.3541,3.3891,3.4013,3.4086,3.3677,0.0,3.313,3.1899,3.1047,3.1047,2.9919,2.9134,2.8996,2.7955,2.7216,2.693,2.5726,2.5029,2.5008,2.4891,2.4816,2.4816,2.4816,2.4891,2.5012,2.5012,2.5086,2.5221,2.5615,2.5815,2.5815,2.5815,2.5815,2.5781,2.5373,2.5202,2.5202,2.5202,2.5202,2.5202,2.5202,2.5202,2.5202,0.0,0.0,0.0,0.0,0.0,0.0,0.0,0.0,0.0,0.0,0.0,0.0,0.0,0.0,0.0,0.0,0.0,0.0,0.0,0.0,0.0,0.0,0.0,0.0,0.0,0.0,0.0,0.0,0.0,2.454,0.0,0.0,0.0,0.0,0.0,0.0,0.0,0.0,0.0,0.0,0.0,0.0,0.0,0.0,0.0,0.0,2.818,2.8018,0.0,2.7504,2.8051,2.892,0.0,0.0,0.0,0.0,3.045,3.0928,3.0928,3.1022,3.12,3.1598,3.1403,3.1207,3.1596,3.1427,3.119,3.119,3.119,3.143,3.2158,3.2293,3.2666,3.3812,3.4269,0.0,0.0,0.0,3.3808,3.3175,3.2142,3.1382,0.0,3.028,2.9566,2.8942,2.8156,2.7437,2.6826,2.5774,2.5316,2.5559,2.5577,2.5449,2.5202,2.5202,2.5316,2.5577,2.5577,2.5689,2.5908,2.6192,2.6314,2.6314,2.6314,2.6314,2.6297,2.6016,2.5892,2.5892,2.5892,2.5892,2.5892,2.5892,2.5892,2.5892,0.0,0.0,0.0,0.0,0.0,0.0,0.0,0.0,0.0,0.0,0.0,0.0,0.0,0.0,0.0,0.0,0.0,0.0,0.0,0.0,0.0,0.0,0.0,0.0,0.0,0.0,0.0,0.0,0.0,0.0,0.0,0.0,0.0,0.0,0.0,0.0,0.0,0.0,0.0,0.0,0.0,0.0,0.0,0.0,0.0,0.0,0.0,0.0,0.0,2.7517,2.82,2.918,2.918,0.0,0.0,0.0,0.0,0.0,3.1375,3.2175,3.2873,3.2752,3.251,3.2276,3.2158,3.165,3.119,3.119,3.1275,3.1579,3.2327,3.2564,3.2886,3.3626,3.4252,0.0,3.4748,3.466,3.4149,3.2943,3.2111,0.0,3.0764,3.0434,2.9798,2.8677,2.8296,2.7652,2.6486,2.5799,2.5672,2.6176,2.621,2.5982,2.5529,2.5451,2.5691,2.621,2.621,2.6436,2.689,2.689,2.689,2.689,0.0,0.0,2.6873,2.6825,2.6791,2.6791,2.6725,2.6691,2.6691,2.6691,2.6691,2.6691,0.0,0.0,0.0,0.0,0.0,0.0,0.0,0.0,0.0,0.0,0.0,0.0,0.0,0.0,0.0,0.0,0.0,0.0,0.0,0.0,0.0,0.0,0.0,0.0,0.0,0.0,0.0,0.0,0.0,0.0,2.36,2.3596,2.5422,0.0,0.0,0.0,0.0,0.0,0.0,0.0,0.0,0.0,0.0,0.0,0.0,0.0,0.0,0.0,0.0,2.784,2.8776,3.0026,3.0025,0.0,0.0,0.0,0.0,0.0,3.2181,3.2571,3.2261,3.1633,3.1896,3.2141,3.1495,3.1275,3.119,3.119,3.1701,3.2361,3.3102,3.3728,3.4387,3.5126,0.0,3.5442,0.0,0.0,3.4454,3.4208,0.0,3.2127,3.2009,3.0861,3.0056,2.9825,2.8607,2.7766,2.7577,2.6856,2.6674,2.7082,2.7098,2.7066,2.6985,2.6624,2.6691,2.7098,2.7098,2.7317,2.7725,2.7725,2.7725,2.7725,0.0,2.7725,2.7678,2.7348,2.721,2.7178,2.6824,2.6691,2.6691,2.6691,2.6691,2.6691,0.0,0.0,0.0,0.0,0.0,0.0,0.0,0.0,0.0,0.0,0.0,0.0,0.0,0.0,0.0,0.0,0.0,0.0,0.0,0.0,0.0,0.0,0.0,0.0,0.0,0.0,0.0,0.0,0.0,2.5166,2.3628,2.4754,2.6605,2.8998,0.0,0.0,0.0,0.0,0.0,0.0,0.0,0.0,0.0,0.0,0.0,0.0,0.0,0.0,0.0,0.0,2.8793,2.9629,3.0054,0.0,0.0,0.0,0.0,0.0,3.1671,3.2049,3.2053,3.2143,3.2835,3.341,3.3051,3.2662,3.2391,3.2391,3.2892,3.3536,3.4291,3.4703,3.5074,3.5531,0.0,3.5447,3.5064,3.4709,3.4201,0.0,0.0,3.2141,3.1752,3.0734,2.9939,2.9533,2.8449,2.7725,2.7535,2.7225,2.721,2.7604,2.7619,2.7619,2.7619,2.7439,2.7317,2.7303,2.7303,2.75,2.7897,2.7897,2.7897,2.7897,0.0,2.7897,2.7883,2.7692,2.7619,2.7622,2.7409,2.7348,2.7348,2.7348,2.7348,2.7348,0.0,0.0,0.0,0.0,0.0,0.0,0.0,0.0,0.0,0.0,0.0,0.0,0.0,0.0,0.0,0.0,0.0,0.0,0.0,0.0,0.0,0.0,0.0,0.0,0.0,0.0,2.7647,2.7249,2.6877,2.5644,2.3657,2.5726,2.7518,0.0,0.0,0.0,0.0,0.0,0.0,0.0,0.0,0.0,0.0,0.0,0.0,0.0,0.0,0.0,0.0,0.0,0.0,0.0,0.0,0.0,0.0,3.1011,3.0546,2.9958,3.1109,3.1562,3.188,3.2645,3.3414,3.4037,3.4201,3.3677,3.3186,3.3372,3.3861,3.4478,3.5169,3.5431,3.559,3.5647,3.5489,3.5193,3.4751,3.427,3.3622,3.259,3.2304,3.1935,3.128,3.0563,2.9811,2.9058,2.8271,2.7702,2.7444,2.7439,2.7619,2.8006,2.8024,2.8024,2.8024,2.8024,2.7865,2.7557,2.7557,2.7779,2.8161,2.8161,2.8161,2.8161,2.8161,2.8161,2.8147,2.8065,2.8024,2.8006,2.794,2.7897,2.7897,2.7897,2.7897,2.7897,0.0,0.0,0.0,0.0,0.0,0.0,0.0,0.0,0.0,0.0,0.0,0.0,0.0,0.0,0.0,0.0,0.0,0.0,0.0,0.0,0.0,0.0,0.0,0.0,0.0,2.8892,2.8858,2.8823,2.7397,2.5647,2.3637,2.5731,2.7522,2.8997,0.0,0.0,0.0,0.0,0.0,0.0,0.0,0.0,0.0,0.0,0.0,0.0,0.0,0.0,0.0,0.0,0.0,0.0,0.0,0.0,3.0308,3.1157,3.0033,2.9022,3.125,3.1607,3.1501,3.2176,3.2403,3.2649,3.3322,3.2899,3.2581,3.3271,3.399,3.464,3.5212,3.5861,3.6226,3.5921,3.5142,3.4734,3.5189,0.0,3.2576,3.2907,3.2288,3.1689,3.133,3.0637,2.9861,2.9052,2.8309,2.7879,2.7855,2.7855,2.8006,2.8337,2.835,2.835,2.835,2.835,2.8355,2.8311,2.8311,2.8527,2.8917,2.8917,2.8917,2.8917,2.8917,2.8917,2.8893,2.8515,2.835,2.8324,2.802,2.7897,2.7897,2.7897,2.7897,2.7897,0.0,0.0,0.0,0.0,0.0,0.0,0.0,0.0,0.0,0.0,0.0,0.0,0.0,0.0,0.0,0.0,0.0,0.0,0.0,0.0,0.0,0.0,0.0,2.9963,2.9008,2.9013,2.7626,2.4834,2.4262,2.4514,2.5551,2.6337,0.0,0.0,0.0,0.0,0.0,0.0,0.0,0.0,0.0,0.0,0.0,0.0,0.0,0.0,0.0,0.0,0.0,0.0,2.9207,2.9537,3.0044,2.9849,2.961,3.0411,2.9759,2.9083,3.048,3.1281,3.1905,3.2612,3.3,3.3289,3.3676,3.417,3.4675,3.5167,3.5981,3.6516,3.622,3.6398,3.6273,3.5313,3.4858,3.453,3.4264,3.3594,3.2998,3.2722,3.1985,3.1438,3.1303,3.0185,2.9319,2.9018,2.8308,2.7978,2.8197,2.821,2.8368,2.8761,2.8773,2.8773,2.8773,2.8773,2.8773,2.8773,2.8527,2.8602,2.9005,2.9005,2.9005,2.9005,2.9005,2.9005,2.8994,2.8839,2.8773,2.8761,2.8639,2.8589,2.8589,2.8589,2.8589,2.8589,0.0,0.0,0.0,0.0,0.0,0.0,0.0,0.0,0.0,0.0,0.0,0.0,0.0,0.0,0.0,0.0,0.0,0.0,0.0,0.0,0.0,0.0,0.0,3.0145,2.9464,2.8652,2.6744,2.365,2.3679,2.4707,2.6705,0.0,0.0,0.0,0.0,0.0,0.0,0.0,0.0,0.0,0.0,0.0,0.0,0.0,0.0,0.0,0.0,0.0,0.0,0.0,2.9005,2.9097,2.9647,2.9445,2.9115,2.9647,2.961,2.95,3.0063,3.1157,3.2313,3.281,3.3517,3.4166,3.4426,3.5026,3.5769,3.6514,3.7127,3.7281,3.6471,0.0,0.0,0.0,3.4551,3.4146,3.3554,3.3134,3.2641,3.2042,3.1489,3.109,3.096,3.0005,2.9267,2.902,2.8533,2.8347,2.8577,2.859,2.8725,2.8994,2.9005,2.9005,2.9005,2.8748,2.8748,2.8994,2.8452,2.8482,2.9005,2.9005,2.9005,2.9005,2.9005,2.9005,2.9005,2.9005,2.9005,2.9005,2.9005,2.9005,2.9005,2.9005,2.9005,2.9005,0.0,0.0,0.0,0.0,0.0,0.0,0.0,0.0,0.0,0.0,0.0,0.0,0.0,0.0,0.0,0.0,0.0,0.0,0.0,0.0,0.0,0.0,0.0,3.053,3.0397,2.7919,2.6628,2.6597,2.6676,2.6703,2.6734,2.8251,0.0,0.0,0.0,0.0,0.0,0.0,0.0,0.0,0.0,0.0,0.0,0.0,0.0,0.0,0.0,0.0,0.0,0.0,2.9005,2.9005,2.9005,2.9005,2.9005,2.9005,2.9567,3.021,3.0191,3.1372,3.2601,3.2601,3.383,3.5092,3.5431,3.5165,3.5297,3.6874,3.6934,3.6453,3.5642,3.5497,0.0,3.5044,3.4193,3.3501,3.3229,3.2097,3.1191,3.0862,3.0796,3.064,3.0247,3.0191,2.9849,2.906,2.9005,2.9005,2.9005,2.9005,2.9005,2.9005,2.9005,2.9005,2.8987,2.8209,2.8209,2.8987,2.8191,2.8227,2.9005,2.9005,2.9005,2.9005,2.9005,2.9005,2.9005,2.9005,2.9005,2.9005,2.9005,2.9005,2.9005,2.9005,2.9005,2.9005,0.0,0.0,0.0,0.0,0.0,0.0,0.0,0.0,0.0,0.0,0.0,0.0,0.0,0.0,0.0,0.0,0.0,0.0,0.0,0.0,0.0,0.0,0.0,0.0,0.0,0.0,2.8228,2.7523,2.6979,2.6698,0.0,0.0,0.0,2.6772,0.0,0.0,0.0,0.0,0.0,0.0,0.0,0.0,0.0,0.0,0.0,0.0,0.0,0.0,0.0,0.0,0.0,0.0,2.9278,2.9544,2.9768,2.9391,2.9728,3.0081,2.95,3.0931,3.2601,3.2601,3.427,3.6091,3.676,3.6799,3.683,3.7305,3.7327,3.6839,3.5418,3.5148,0.0,3.4257,3.3455,3.2869,3.2794,3.1978,3.1319,3.1237,3.0726,3.0325,3.0216,2.9684,2.9262,2.9023,2.9005,2.9005,2.9005,2.9005,2.9005,2.9005,2.9005,2.873,2.8154,2.8484,2.8548,2.8361,2.8566,2.8767,2.9005,2.9005,2.9005,2.9005,2.9005,2.9005,2.9005,2.9005,2.9005,2.9005,2.9005,2.9005,2.9005,2.9005,2.9005,2.9005,0.0,0.0,0.0,0.0,0.0,0.0,0.0,0.0,0.0,0.0,0.0,0.0,0.0,0.0,0.0,0.0,0.0,0.0,0.0,0.0,0.0,0.0,0.0,0.0,0.0,2.9092,2.8393,0.0,0.0,0.0,0.0,0.0,0.0,2.6761,0.0,2.8514,0.0,0.0,0.0,0.0,3.0176,3.0243,3.0283,0.0,0.0,0.0,0.0,0.0,0.0,0.0,0.0,0.0,2.9523,2.9741,3.002,3.0036,3.0489,3.0957,3.0782,3.2288,3.3998,3.4314,3.577,3.7257,3.7713,3.7899,3.7834,3.7298,3.7098,3.6597,3.5261,3.4747,0.0,3.388,3.3128,3.2491,3.2173,3.1421,3.0797,3.0485,3.0113,2.9887,2.9887,2.9524,2.9272,2.9272,2.9272,2.9272,2.9272,2.9272,2.9272,2.9272,2.8938,2.8697,2.855,2.8381,2.8453,2.8736,2.8779,2.8967,2.9272,2.91,2.9055,2.9149,2.9249,2.9228,2.9167,2.9167,2.9089,2.9017,2.9123,2.9167,2.9167,2.9167,2.9214,2.9241,0.0,0.0,0.0,0.0,0.0,0.0,0.0,0.0,0.0,0.0,0.0,0.0,0.0,0.0,0.0,0.0,0.0,0.0,0.0,0.0,0.0,0.0,0.0,0.0,0.0,0.0,0.0,0.0,0.0,0.0,0.0,0.0,2.6669,2.6778,0.0,2.7606,0.0,0.0,0.0,0.0,2.9354,2.9574,2.9643,3.0163,0.0,0.0,0.0,0.0,0.0,0.0,0.0,0.0,2.9887,2.989,3.0072,3.0814,3.158,3.2383,3.3185,3.4564,3.6008,3.6885,3.7772,3.8365,3.8252,3.8404,3.8188,3.6905,3.6438,3.5998,3.5138,3.4378,3.3863,3.3789,3.3077,3.228,3.147,3.0661,2.9876,2.914,2.9289,2.9424,2.9424,2.9598,2.9705,2.9705,2.9705,2.9705,2.9705,2.9705,2.9667,2.9592,2.881,2.8716,2.9365,2.7913,2.794,2.9372,2.8776,2.889,2.9609,2.9225,2.9192,2.9434,2.9626,2.9598,2.9424,2.9424,2.927,2.91,2.9322,2.9424,2.9424,2.9424,2.9533,2.9643,0.0,0.0,0.0,0.0,0.0,0.0,0.0,0.0,0.0,0.0,0.0,0.0,0.0,0.0,0.0,0.0,0.0,0.0,0.0,0.0,0.0,0.0,0.0,0.0,0.0,0.0,0.0,0.0,0.0,0.0,0.0,0.0,0.0,2.713,0.0,2.6488,0.0,0.0,0.0,2.7184,2.8098,2.8566,2.8858,2.9755,3.0209,0.0,0.0,0.0,0.0,0.0,0.0,0.0,3.1303,3.1363,3.1608,3.1314,3.1695,3.2392,3.3252,3.4187,3.533,3.6804,3.7742,3.8199,3.7774,3.7546,3.7171,3.625,3.604,3.5732,3.4918,3.4617,3.428,3.3602,3.2806,3.1991,3.1127,3.0311,2.973,2.957,2.9598,2.9644,2.9644,2.967,2.9705,2.9705,2.9705,2.9705,2.9705,2.9705,2.9394,2.8697,2.85,2.7878,2.6814,2.7051,2.7146,0.0,2.7974,2.8626,2.9,2.9377,2.9579,2.9653,2.9678,2.9678,2.9644,2.9644,2.9598,2.9551,2.9607,2.9644,2.9644,2.9644,2.9661,2.9687,0.0,0.0,0.0,0.0,0.0,0.0,0.0,0.0,0.0,0.0,0.0,0.0,0.0,0.0,0.0,0.0,0.0,0.0,0.0,0.0,2.2617,0.0,0.0,0.0,0.0,0.0,0.0,0.0,0.0,0.0,0.0,0.0,0.0,2.6985,0.0,2.6493,0.0,0.0,2.6571,2.645,2.7495,2.8157,2.862,2.9616,3.0176,3.0396,3.0436,0.0,0.0,0.0,0.0,0.0,0.0,0.0,3.1988,3.1648,3.2026,3.2771,3.3608,3.5034,3.659,3.7869,3.8499,3.8489,3.7362,3.6998,3.668,3.587,3.5817,3.5654,3.4845,3.4363,3.3938,3.3466,3.2373,3.1412,3.0969,3.0205,2.9554,2.913,2.9534,2.9693,2.9314,2.973,3.003,3.003,3.003,3.003,3.003,3.003,2.9629,2.8753,2.8353,2.7762,2.6924,2.691,2.7154,2.7648,2.8388,2.9037,2.9564,2.9768,2.9845,2.9853,2.9992,2.9958,2.9845,2.9845,2.978,2.9713,2.9804,2.9845,2.9845,2.9845,2.9927,3.0,0.0,0.0,0.0,0.0,0.0,0.0,0.0,0.0,0.0,0.0,0.0,0.0,0.0,0.0,0.0,0.0,0.0,0.0,0.0,2.1374,2.2757,2.5507,0.0,0.0,0.0,0.0,0.0,0.0,0.0,0.0,0.0,0.0,0.0,2.6808,0.0,0.0,0.0,2.6302,2.6132,2.5888,2.6988,2.7796,2.8466,2.9546,3.0109,3.0329,3.0408,3.0559,3.0847,3.1592,0.0,0.0,0.0,0.0,3.1881,3.1833,3.2279,3.3026,3.3983,3.5971,3.8005,3.8861,3.895,3.8469,3.7019,3.6596,3.6308,3.5635,3.5683,3.5589,3.4766,3.4018,3.344,3.3147,3.1936,3.0999,3.082,3.0118,2.9323,2.8604,2.9174,2.9388,2.8701,2.9563,3.0173,3.0173,3.0308,3.0327,3.0173,3.0173,2.9717,2.8703,2.803,2.7601,2.7448,2.6736,2.7063,2.8453,2.8742,2.9429,3.0398,3.001,2.9942,3.0082,3.0305,3.0267,3.0075,3.0075,2.9981,2.984,2.9991,3.0075,3.0075,3.0075,3.0209,3.0349,0.0,0.0,0.0,0.0,0.0,0.0,0.0,0.0,0.0,0.0,0.0,1.9346,2.0282,2.0764,0.0,0.0,0.0,0.0,2.1491,0.0,0.0,0.0,0.0,0.0,0.0,0.0,0.0,0.0,0.0,2.7582,2.875,2.6708,2.6276,2.7156,0.0,0.0,0.0,2.4908,2.4597,2.4637,2.5841,2.6874,2.7869,2.9213,2.9869,3.0084,3.0374,3.1018,3.1737,3.1913,3.2475,0.0,0.0,0.0,3.19,3.1887,3.1961,3.2382,3.3946,3.5636,3.7165,3.7966,3.7603,3.6981,3.675,3.6154,3.5635,0.0,3.5535,3.5288,3.4431,3.4169,3.3625,3.216,3.1738,3.1335,3.0567,2.9729,2.914,2.9025,2.8524,2.8151,2.8036,2.8783,2.928,2.928,2.9962,3.0077,2.9319,2.928,2.8544,2.6986,2.6832,2.6409,2.5654,2.5538,2.5596,2.5827,2.7332,2.8871,3.0365,2.9579,2.9625,3.0355,3.0373,3.0373,3.0349,3.0349,3.0336,3.0305,3.0343,3.0349,3.0349,3.0349,3.0367,3.0398,0.0,0.0,0.0,0.0,0.0,0.0,0.0,0.0,0.0,0.0,0.0,1.8925,2.0162,2.0483,0.0,0.0,0.0,0.0,2.0549,2.1133,0.0,0.0,0.0,0.0,0.0,0.0,0.0,0.0,2.6854,2.7286,2.9071,2.7577,2.7642,2.891,2.73,2.6559,0.0,2.5013,2.4528,2.4737,2.5297,2.6639,2.8334,2.8952,2.9823,3.0681,3.0337,3.0636,3.1257,3.1778,3.2271,3.263,3.2221,0.0,0.0,0.0,3.1573,3.2416,3.4545,3.5647,3.64,3.7225,3.7156,3.6728,3.6205,3.5821,3.554,3.5501,3.5522,3.5276,3.4372,3.3801,3.3083,3.1891,3.1288,3.0846,3.0442,3.0077,2.964,2.9165,2.88,2.8396,2.7934,2.8222,2.8434,2.8434,2.9198,2.9313,2.8472,2.8857,2.8338,2.6659,2.6601,2.6173,2.5308,2.5308,2.5788,2.6774,2.7986,2.9217,3.0365,2.9025,2.914,3.0365,2.989,2.9948,3.0404,3.0404,3.0404,3.0404,3.0404,3.0404,3.0404,3.0404,3.0404,3.0404,0.0,0.0,0.0,0.0,0.0,0.0,0.0,0.0,0.0,0.0,0.0,0.0,1.9974,0.0,0.0,0.0,0.0,0.0,1.9874,0.0,0.0,0.0,0.0,0.0,0.0,0.0,0.0,0.0,2.6545,2.7241,2.9435,2.8393,2.9087,3.1097,2.914,2.7927,2.7263,2.5712,2.5188,2.5446,2.5591,2.6892,2.8764,2.921,3.015,3.1163,3.054,3.0554,0.0,0.0,3.1703,3.1875,3.1875,3.1875,0.0,0.0,0.0,3.213,3.4187,3.4759,3.5016,3.6089,3.6354,3.6239,3.5736,3.5621,3.5611,0.0,3.559,3.5282,3.4152,3.3406,3.2611,3.1565,3.0837,3.0416,3.0417,3.023,2.986,2.925,2.8985,2.8599,2.8005,2.7957,2.7952,2.7952,2.8507,2.8488,2.7658,2.8198,2.7832,2.6369,2.6299,2.6092,2.5663,2.5861,2.6717,2.8203,2.8819,2.9563,3.0346,2.8871,2.9006,3.0346,2.9486,2.9583,3.0404,3.0404,3.0404,3.0404,3.0404,3.0404,3.0404,3.0404,3.0404,3.0404,0.0,0.0,0.0,0.0,0.0,0.0,0.0,0.0,0.0,0.0,0.0,0.0,0.0,0.0,0.0,0.0,0.0,0.0,0.0,0.0,0.0,0.0,0.0,0.0,0.0,0.0,0.0,2.7228,2.6642,2.7774,3.0387,2.8697,2.9942,3.3492,3.0735,2.8688,2.727,2.6788,2.6589,2.6656,2.7026,2.7681,2.8621,3.0342,3.1028,3.1126,3.121,0.0,0.0,0.0,0.0,0.0,3.0976,3.0976,3.0937,0.0,0.0,0.0,3.1855,3.2132,3.258,3.4215,3.4627,3.4821,3.5521,3.5696,3.5696,3.5693,3.5693,3.5191,3.355,3.3168,3.2536,3.0843,3.046,3.0417,3.0495,2.9778,2.9296,2.9365,2.8663,2.8145,2.8087,2.809,2.8082,2.8082,2.8129,2.7773,2.6904,2.6904,2.6498,2.5598,2.5506,2.5844,2.6625,2.7374,2.8184,2.905,2.9088,2.9563,3.0365,2.9448,2.9544,3.0346,2.9486,2.9583,3.0404,3.0404,3.0404,3.0404,3.0404,3.0404,3.0404,3.0404,3.0404,3.0404,0.0,0.0,0.0,0.0,0.0,0.0,0.0,0.0,0.0,0.0,0.0,0.0,0.0,0.0,0.0,0.0,0.0,0.0,0.0,0.0,0.0,0.0,0.0,0.0,0.0,0.0,0.0,2.6553,2.5764,2.6879,2.9702,2.8552,2.9263,3.142,2.9893,2.9359,2.9486,2.7575,2.6883,2.7099,2.7241,2.8064,2.9224,2.9851,3.0662,3.1452,3.1244,0.0,0.0,0.0,0.0,0.0,3.077,3.0762,3.0745,3.0661,3.0643,3.0825,3.167,3.1921,3.2208,3.3371,3.4121,3.4626,3.4865,3.5408,3.5805,3.5717,3.5316,3.4642,3.347,3.3203,3.2585,3.0853,3.0548,3.0537,3.0554,3.0309,3.0128,3.0155,2.9447,2.8924,2.8924,2.844,2.8109,2.8109,2.8624,2.8543,2.7675,2.7629,2.7493,2.7177,2.6607,2.6726,2.7584,2.844,2.9004,2.9291,2.8681,2.9124,3.0409,2.8394,2.8563,3.0346,2.9486,2.9583,3.0404,3.0404,3.0404,3.0404,3.0404,3.0404,3.0404,3.0404,3.0404,3.0404,0.0,0.0,0.0,0.0,0.0,0.0,0.0,0.0,0.0,0.0,0.0,0.0,0.0,0.0,0.0,0.0,0.0,0.0,0.0,0.0,0.0,0.0,0.0,0.0,0.0,0.0,0.0,0.0,2.5759,2.6733,2.8699,2.8585,2.9018,2.9856,2.8995,2.9223,3.0119,2.8166,2.7402,2.7495,2.7753,2.8475,2.9455,3.0041,3.0883,3.1713,0.0,0.0,0.0,0.0,0.0,0.0,3.0758,3.0488,3.0215,3.0189,3.0348,3.0701,3.1268,3.1446,3.174,3.2911,3.3458,3.3906,3.4711,3.5174,3.5486,3.5718,3.5142,3.4349,3.3481,3.3088,3.2361,3.0879,3.06,3.0614,3.0638,3.0621,3.065,3.0706,3.0225,2.9895,2.9895,2.912,2.8595,2.8595,2.8863,0.0,2.8203,2.7885,2.772,2.7694,2.7416,2.768,2.852,2.9388,2.9791,2.9791,2.9175,2.9454,3.0475,2.8724,2.8878,3.0434,2.9839,2.9906,3.0404,3.0404,3.0404,3.0404,3.0404,3.0404,3.0404,3.0404,3.0404,3.0404,0.0,0.0,0.0,0.0,0.0,0.0,0.0,0.0,0.0,0.0,0.0,0.0,0.0,0.0,0.0,0.0,0.0,0.0,0.0,0.0,0.0,0.0,0.0,0.0,0.0,0.0,0.0,0.0,0.0,0.0,0.0,0.0,2.9326,2.9209,2.8246,2.8208,2.888,2.85,2.8132,2.7893,2.8655,2.8994,2.9252,0.0,3.179,0.0,3.2209,3.2354,0.0,3.2557,0.0,0.0,0.0,3.0095,2.9335,2.9329,2.9896,3.0498,0.0,0.0,0.0,3.2681,3.2493,3.2535,3.5022,3.5006,3.4723,3.5639,3.5121,3.4273,3.3495,3.2695,3.1854,3.0899,3.0676,3.0636,3.0731,3.0735,3.0806,3.0957,3.0976,3.0976,3.0976,3.0195,2.9687,2.9687,2.8867,2.8379,2.8379,2.7578,2.7068,2.6972,2.7826,2.8645,2.9432,3.0225,3.0611,3.0611,3.0589,3.0589,3.0609,3.0547,3.0544,3.0603,3.0564,3.0498,3.0416,3.0416,3.0416,3.0416,3.0416,3.0396,3.039,3.039,3.041,3.0404,0.0,0.0,0.0,0.0,0.0,0.0,1.5302,1.6013,0.0,0.0,0.0,0.0,0.0,0.0,0.0,0.0,0.0,0.0,0.0,0.0,0.0,2.2572,2.3236,2.4238,0.0,0.0,0.0,0.0,0.0,0.0,0.0,0.0,2.8502,2.8198,2.7912,2.745,2.6831,2.6749,2.7472,2.8617,2.8001,2.8766,0.0,0.0,0.0,0.0,0.0,3.2675,3.2391,0.0,3.2613,3.2213,0.0,0.0,3.0238,3.0244,3.0365,3.0498,3.0498,0.0,0.0,0.0,0.0,0.0,0.0,3.3222,3.3657,3.3968,3.3331,3.2651,3.2426,3.1775,3.1347,3.1597,3.1171,3.1048,3.1697,3.1795,3.201,3.2637,3.2715,3.2715,3.2715,3.1953,3.1484,0.0,3.0664,3.0176,3.0176,2.9941,2.9511,2.8866,2.9705,3.025,3.048,3.0714,3.0811,3.0811,3.0129,3.0115,3.0636,2.9365,2.9455,3.0564,2.9938,3.0008,3.0548,3.0548,3.0548,3.0548,3.0548,3.052,3.0467,3.0467,3.0441,3.0404,0.0,0.0,0.0,0.0,0.0,1.7082,1.5927,1.668,1.7354,0.0,0.0,0.0,0.0,0.0,0.0,0.0,0.0,0.0,0.0,0.0,2.2071,2.2506,2.346,2.4569,2.5855,0.0,0.0,0.0,0.0,0.0,0.0,0.0,0.0,2.6923,2.7187,2.6717,2.5728,2.5276,2.6228,2.802,2.7825,0.0,0.0,3.0832,3.1597,0.0,0.0,0.0,3.2757,3.3302,3.3091,0.0,0.0,3.0905,3.0527,3.0169,3.0289,3.0548,3.0548,3.052,0.0,0.0,0.0,0.0,3.2111,3.243,3.2707,0.0,3.2519,3.1924,3.1952,3.1313,3.1027,3.1839,3.1602,3.1646,3.2578,3.2695,3.2871,3.334,3.3398,3.3398,3.3398,3.2988,3.2695,3.2695,3.1914,3.1113,3.0391,3.0351,3.0117,2.9629,3.0098,3.0527,3.0898,3.0898,3.0898,3.0898,3.0348,3.0324,3.0752,2.974,2.9806,3.0702,3.0193,3.0251,3.0721,3.0721,3.0676,3.0603,3.0603,3.0575,3.0548,3.0548,3.0524,3.0482,0.0,0.0,1.8569,1.672,1.7071,1.7423,1.6865,1.7189,1.7496,0.0,0.0,0.0,0.0,0.0,0.0,0.0,0.0,0.0,0.0,0.0,2.2667,2.2133,2.3715,2.5002,2.5819,2.6298,0.0,0.0,0.0,0.0,0.0,0.0,0.0,0.0,2.6356,2.6098,2.5217,2.4327,2.4998,2.6774,2.7696,2.8926,0.0,0.0,3.1625,3.243,3.2853,3.2987,3.3103,3.3827,3.3308,0.0,0.0,3.0494,3.0518,2.9663,3.0047,0.0,3.0621,3.0575,0.0,3.1472,3.1067,0.0,3.2316,3.2045,3.1742,0.0,3.214,3.1598,3.1665,3.1041,3.0805,3.1669,3.1886,3.2322,3.3373,3.3514,3.3553,3.3671,3.3769,3.3789,3.3691,3.3691,3.3652,3.3555,3.2715,3.1523,2.9961,2.9805,2.9746,2.9746,2.9746,3.0117,3.0898,3.0898,3.0898,3.0898,3.0898,3.0898,3.0898,3.0801,3.0762,3.0762,3.0762,3.0762,3.0762,3.0859,3.0786,3.0628,3.0628,3.0625,3.0617,3.0617,3.0611,3.0603,0.0,0.0,1.9718,1.6948,1.8143,1.9403,1.9182,1.8871,1.8685,1.8685,0.0,0.0,0.0,0.0,0.0,0.0,0.0,0.0,0.0,0.0,2.2039,2.2768,2.4059,2.5355,2.6628,2.7589,2.8533,0.0,0.0,0.0,0.0,0.0,0.0,0.0,2.656,2.5786,2.4482,2.5237,2.5957,2.659,2.6223,2.7738,3.0176,3.0001,3.0631,3.1631,3.1715,3.1754,3.1897,3.2899,3.223,3.1092,0.0,3.1572,3.1091,3.0331,3.0791,3.1417,3.0717,3.0488,3.0499,3.0698,0.0,0.0,3.0877,3.0629,3.0405,0.0,3.0458,3.0196,3.0216,3.0108,3.0307,3.1111,3.1838,3.2774,3.4107,3.4283,3.4579,3.5324,3.6031,3.6198,3.5566,3.5488,3.5195,3.4492,3.3047,3.2051,3.1719,3.1035,3.0644,3.0644,3.0644,3.0723,3.0898,3.0898,3.0898,3.0898,3.0898,3.0898,3.0879,3.0176,2.9844,2.9844,2.9844,2.9844,2.9902,3.0605,3.0878,3.0835,3.0835,3.0786,3.0682,3.0682,3.0655,3.0603,0.0,1.9859,2.0669,1.8468,1.9102,1.9874,1.982,1.9573,1.9522,0.0,0.0,0.0,0.0,0.0,0.0,0.0,0.0,0.0,0.0,0.0,2.2562,2.3088,2.4532,2.5994,2.7325,2.797,2.8803,0.0,0.0,0.0,0.0,0.0,0.0,2.72,2.72,2.6539,2.5446,2.6038,2.6536,2.6895,2.6925,0.0,3.0184,2.9971,3.0514,3.1397,3.1397,3.1397,3.1477,3.2022,3.176,0.0,0.0,3.1737,3.1813,0.0,3.1321,3.2204,3.0908,3.1161,3.1594,3.0721,0.0,0.0,0.0,3.0373,3.0273,3.0335,3.0231,3.0061,2.9913,2.9931,3.0187,3.092,3.1424,3.2087,3.3199,3.4254,3.5275,3.6337,3.6832,3.7132,3.7193,3.6806,3.603,3.4785,3.3926,3.3086,3.2246,3.1797,3.1348,3.0918,3.0898,3.0898,3.0898,3.0898,3.0898,3.0898,3.0898,3.0898,3.0898,3.0449,3.0254,3.0254,3.0254,3.0254,3.0273,3.0723,3.0898,3.0898,3.0898,3.0858,3.0794,3.0794,3.0786,3.0752,1.7583,1.9838,2.1538,2.0602,2.0281,2.0132,2.006,1.9915,2.0012,0.0,0.0,0.0,0.0,0.0,0.0,0.0,0.0,0.0,0.0,0.0,2.3275,2.3483,2.5078,2.6571,2.7865,2.819,2.8774,2.9634,0.0,0.0,0.0,2.9435,2.8884,2.8095,2.7893,2.7438,2.6833,2.6833,2.702,2.7387,0.0,2.9052,2.9869,2.9947,3.0375,3.0944,3.0944,3.0962,3.1029,3.1134,3.1209,3.1165,3.0686,3.1372,0.0,0.0,0.0,0.0,0.0,0.0,0.0,0.0,0.0,3.1423,0.0,0.0,0.0,3.0464,3.0372,0.0,0.0,0.0,0.0,0.0,0.0,0.0,0.0,3.3757,0.0,3.6295,3.6907,3.7462,3.8061,3.7481,3.6466,3.4993,3.4763,3.4081,3.2733,3.2363,3.1875,3.1172,3.0996,3.0898,3.0898,3.0898,3.0898,3.0898,3.0898,3.0801,3.0664,3.082,3.0723,3.043,3.0742,3.0801,3.0664,3.082,3.0898,3.0898,3.0898,3.0898,3.0898,3.0898,3.0898,3.0898,2.0649,2.1718,2.2425,2.3045,2.2226,2.1349,2.0997,2.0309,2.0012,0.0,0.0,0.0,0.0,0.0,0.0,0.0,0.0,0.0,2.1407,0.0,2.3227,2.4471,2.5643,2.6887,2.8206,2.8913,2.9311,2.9434,0.0,0.0,0.0,2.9259,2.9112,2.9184,2.822,2.7761,2.7669,2.7669,2.7684,2.7798,2.8611,2.8804,0.0,2.9009,2.9189,2.9262,2.9262,2.9433,2.971,0.0,2.9885,2.943,0.0,3.0675,3.0999,3.0036,0.0,0.0,0.0,0.0,0.0,0.0,3.0389,0.0,0.0,0.0,3.0244,3.0307,0.0,0.0,0.0,0.0,0.0,0.0,0.0,0.0,3.1702,3.2873,3.3802,3.4289,3.6547,3.7822,3.7225,3.7069,3.6628,3.5654,3.4987,3.4521,3.4345,3.2965,3.2148,3.2051,3.1309,3.0898,3.0898,3.0898,3.0898,3.0898,3.0898,3.0508,2.9766,3.0547,3.0059,2.8672,3.0234,3.0469,2.9805,3.0586,3.0898,3.0898,3.0898,3.0898,3.0898,3.0898,3.0898,3.0898,2.1277,2.2432,2.3177,2.3539,2.2777,2.1876,2.1209,2.0901,2.0865,0.0,0.0,0.0,0.0,0.0,0.0,0.0,0.0,2.2155,0.0,0.0,0.0,2.5922,2.6568,2.7572,2.9013,2.9142,2.9235,2.9402,2.9402,0.0,0.0,0.0,2.9405,2.9402,2.9418,2.9352,2.9182,2.9182,2.9285,2.9402,0.0,2.9201,0.0,2.903,2.9089,2.9246,2.9357,2.9475,2.9589,0.0,2.9502,0.0,0.0,0.0,0.0,2.9959,0.0,0.0,0.0,0.0,0.0,0.0,0.0,0.0,3.045,0.0,3.0385,0.0,0.0,0.0,0.0,0.0,0.0,0.0,2.9377,0.0,0.0,0.0,3.2841,0.0,0.0,0.0,3.6742,3.6897,3.6637,3.5765,3.548,3.5139,3.4632,3.3999,3.3203,3.2226,3.1855,3.1406,3.0898,3.0898,3.0898,3.0898,3.0898,3.0449,2.9629,3.0508,3.0215,2.9121,3.0351,3.0684,3.0371,3.0742,3.0898,3.0898,3.0898,3.0898,3.0898,3.0898,3.0898,3.0898,2.0976,2.2393,2.3407,2.3569,2.2995,2.2206,2.1355,2.1509,2.1707,2.1707,2.2196,0.0,2.2506,2.2184,0.0,0.0,2.3318,2.3404,0.0,0.0,2.5656,2.7227,2.7512,2.8301,2.9719,2.9471,2.9321,2.9289,2.9361,2.9504,0.0,0.0,2.9775,2.9945,3.0396,3.0605,3.0653,3.0646,3.0613,3.0557,3.0034,2.9777,2.967,2.9324,2.9345,2.957,2.967,2.9748,2.9729,2.9503,2.9402,0.0,2.9078,0.0,0.0,0.0,0.0,0.0,3.0258,0.0,0.0,0.0,0.0,0.0,0.0,0.0,0.0,0.0,0.0,0.0,0.0,0.0,0.0,0.0,0.0,2.9409,0.0,3.057,0.0,0.0,0.0,0.0,0.0,3.6675,3.6581,3.6021,3.6099,3.5916,3.5288,3.5101,3.4373,3.293,3.2441,3.1894,3.1269,3.1016,3.0898,3.0898,3.0898,3.0449,2.9629,3.0508,3.043,2.9648,3.0487,3.0857,3.0838,3.0833,3.0811,3.0812,3.0836,3.0836,3.0813,3.0878,3.0898,3.0898,2.0018,2.1532,2.2918,2.349,2.3098,2.2442,2.1688,2.1988,2.2255,2.2255,0.0,0.0,0.0,0.0,0.0,0.0,0.0,2.5478,2.6351,0.0,2.7006,2.8291,2.8412,2.8973,3.007,3.0124,2.9787,2.9017,2.9267,2.9504,0.0,0.0,0.0,3.1221,3.0799,3.103,3.1745,3.1752,3.1305,3.0615,3.0847,3.0458,2.9705,0.0,2.9804,2.9962,2.9763,0.0,0.0,2.9542,2.9402,0.0,0.0,0.0,0.0,0.0,0.0,0.0,0.0,0.0,0.0,2.9912,0.0,0.0,0.0,0.0,3.1777,0.0,0.0,0.0,0.0,0.0,0.0,0.0,0.0,0.0,0.0,0.0,0.0,0.0,0.0,0.0,0.0,3.6322,3.6414,0.0,3.6791,3.6871,3.6915,3.6253,3.5487,3.4648,3.3047,3.2187,3.2168,3.1328,3.0898,3.0898,3.0898,3.0449,2.9629,3.0508,3.043,2.9648,3.0377,3.0716,3.0693,3.0641,3.0611,3.062,3.068,3.0669,3.0628,3.0833,3.0898,3.0879,2.0515,2.2077,2.3355,2.3565,2.3421,2.3186,2.2838,2.2948,2.2987,0.0,2.2995,0.0,0.0,2.3884,2.4429,0.0,0.0,2.6479,2.7623,2.736,0.0,3.0368,2.9612,2.9915,3.159,3.1197,3.0691,3.0064,3.0279,3.0224,2.9901,0.0,0.0,0.0,3.0888,3.1337,3.1804,3.1989,3.22,0.0,0.0,3.1298,3.0932,0.0,2.9947,3.0013,3.0115,3.0215,0.0,2.9739,2.9598,2.9533,2.9127,2.9171,2.9402,2.9402,2.9494,0.0,0.0,0.0,2.9625,2.9763,0.0,0.0,0.0,0.0,0.0,0.0,0.0,0.0,0.0,0.0,0.0,0.0,0.0,0.0,0.0,0.0,0.0,0.0,0.0,0.0,0.0,0.0,0.0,0.0,3.686,0.0,3.6996,3.6898,3.6169,3.4746,3.3594,3.2734,3.2207,3.1348,3.0898,3.0898,3.0898,3.0137,2.8789,3.0234,3.0117,2.8828,3.0213,3.0837,3.0816,3.071,3.0671,3.0669,3.0631,3.0628,3.0617,3.0734,3.0737,3.0784,2.0816,2.2359,2.3595,2.3595,2.377,2.3961,2.4123,2.4122,2.4056,0.0,2.393,0.0,2.4624,0.0,2.5223,0.0,2.6736,2.7243,2.8343,2.8294,0.0,3.1062,3.0678,3.1042,3.2366,3.2234,3.163,3.0613,3.0894,3.0685,3.0006,0.0,0.0,0.0,3.1241,3.1846,3.2107,3.2893,3.3175,0.0,0.0,3.1231,0.0,0.0,3.0143,3.0157,0.0,3.0404,3.0343,2.9943,2.9754,2.9634,2.9259,2.9007,2.8841,2.8841,2.8762,2.8714,2.8793,2.881,0.0,2.9015,2.9315,0.0,2.9651,0.0,0.0,0.0,0.0,0.0,0.0,0.0,0.0,0.0,0.0,0.0,0.0,3.2368,0.0,0.0,0.0,0.0,0.0,0.0,3.5673,3.707,3.7276,0.0,0.0,3.7722,3.7015,3.5599,3.4452,3.3457,3.2594,3.1735,3.1126,3.0785,3.0785,3.02,2.9164,3.0278,3.018,2.9182,3.0285,3.0768,3.0746,3.065,3.06,3.0597,3.0571,3.0556,3.0541,3.0641,3.0825,3.116,2.0969,2.2446,2.3714,2.3744,2.4233,0.0,0.0,0.0,2.5425,0.0,2.5398,2.5398,2.5453,2.5453,2.6021,2.7373,2.7541,2.7856,2.854,2.919,0.0,0.0,3.1521,3.2176,3.2454,3.3179,3.2637,3.0745,3.1166,3.0917,3.0097,3.0292,0.0,0.0,3.1812,0.0,3.261,3.4285,3.4064,3.247,3.1047,3.0462,3.0462,3.0423,3.0404,3.0404,3.0404,3.0404,3.0361,3.0018,2.9823,2.9642,2.9342,2.8585,2.7798,2.7754,2.7362,2.6962,2.7156,2.7223,2.7347,2.7798,0.0,0.0,0.0,0.0,3.1602,0.0,0.0,0.0,0.0,0.0,0.0,0.0,0.0,0.0,0.0,0.0,0.0,0.0,0.0,0.0,0.0,3.4944,3.5903,3.7858,3.8015,3.842,0.0,3.8694,3.7923,3.7119,3.5539,3.4234,3.3292,3.2431,3.1529,3.0603,3.0603,3.0583,3.0544,3.0583,3.0583,3.0522,3.0514,3.0507,3.0498,3.0419,3.0396,3.0408,3.0467,3.0472,3.0477,3.0564,3.1138,3.1956,2.2062,2.3777,2.5241,0.0,2.5949,2.5933,0.0,0.0,0.0,0.0,2.5398,2.5618,2.6149,2.6229,2.6594,2.7476,2.8017,0.0,0.0,0.0,0.0,3.1174,3.1348,3.2026,3.3247,3.4012,3.3826,3.2679,3.2355,3.1874,3.1252,0.0,0.0,0.0,0.0,3.1522,3.2542,3.3197,3.3568,3.362,3.2007,3.1371,3.1288,0.0,3.0404,3.0404,3.0404,3.0404,3.0247,2.922,2.9244,2.9427,2.7812,2.754,2.7702,2.7253,2.713,2.7175,2.7376,2.7567,2.775,2.7874,2.8016,2.8307,0.0,0.0,0.0,0.0,0.0,0.0,0.0,0.0,0.0,0.0,0.0,0.0,0.0,0.0,0.0,3.4431,0.0,0.0,0.0,3.4944,3.5903,3.7858,3.8087,0.0,0.0,0.0,3.7909,3.7053,3.5419,3.4118,3.3226,3.2366,3.1479,3.0603,3.0603,3.025,2.9663,3.0311,3.025,2.966,3.0306,3.0571,3.0565,3.0503,3.0472,3.0463,3.0436,3.0804,3.1281,3.0681,3.1361,3.2644,2.2487,2.4486,2.6153,2.6527,0.0,0.0,2.6476,2.6748,0.0,2.6428,2.6375,0.0,2.693,2.6982,2.7152,2.756,2.7959,0.0,2.8536,0.0,0.0,3.138,3.163,3.224,3.3317,3.4036,0.0,3.3093,0.0,0.0,3.1679,0.0,0.0,0.0,0.0,3.1924,3.2678,3.2846,3.3115,3.3314,3.1757,3.1135,0.0,3.0596,3.0404,3.0404,3.0404,3.0404,3.0188,2.8726,2.87,2.9031,2.7479,2.7009,2.6953,2.6606,2.6384,2.6257,2.6377,2.6583,2.6755,2.6755,2.7044,2.7448,2.789,2.8299,2.8953,0.0,0.0,0.0,0.0,0.0,0.0,0.0,0.0,0.0,0.0,0.0,0.0,0.0,3.4753,0.0,0.0,3.5113,3.6025,3.7865,3.8073,0.0,0.0,0.0,3.7985,3.7491,3.5542,3.4072,3.318,3.2283,3.1402,3.0516,3.0516,3.026,2.9806,3.0298,3.024,2.9806,3.0298,3.0516,3.0511,3.0463,3.0452,3.0486,3.0824,3.1269,3.1679,3.1538,3.2333,3.3526,2.302,2.5184,0.0,0.0,0.0,0.0,0.0,2.76,0.0,2.76,0.0,2.76,2.76,2.76,2.7625,2.771,0.0,2.7968,2.8583,2.915,3.0014,3.1215,3.1901,3.2457,3.2827,3.3607,3.3621,0.0,0.0,0.0,0.0,0.0,0.0,0.0,0.0,0.0,0.0,3.2737,3.2607,3.2283,3.0938,3.0404,3.0404,3.0404,3.0404,3.0385,3.0269,3.0231,3.0,2.8393,2.8191,2.8455,2.7456,2.6626,2.5985,2.5884,2.546,2.501,2.5028,2.5163,2.5308,2.5308,2.5865,2.6467,2.6563,2.7198,2.7948,2.8739,2.9592,3.0237,0.0,0.0,0.0,0.0,0.0,0.0,0.0,0.0,0.0,0.0,0.0,0.0,0.0,0.0,0.0,0.0,0.0,0.0,0.0,0.0,3.8088,3.8088,3.5847,3.4136,3.3088,3.2314,3.1419,3.0404,3.0404,3.0404,3.0404,3.0404,3.0404,3.0404,3.0404,3.0404,3.0404,3.0404,3.0404,3.0481,3.1365,3.1756,3.1968,3.2776,3.3622,3.4449,2.5575,2.7195,0.0,0.0,0.0,2.76,2.76,2.76,2.76,2.76,2.76,2.76,2.76,2.76,2.781,2.831,2.8343,0.0,0.0,0.0,0.0,3.0453,3.1188,3.1712,3.1996,3.3322,3.3923,0.0,0.0,0.0,0.0,0.0,0.0,0.0,0.0,0.0,3.191,3.191,0.0,3.1764,3.0796,3.0404,3.0404,3.0404,3.0404,3.0308,2.9583,2.9338,2.9167,2.8026,2.7695,2.7437,2.5785,2.5616,2.5884,2.5341,2.5095,2.5034,2.5208,2.5269,2.5308,2.5308,2.5404,2.5712,2.6447,2.6717,2.7012,2.772,2.8504,2.9253,2.9825,0.0,0.0,0.0,0.0,0.0,0.0,0.0,0.0,0.0,0.0,3.6283,0.0,0.0,0.0,0.0,0.0,0.0,0.0,0.0,3.8019,0.0,3.6273,0.0,0.0,0.0,3.194,3.0404,3.0404,3.0404,3.0404,3.0404,3.0404,3.0404,3.0404,3.0404,3.0404,3.0404,3.0404,3.0481,3.1365,3.2102,3.2795,3.3667,3.4526,3.5192,2.6816,0.0,0.0,0.0,0.0,0.0,0.0,2.786,2.7944,2.765,2.7885,2.8067,2.8067,2.8367,2.8662,2.8943,2.8966,2.9225,2.9827,2.9886,3.0145,3.074,3.1095,3.1441,3.1789,3.2733,3.3409,3.379,0.0,0.0,0.0,0.0,0.0,3.151,0.0,3.2775,0.0,0.0,0.0,3.2022,3.0867,3.0404,3.0404,3.0404,3.0404,3.0346,2.9929,2.9217,2.8327,2.739,2.7648,2.7955,2.576,2.5634,2.6155,2.5378,2.5157,2.5187,2.5269,2.5308,2.5308,2.5308,2.5308,2.5404,2.5827,2.5923,2.6118,2.6797,2.7236,2.7857,2.9057,3.0848,0.0,0.0,0.0,0.0,0.0,0.0,3.6248,0.0,0.0,0.0,0.0,0.0,0.0,0.0,0.0,0.0,0.0,0.0,3.8469,0.0,0.0,0.0,0.0,0.0,0.0,3.0404,3.0404,3.0404,3.0404,3.0404,3.0404,3.0404,3.0404,3.0404,3.0404,3.0404,3.0673,3.1154,3.2006,3.2833,3.368,3.4545,3.5135,3.5442,2.7445,2.8207,0.0,0.0,2.7959,2.7635,2.776,2.8189,2.8334,2.786,2.8319,2.8685,2.8685,2.9111,2.9451,2.9585,2.9585,2.9848,3.0456,3.0497,3.0699,3.1171,3.1291,3.1487,3.1789,3.2349,3.2955,0.0,0.0,0.0,0.0,0.0,0.0,0.0,0.0,0.0,0.0,0.0,3.2614,3.2458,3.0983,3.0519,3.0654,3.0462,3.0404,3.0404,3.0404,2.9538,2.8294,2.7428,2.764,2.7948,2.5923,2.5769,2.6192,2.55,2.5308,2.5308,2.5308,2.5308,2.5308,2.5308,2.5308,2.5308,2.5308,2.5308,2.544,2.5913,2.6103,2.6697,2.8415,2.9903,0.0,0.0,0.0,0.0,0.0,0.0,0.0,0.0,0.0,0.0,3.6406,0.0,0.0,0.0,0.0,0.0,4.0189,3.965,3.8892,0.0,0.0,3.4923,3.3179,0.0,3.1423,3.0404,3.0404,3.0404,3.0404,3.0404,3.0404,3.0404,3.0404,3.0404,3.0404,3.0596,3.1077,3.1795,3.2795,3.3603,3.4321,3.5173,3.55,3.55,0.0,0.0,0.0,0.0,0.0,2.7785,2.8319,2.8463,2.8463,2.8415,2.8943,2.9316,2.9316,2.9361,2.9629,3.0166,3.0208,3.0477,3.1092,3.1131,3.1151,3.119,3.1547,3.1752,3.1807,3.2681,3.3288,0.0,0.0,3.4165,0.0,0.0,0.0,0.0,0.0,0.0,0.0,3.2173,3.2225,3.2712,3.1052,3.0865,3.1487,3.0692,3.0404,3.0404,3.0404,3.0308,3.0038,2.9159,2.7448,2.5615,2.5385,2.5365,2.5404,2.5327,2.5308,2.5308,2.5308,2.5308,2.5308,2.5308,2.5308,2.5308,2.5308,2.5308,2.5273,2.5155,2.5469,2.6313,2.8191,2.8729,2.954,0.0,0.0,0.0,0.0,0.0,3.5845,3.5717,0.0,0.0,0.0,3.6346,0.0,0.0,3.9481,0.0,3.9438,3.9342,3.8892,3.8027,3.7084,3.5776,3.409,3.3218,3.1987,3.0404,3.0404,3.0404,3.0404,3.0404,3.0404,3.0404,3.0404,3.0404,3.0462,3.125,3.1641,3.1852,3.3455,3.4129,3.4321,3.5173,3.55,3.55,0.0,0.0,0.0,0.0,0.0,0.0,0.0,2.9339,2.9585,2.9585,2.9783,2.9935,2.9935,3.0251,3.0597,3.0818,3.0838,3.0938,3.119,3.143,3.1547,3.1547,3.1986,3.2349,3.2631,3.3014,3.3372,0.0,0.0,3.4413,3.3885,3.4367,0.0,0.0,0.0,3.4462,3.4404,3.3564,3.3391,3.3526,3.1852,3.1391,3.1602,3.0731,3.0404,3.0404,3.0404,3.0058,2.9563,2.9223,2.8775,2.8192,2.7178,2.7198,2.7486,2.7005,2.6851,2.6755,2.6212,2.6077,2.5942,2.5423,2.5308,2.5308,2.5308,2.5308,2.5234,2.504,2.5088,2.5408,2.6257,2.7733,2.9003,0.0,0.0,0.0,0.0,0.0,0.0,3.5756,0.0,3.6233,0.0,0.0,0.0,0.0,0.0,0.0,4.0186,3.9661,0.0,3.8858,0.0,3.6154,3.4988,3.3603,3.2314,3.1173,3.0654,3.0404,3.0404,3.0404,3.0404,3.0423,3.0942,3.1173,3.1231,3.2083,3.2737,3.3276,3.3936,3.4526,3.5026,3.5365,3.55,3.55,2.8338,0.0,2.8941,0.0,2.8965,2.8966,2.9563,3.0038,3.0356,3.0539,3.0559,3.0559,3.0559,3.0938,3.119,3.119,3.119,3.1252,3.137,3.1641,3.1861,3.1986,3.2467,0.0,3.3199,3.3317,3.3632,3.4156,3.4753,3.4897,3.4584,3.4946,0.0,0.0,3.5376,3.55,3.5442,3.4564,3.4359,3.443,3.2737,3.2218,3.2314,3.1192,3.0788,3.075,3.05,3.0,2.9486,2.9486,2.989,3.0115,2.8429,2.8299,2.8646,2.8068,2.7895,2.7717,2.6832,2.6601,2.639,2.5519,2.5308,2.5308,2.5308,2.5308,2.5234,2.504,2.4911,2.4884,2.4986,2.697,2.8565,2.8469,0.0,0.0,0.0,3.4215,0.0,3.5744,3.5743,3.6002,3.6828,3.7633,0.0,0.0,0.0,0.0,0.0,0.0,0.0,0.0,0.0,0.0,3.5519,3.4026,3.2872,3.2045,3.1423,3.1135,3.1135,3.1135,3.1135,3.1173,3.1795,3.2045,3.2122,3.2949,3.3641,3.4225,3.4468,3.4968,3.55,3.55,3.55,3.55,2.775,2.8641,2.9268,2.8627,2.9012,2.9585,3.0187,3.0309,3.0518,3.1112,3.119,3.119,3.119,3.119,3.119,3.119,3.119,3.137,3.1771,3.1807,3.2021,0.0,0.0,3.3199,3.3199,3.3578,3.4179,3.4986,0.0,0.0,3.5478,0.0,3.5105,3.5113,3.5376,3.55,3.5442,3.4564,3.4699,3.5327,3.3583,3.3391,3.3994,3.2314,3.1679,3.1564,3.0712,3.0385,3.0385,3.0385,3.0385,3.0115,2.8429,2.7915,2.7915,2.7895,2.7895,2.7717,2.6832,2.6601,2.639,2.5519,2.5308,2.5308,2.5308,2.5308,2.5234,2.504,2.5004,2.5004,2.5004,2.6429,2.7986,2.9104,0.0,0.0,0.0,0.0,0.0,3.5605,3.5631,3.5897,3.6637,3.7555,0.0,0.0,0.0,0.0,0.0,0.0,0.0,3.8053,3.7161,0.0,3.5519,3.4622,3.3744,3.2891,3.2872,3.2872,3.2872,3.2872,3.2872,3.2872,3.2872,3.2891,3.2949,3.384,3.4186,3.4282,3.5154,3.5481,3.55,3.55,3.55,3.55,2.8881,2.9147,2.948,2.9683,2.9908,3.0208,3.0818,3.0918,3.0995,3.1171,3.119,3.119,3.119,3.119,3.131,0.0,3.1621,3.1806,0.0,3.2565,3.2825,3.2968,3.3375,3.3606,3.3606,3.3734,3.3935,3.4192,0.0,0.0,0.0,3.5404,3.5369,3.5376,3.5453,3.55,3.5481,3.5192,3.525,3.5404,3.4257,3.3955,3.409,3.2949,3.2179,3.166,3.1391,3.0904,3.0404,3.0404,3.0404,3.0308,2.9769,2.9596,2.9596,2.9596,2.9596,2.941,2.8544,2.789,2.7274,2.6404,2.5731,2.5308,2.5308,2.5308,2.5274,2.5214,2.5208,2.5381,2.5981,2.7037,2.8126,2.9076,3.0692,0.0,3.3539,0.0,3.4833,3.5723,3.5812,3.613,3.6953,3.777,0.0,0.0,0.0,0.0,0.0,0.0,0.0,0.0,3.696,0.0,3.6327,3.4911,3.4071,3.3782,3.3179,3.2891,3.2891,3.2891,3.2891,3.2929,3.3526,3.3801,3.3853,3.4737,3.5084,3.5115,3.5385,3.55,3.55,3.55,3.55,3.5577,2.9406,2.9585,2.9848,3.023,3.0477,3.0777,3.1151,3.119,3.119,3.119,3.119,3.1269,3.1411,3.143,0.0,3.1789,3.1951,3.2247,3.2729,3.3029,3.3273,3.3422,3.3666,3.3807,3.3807,3.3807,0.0,3.4428,3.5021,3.5508,3.5942,3.5635,3.55,3.55,3.55,3.55,3.55,3.55,3.55,3.5442,3.4911,3.468,3.4584,3.3718,3.3083,3.2602,3.2275,3.1621,3.0923,3.1231,3.0923,3.0462,3.0788,3.0654,3.0404,3.0404,3.0404,3.0212,2.9338,2.8723,2.8068,2.689,2.6192,2.5692,2.5365,2.5308,2.5308,2.5308,2.5558,2.5942,2.6505,2.7563,2.8636,2.9545,3.1165,3.2668,3.3658,0.0,3.5175,0.0,0.0,0.0,0.0,3.7696,3.815,0.0,0.0,0.0,0.0,0.0,0.0,3.8845,3.6684,3.5731,3.6231,3.5218,3.468,3.468,3.4141,3.3891,3.3891,3.3891,3.3891,3.391,3.4449,3.468,3.4737,3.5269,3.55,3.55,3.55,3.5439,3.5354,3.5354,3.5473,3.5725,2.9518,2.9995,3.0356,0.0,3.0838,0.0,3.119,3.119,3.121,3.1249,3.1232,3.1408,3.1807,3.1897,3.1897,3.1897,0.0,0.0,0.0,3.3243,3.3404,3.3775,3.3807,3.3839,3.392,3.392,3.4454,3.5545,3.6053,3.64,3.6596,3.5846,3.55,3.55,3.55,3.55,3.55,3.55,3.55,3.55,3.55,3.55,3.5404,3.4603,3.4244,3.409,3.3276,3.2468,3.191,3.2641,3.1872,3.0712,3.1525,3.1231,3.0558,3.0423,3.0404,3.0212,2.941,2.9146,2.8723,2.7159,2.6697,2.6365,2.55,2.5346,2.5385,2.5385,2.6077,2.6717,2.6755,2.8093,2.9505,3.0449,3.2107,3.3604,3.4477,0.0,3.5696,0.0,0.0,0.0,3.8032,3.7475,3.7361,0.0,0.0,0.0,0.0,0.0,3.804,3.7918,3.6346,3.55,3.55,3.55,3.55,3.55,3.55,3.55,3.55,3.55,3.55,3.55,3.55,3.5493,3.546,3.5493,3.5493,3.5479,3.5551,3.5423,3.5191,3.5249,3.5562,3.5993,0.0,0.0,3.0995,3.0995,3.1112,3.119,3.119,3.119,3.131,3.1621,3.166,3.1825,3.2281,3.2647,3.2872,3.2872,3.2983,3.3211,3.362,3.3666,3.3707,3.3807,3.3807,3.421,3.5076,3.5095,3.5443,3.6103,3.6233,3.611,3.5788,3.5596,3.55,3.55,3.55,3.55,3.55,3.55,3.55,3.55,3.55,3.55,3.5481,3.5269,3.4776,3.4167,3.3975,3.3333,3.2641,3.2833,3.2641,3.2333,3.2545,3.2468,3.2064,3.0788,3.0404,3.0346,3.0154,2.9602,2.8992,2.8607,2.7544,2.6365,2.55,2.5808,2.6288,2.6288,2.6986,2.7775,2.8396,2.9419,3.0451,3.1353,3.3017,3.4263,3.4495,3.515,3.5616,0.0,3.5655,3.6358,3.8107,3.8095,3.833,0.0,0.0,0.0,3.7738,3.728,3.7037,3.7007,3.6019,3.55,3.55,3.55,3.55,3.55,3.55,3.55,3.55,3.55,3.55,3.55,3.55,3.5383,3.5207,3.5424,3.5376,3.5272,3.6096,3.6259,3.6089,3.6708,3.6881,3.6903,3.119,3.119,3.119,3.119,3.1351,3.147,3.147,3.1657,3.186,3.2092,3.2109,3.2298,3.2761,3.3045,3.3273,3.3465,3.348,3.3564,3.3793,3.3807,3.3807,3.3807,3.4292,3.4872,3.5496,3.6005,3.6281,3.6296,3.6818,3.6539,3.5519,3.5885,3.5846,3.55,3.55,3.5692,3.6058,3.6058,3.6269,3.6635,3.6635,3.6404,3.6058,3.6058,3.5519,3.4795,3.4795,3.4237,3.3564,3.3949,3.3564,3.2968,3.3372,3.3218,3.2718,3.1814,3.1269,3.0904,3.0519,3.0038,2.9602,2.9204,2.8145,2.7063,2.6601,2.6851,2.7198,2.7198,2.7852,2.8703,2.9544,3.0453,3.1529,3.2819,3.3874,3.4676,3.5081,3.5489,0.0,3.5646,3.5675,3.6249,3.7653,3.7357,3.743,3.8341,3.7883,0.0,3.6892,3.6404,3.6327,3.6692,3.5923,3.55,3.55,3.55,3.55,3.55,3.55,3.55,3.55,3.55,3.55,3.55,3.55,3.5424,3.5289,3.5304,3.5452,3.5678,3.6143,3.6397,3.6543,3.6969,3.72,3.7348,3.119,3.119,3.119,3.119,3.1528,3.1807,3.1807,3.2196,3.2517,3.2599,3.2599,3.2777,3.3243,3.3288,3.3437,3.3762,3.3807,3.3807,3.3807,3.3807,3.387,3.4047,3.4983,3.5668,3.6005,3.7114,3.7395,3.6748,3.7721,3.7392,3.5885,3.6442,3.6404,3.5865,3.5731,3.6135,3.6904,3.6904,3.7315,3.8007,3.8007,3.7565,3.6904,3.6904,3.6385,3.5673,3.5673,3.5141,3.4507,3.525,3.4519,3.343,3.416,3.3891,3.3276,3.3122,3.2602,3.1852,3.0865,3.05,3.0192,2.9319,2.8588,2.8055,2.7941,2.8004,2.81,2.81,2.8851,2.9737,3.0463,3.1483,3.2753,3.4438,3.4876,3.5252,3.5981,0.0,3.6001,3.5736,3.5717,3.6106,3.7081,3.6343,3.6138,3.6926,3.617,3.5635,3.5519,3.55,3.5808,3.65,3.5865,3.55,3.55,3.55,3.55,3.55,3.55,3.55,3.55,3.55,3.55,3.55,3.55,3.5544,3.5597,3.539,3.5737,3.6416,3.6304,3.652,3.69,3.7024,3.7331,3.7676,3.119,3.119,3.119,3.119,3.1528,3.1807,3.1807,3.2196,3.2632,3.3045,3.309,3.3258,3.3666,3.3707,3.3734,3.3788,3.3807,3.3807,3.3807,3.3807,3.4242,3.5188,3.5416,3.64,3.8328,3.9425,3.9618,3.8835,3.9019,3.8584,3.7603,3.6988,3.7026,3.7584,3.6846,3.6988,3.7796,3.7796,3.7873,3.8007,3.8007,3.7911,3.7796,3.7796,3.7257,3.65,3.65,3.5981,3.5327,3.5442,3.5327,3.5115,3.525,3.5212,3.4942,3.4199,3.3917,3.3468,3.1929,3.0962,3.0192,2.9319,2.9011,2.8755,2.8137,2.8507,2.9006,2.9006,3.0263,3.1424,3.1554,3.2951,3.4422,3.5506,3.6358,3.691,3.6983,0.0,3.6686,3.5795,3.5802,3.6183,3.6951,3.687,3.6826,3.691,3.6671,3.6212,3.5538,3.55,3.5558,3.5673,3.5577,3.55,3.55,3.55,3.55,3.55,3.55,3.55,3.55,3.55,3.55,3.55,3.55,3.576,3.6167,3.6134,3.6445,3.7041,3.7683,3.7839,3.7793,3.8471,3.8641,3.8505,3.147,3.1351,3.1349,3.1823,3.1932,3.2092,3.25,3.2916,3.327,3.3494,3.3905,3.4235,3.444,3.4871,3.5147,3.5147,3.5283,3.5364,3.5364,3.4969,3.502,3.5691,3.6742,3.8089,3.9725,4.0238,4.0112,3.9304,3.9727,3.9284,3.8007,3.8065,3.8065,3.7988,3.7584,3.7873,3.87,3.87,3.895,3.9361,3.9361,3.9084,3.87,3.87,3.8161,3.7411,3.7411,3.6865,3.6154,3.6154,3.6154,3.6077,3.5635,3.5808,3.5981,3.5161,3.4237,3.3359,3.2643,3.2162,3.1661,3.0821,3.0606,3.0401,2.9592,3.0049,3.0651,3.0651,3.1665,3.2695,3.3165,3.435,3.5399,3.5827,3.7084,0.0,0.0,3.6937,3.6863,3.5814,3.5817,3.6011,3.6274,3.6271,3.6236,3.6202,3.6106,3.5885,3.5519,3.55,3.55,3.55,3.55,3.55,3.55,3.55,3.5712,3.6154,3.6154,3.6308,3.6575,3.6575,3.6575,3.6575,3.6575,3.6716,3.6936,3.6796,3.7044,3.7554,3.777,3.8062,3.8389,3.8755,3.8818,3.8707,3.1879,3.187,3.199,3.2665,3.2858,3.31,3.3664,3.4116,3.4376,3.4376,3.4926,3.5298,3.5298,3.5965,3.639,3.639,3.6663,3.6831,3.6902,3.6524,3.6373,3.6592,3.8327,3.9651,4.0469,4.0496,4.0208,3.9573,4.0208,3.9842,3.8584,3.9073,3.9027,3.8565,3.8392,3.8777,3.9573,3.9573,3.9942,4.0545,4.0545,4.0188,3.9644,3.9644,3.9129,3.8376,3.8376,3.7803,3.7057,3.7057,3.7057,3.6941,3.6325,3.6428,3.6652,3.6034,3.476,3.3539,3.3455,3.3272,3.2959,3.2351,3.2191,3.2041,3.137,3.1748,3.2238,3.2238,3.292,3.3738,3.44,3.5281,3.5971,3.619,0.0,0.0,0.0,3.6834,3.6893,3.5877,3.5817,3.5802,3.5682,3.563,3.5595,3.5582,3.5541,3.55,3.55,3.5439,3.5453,3.5592,3.5465,3.5472,3.5592,3.5592,3.6036,3.6888,3.6814,3.7039,3.7508,3.7443,3.7414,3.7414,3.7414,3.7509,3.7661,3.7403,3.7634,3.8157,3.7882,3.8157,3.8707,3.8707,3.8707,3.8707,3.2367,3.3016,3.3545,3.3596,3.457,3.5351,3.5415,3.5811,3.6119,3.6119,3.6174,3.6193,3.6193,3.6475,3.667,3.667,3.6971,3.7265,3.7528,3.8242,3.8651,3.867,3.978,4.0423,4.0496,4.0496,4.0477,4.0419,4.0477,4.0439,4.0304,3.9631,3.9669,4.0285,3.9534,3.965,4.0419,4.0419,4.0523,4.068,4.068,4.0687,4.0699,4.0699,4.0198,3.949,3.9482,3.8874,3.8089,3.8089,3.8089,3.8089,3.8012,3.7535,3.6977,3.6918,3.6234,3.5339,3.4591,3.38,3.3183,3.3111,3.3092,3.3092,3.3106,3.3153,3.3193,3.3193,3.389,3.4513,3.458,3.5319,3.6189,3.7069,0.0,0.0,3.7226,3.7198,3.6884,3.5985,3.578,3.5698,3.5616,3.5596,3.5571,3.5515,3.5507,3.55,3.55,3.5254,3.536,3.5859,3.5389,3.5379,3.5867,3.5867,3.6396,3.744,3.7189,3.7208,3.7499,3.7234,3.7133,3.7133,3.7133,3.754,3.8218,3.7954,3.8298,3.8979,3.8711,3.8652,3.8707,3.8707,3.8707,3.8707,3.3484,3.3981,3.4476,3.5186,3.5988,3.6425,3.6079,3.6179,3.6303,3.6303,3.674,3.7102,3.7266,3.7822,3.8271,3.8481,3.8807,3.9041,3.9128,3.9616,3.9893,3.9893,4.0284,4.0496,4.0496,4.0496,4.0496,4.0496,4.0496,4.0496,4.0496,4.0189,4.0248,4.061,4.0301,4.0358,4.0696,4.0696,4.0727,4.0752,4.0752,4.0779,4.0797,4.0797,4.0607,4.0338,4.0334,3.9789,3.906,3.9075,3.9075,3.8959,3.8423,3.8428,3.8504,3.801,3.7281,3.6567,3.6305,3.5571,3.4755,3.4256,3.4125,3.3991,3.3471,3.3786,3.4176,3.4176,3.4859,3.5464,3.5465,3.6187,3.6698,3.6475,0.0,3.7598,3.6477,3.6745,3.6732,3.5811,3.567,3.5611,3.554,3.554,3.5534,3.5507,3.5354,3.5246,3.5246,3.5475,3.561,3.5644,3.5942,3.6265,3.6651,3.6651,3.7101,3.7993,3.7893,3.8067,3.8491,3.8396,3.8334,3.8334,3.8334,3.8502,3.8783,3.8691,3.8739,3.8844,3.875,3.8707,3.8707,3.8707,3.8707,3.8707,3.4803,3.5271,3.5768,3.6553,3.7184,3.7477,3.711,3.7135,3.7169,3.7169,3.7743,3.8223,3.8415,3.9014,3.9517,3.9742,4.0033,4.0242,4.0242,4.0389,4.0496,4.0496,4.0496,4.0496,4.0496,4.0496,4.0496,4.0496,4.0496,4.0527,4.0566,4.0566,4.0623,4.0731,4.0731,4.0762,4.0797,4.0797,4.0816,4.0864,4.0864,4.088,4.0922,4.0922,4.0922,4.0922,4.0922,4.0541,4.0036,4.0033,4.0033,3.9935,3.9337,3.9391,3.9531,3.8707,3.8071,3.7646,3.7636,3.7187,3.6423,3.5371,3.5117,3.4941,3.4355,3.4667,3.5075,3.5075,3.552,3.5905,3.5905,3.6393,3.6582,3.5942,3.703,3.7522,3.6278,3.6596,3.6723,3.6086,3.5742,3.5558,3.5494,3.5424,3.5376,3.5376,3.5122,3.5049,3.5211,3.5576,3.5876,3.6114,3.6663,3.7164,3.7592,3.7343,3.7679,3.8556,3.8465,3.8663,3.9099,3.9008,3.8971,3.8971,3.8971,3.8971,3.8971,3.8971,3.8869,3.8707,3.8707,3.8707,3.8726,3.8982,3.9074,3.9111,3.6212,3.696,3.7492,3.7511,3.8157,3.8707,3.8707,3.8919,3.9093,3.9093,3.9389,3.9599,3.9599,3.9901,4.0101,4.0101,4.0347,4.0496,4.0496,4.0496,4.0496,4.0496,4.0496,4.0496,4.0496,4.0496,4.0496,4.0496,4.0496,4.0574,4.0697,4.0697,4.0742,4.0801,4.0801,4.0801,4.0801,4.0801,4.0896,4.1016,4.1016,4.1099,4.1211,4.1211,4.1211,4.1211,4.1211,4.1126,4.0996,4.0996,4.0996,4.0996,4.0996,4.0496,3.9746,3.8867,3.8613,3.8573,3.8448,3.8395,3.8016,3.6424,3.6016,3.6016,3.6016,3.5966,3.5921,3.5921,3.5816,3.5726,3.5726,3.5707,3.5707,3.5703,3.6439,3.7,3.7,3.6944,3.6903,3.6903,3.6067,3.5519,3.5519,3.5266,3.5105,3.5105,3.486,3.4945,3.5478,3.551,3.612,3.747,3.7511,3.7896,3.8689,3.7915,3.8032,3.9099,3.8829,3.8844,3.9085,3.8815,3.8707,3.8707,3.8707,3.8707,3.8707,3.8707,3.8707,3.8707,3.8707,3.8707,3.8817,3.9606,3.9916,4.001,3.7004,3.7345,3.7676,3.823,3.8707,3.8971,3.8971,3.9244,3.9438,3.9438,3.9541,3.9679,3.9922,4.0032,4.0177,4.0364,4.0457,4.0496,4.0496,4.0496,4.0496,4.0496,4.0496,4.0496,4.0496,4.0496,4.0496,4.0496,4.0589,4.0655,4.0697,4.0742,4.0828,4.095,4.095,4.0992,4.1119,4.1685,4.1944,4.2047,4.2652,4.2928,4.2949,4.2949,4.2578,4.2031,4.2031,4.1659,4.1149,4.1149,4.1149,4.1149,4.1149,4.0995,4.0742,4.0397,3.9843,3.9345,3.926,3.8806,3.8205,3.7723,3.7612,3.7612,3.7612,3.7592,3.7576,3.7576,3.7555,3.7518,3.7518,3.7019,3.6592,3.6551,3.677,3.689,3.6804,3.7308,3.7661,3.7661,3.6881,3.6346,3.6346,3.5591,3.5105,3.5105,3.521,3.5231,3.5145,3.627,3.7094,3.7492,3.8046,3.8469,3.8707,3.8469,3.8493,3.8833,3.875,3.8732,3.8833,3.8735,3.8707,3.8707,3.8707,3.8707,3.8707,3.8707,3.8707,3.8762,3.9313,3.9533,3.9643,4.0451,4.0744,4.0765,3.7881,3.7955,3.8162,3.8752,3.8999,3.9133,3.9276,3.9587,3.9797,3.9797,3.9893,4.0024,4.0232,4.0269,4.033,4.0481,4.0496,4.065,4.0989,4.1008,4.1162,4.1516,4.1535,4.1373,4.1027,4.1354,4.1536,4.1567,4.1648,4.156,4.1332,4.173,4.162,4.1119,4.1763,4.1928,4.1738,4.2558,4.291,4.2969,4.3496,4.3691,4.3691,4.3691,4.3379,4.291,4.291,4.2383,4.168,4.168,4.1658,4.1575,4.1224,4.1314,4.1472,4.1047,4.0546,4.012,4.0056,3.965,3.9243,3.9173,3.8729,3.8307,3.8307,3.8259,3.8228,3.8228,3.821,3.8174,3.8174,3.7753,3.7383,3.7332,3.7623,3.7823,3.7733,3.818,3.8507,3.8507,3.7625,3.7014,3.7014,3.6235,3.5685,3.5579,3.5721,3.5877,3.5973,3.696,3.7658,3.797,3.845,3.8707,3.8707,3.8707,3.8707,3.8707,3.8707,3.8707,3.8707,3.8707,3.8707,3.8707,3.8707,3.8707,3.8726,3.9038,3.9166,3.9258,4.0065,4.0377,4.0469,4.1277,4.1572,4.1625,3.8707,3.8719,3.88,3.9063,3.9147,3.9289,3.9599,3.9922,4.0129,4.0129,4.0347,4.0535,4.0612,4.0631,4.065,4.0727,4.0727,4.1066,4.1865,4.1923,4.2266,4.3079,4.3176,4.2856,4.2083,4.276,4.3142,4.3218,4.323,4.295,4.2422,4.3228,4.2838,4.1484,4.3027,4.3262,4.2578,4.3457,4.3828,4.3828,4.3906,4.3926,4.3926,4.3926,4.3887,4.3808,4.3808,4.3242,4.2519,4.2499,4.2445,4.2269,4.1454,4.1682,4.2054,4.1252,4.0956,4.0915,4.0914,4.0867,4.0797,4.0735,3.9713,3.8687,3.8531,3.8394,3.8307,3.8307,3.8273,3.8219,3.8219,3.8161,3.8123,3.8123,3.8777,3.9304,3.9304,3.9361,3.9419,3.9419,3.8355,3.7622,3.7622,3.7062,3.6602,3.6313,3.6358,3.674,3.7456,3.7566,3.7951,3.8689,3.8707,3.8707,3.8707,3.8707,3.8707,3.8707,3.8707,3.8707,3.8707,3.8707,3.8707,3.8707,3.8781,3.8817,3.8872,3.968,4.001,4.0084,4.0875,4.1205,4.1297,4.2121,4.2415,4.2506,3.8707,3.8869,3.9036,3.9085,3.9522,3.9912,3.9982,4.0232,4.0406,4.0406,4.0465,4.0766,4.145,4.1527,4.1797,4.247,4.2547,4.2624,4.2816,4.2816,4.2934,4.3169,4.3834,4.4169,4.4079,4.3478,4.3244,4.3368,4.3465,4.3453,4.3322,4.3566,4.3495,4.3164,4.3535,4.3594,4.3476,4.4355,4.4726,4.4785,4.5469,4.5742,4.5742,4.5742,4.5312,4.4707,4.4594,4.4034,4.3324,4.3211,4.3175,4.3133,4.2942,4.2984,4.3062,4.2768,4.2236,4.1852,4.2432,4.2071,4.1717,4.2362,4.2295,4.1699,4.0337,4.0,3.9979,3.9979,3.9961,3.9958,3.9958,3.9438,3.9015,3.9015,3.9188,3.9304,3.9304,3.9842,4.0246,4.0246,3.9216,3.8518,3.8518,3.7419,3.6602,3.6313,3.6886,3.7327,3.7492,3.8102,3.8524,3.8689,3.8707,3.8707,3.8707,3.8707,3.8707,3.8707,3.8707,3.8707,3.8707,3.8707,3.8707,3.8744,3.9368,3.9643,3.9698,4.0506,4.0838,4.0912,4.1735,4.2047,4.2139,4.2928,4.3239,4.3259,3.888,3.9131,3.9377,3.9552,3.987,4.0139,4.0258,4.0406,4.0496,4.0496,4.0854,4.1296,4.175,4.2181,4.2604,4.3066,4.3104,4.3258,4.3643,4.3728,4.396,4.4428,4.4907,4.5225,4.5352,4.4857,4.4624,4.4695,4.4751,4.4602,4.4287,4.4726,4.4492,4.373,4.457,4.4707,4.4375,4.5254,4.5625,4.5664,4.6113,4.6268,4.6201,4.6201,4.5878,4.5425,4.5348,4.4806,4.4052,4.3568,4.3622,4.3843,4.3435,4.3546,4.3744,4.3289,4.2855,4.2601,4.3002,4.2777,4.2527,4.2989,4.3104,4.2758,4.1412,4.1123,4.0989,4.0593,4.0496,4.0496,4.0496,4.0169,3.9881,3.9881,3.9881,3.9823,3.9698,4.0045,4.0258,4.0082,3.9402,3.8881,3.8764,3.8082,3.7608,3.7456,3.7826,3.8065,3.8065,3.8469,3.8707,3.8707,3.8707,3.8707,3.8707,3.9074,3.9276,3.9276,3.8891,3.8909,3.9276,3.9276,3.9478,3.9866,4.0304,4.0469,4.0524,4.135,4.168,4.1754,4.2561,4.2873,4.291,4.3332,4.3515,4.3515,3.916,3.9469,3.9813,4.0233,4.0349,4.0519,4.0888,4.0939,4.0939,4.0939,4.1566,4.2058,4.222,4.3008,4.3528,4.3528,4.3528,4.3814,4.4509,4.465,4.5053,4.5825,4.5896,4.5995,4.612,4.6122,4.6122,4.6122,4.6122,4.5827,4.5234,4.5957,4.5527,4.4219,4.5664,4.5898,4.5273,4.5976,4.6268,4.6268,4.6246,4.6171,4.6072,4.6072,4.5995,4.5899,4.5896,4.5444,4.4734,4.403,4.418,4.4555,4.384,4.4029,4.4393,4.372,4.3412,4.3335,4.3489,4.3412,4.3335,4.3489,4.3528,4.3297,4.2431,4.2115,4.1816,4.1093,4.0939,4.0939,4.0939,4.0939,4.09,4.0746,4.0676,4.0509,4.0148,4.0042,3.9912,3.9634,3.9302,3.8999,3.8719,3.8707,3.8707,3.8707,3.8707,3.8707,3.8707,3.8836,3.8909,3.8909,3.9038,3.9111,3.9111,3.9772,4.0102,4.0102,3.9441,3.946,4.0102,4.0102,4.0469,4.1113,4.1242,4.1297,4.137,4.2176,4.2506,4.2561,4.3239,4.3515,4.3515,4.3515,4.3515,4.3515,3.9481,3.9797,4.0271,4.1016,4.1368,4.1841,4.2643,4.2758,4.2758,4.2758,4.2854,4.3181,4.3893,4.4739,4.5267,4.5267,4.5267,4.5371,4.5582,4.5615,4.5747,4.6056,4.6072,4.6142,4.6268,4.6269,4.6269,4.6269,4.6269,4.621,4.6133,4.623,4.6172,4.5957,4.6191,4.623,4.6113,4.6135,4.614,4.6117,4.5995,4.5936,4.5924,4.5924,4.5912,4.5885,4.5825,4.5677,4.5467,4.5351,4.5365,4.5426,4.531,4.5342,4.5402,4.5287,4.472,4.4297,4.5056,4.4701,4.4316,4.5075,4.5267,4.5037,4.4162,4.3412,4.2893,4.2777,4.2758,4.2758,4.2758,4.2758,4.2508,4.1758,4.1386,4.095,4.0196,3.984,3.9645,3.9611,3.9302,3.8999,3.8719,3.8707,3.8707,3.8707,3.8707,3.8707,3.8707,3.935,3.9735,3.9735,4.0414,4.0783,4.0783,4.0875,4.093,4.093,4.082,4.082,4.093,4.093,4.1003,4.1132,4.1846,4.2139,4.2194,4.3002,4.3332,4.3349,4.346,4.3515,4.3515,4.3515,4.3515,4.3515,4.0407,4.0807,4.1318,4.2151,4.2422,4.2662,4.3047,4.3104,4.3104,4.3104,4.3489,4.3912,4.4259,4.5075,4.5594,4.5594,4.5665,4.5733,4.5796,4.5901,4.602,4.6106,4.6174,4.6246,4.6308,4.6308,4.6308,4.6308,4.6308,4.6308,4.6308,4.6308,4.6308,4.6308,4.6223,4.6198,4.6175,4.6042,4.5988,4.5985,4.592,4.5877,4.5847,4.5847,4.5795,4.5736,4.5696,4.566,4.5594,4.5594,4.5594,4.5594,4.5594,4.5594,4.5594,4.5594,4.5325,4.5114,4.5498,4.5179,4.4844,4.5227,4.5171,4.4982,4.4785,4.434,4.3774,4.3227,4.3104,4.3104,4.3104,4.3104,4.2909,4.2287,4.2077,4.174,4.1034,4.0803,4.0646,4.0463,4.0322,4.0161,4.0063,4.0031,4.0031,4.0031,4.0031,4.0031,4.0031,4.0377,4.0579,4.0579,4.0912,4.1095,4.1095,4.1535,4.1772,4.1791,4.2231,4.2213,4.1772,4.1772,4.2029,4.2451,4.2818,4.2965,4.3002,4.3349,4.3515,4.3515,4.3515,4.3515,4.3515,4.3515,4.3515,4.3515]}]]